[[{"header":{"parameterUnit":"m.s-1","parameterCategory":1,"la1":30.6,"la2":29.2853,"lo1":-89.7004,"lo2":-87.6739,"dy":0.0162,"dx":0.0183,"nx":112,"ny":82,"refTime":"2023-05-28T12:00:00:Z","depth":0,"parameterNumber":2,"parameterNumberName":"U-component_of_WINDS"},"data":[0.0,0.0,0.0,0.0,0.0,0.0,0.0,0.0,0.0,0.0,0.0,0.0,0.0,0.0,0.0,0.0,0.0,0.0,0.0,0.0,0.0,0.0,0.0,0.0,0.0,0.0,0.0,0.0,0.0,0.0,0.0,0.0,0.0,0.0,0.0,0.0,0.0,0.0,0.0,0.0,0.0,0.0,0.0,0.0,0.0,0.0,0.0,0.0,0.0,0.0,0.0,0.0,0.0,0.0,0.0,0.0,0.0,0.0,0.0,0.0,0.0,0.0,0.0,0.0,0.0,0.0,0.0,0.0,0.0,0.0,0.0,0.0,0.0,0.0,0.0,0.0,0.0,0.0,0.0,0.0,0.0,0.0,0.0,0.0,0.0,0.0,0.0,0.0,0.0,0.0,2.496,2.5127,2.595,2.6499,2.6499,2.6499,2.582,2.4217,0.0,0.0,0.0,0.0,0.0,0.0,0.0,0.0,0.0,0.0,0.0,0.0,0.0,0.0,0.0,0.0,0.0,0.0,0.0,0.0,0.0,0.0,0.0,0.0,0.0,0.0,0.0,0.0,0.0,0.0,0.0,0.0,0.0,0.0,0.0,0.0,0.0,0.0,0.0,0.0,0.0,0.0,0.0,0.0,0.0,0.0,0.0,0.0,0.0,0.0,0.0,0.0,0.0,0.0,0.0,0.0,0.0,0.0,0.0,0.0,0.0,0.0,0.0,0.0,0.0,0.0,0.0,0.0,0.0,0.0,0.0,0.0,0.0,0.0,0.0,0.0,0.0,0.0,0.0,0.0,0.0,0.0,0.0,0.0,0.0,0.0,0.0,0.0,0.0,0.0,0.0,0.0,0.0,0.0,0.0,0.0,0.0,0.0,0.0,0.0,0.0,0.0,0.0,0.0,2.5257,2.6164,2.6404,2.6499,2.6499,2.6499,2.5984,2.4754,0.0,0.0,0.0,0.0,0.0,0.0,0.0,0.0,0.0,0.0,0.0,0.0,0.0,0.0,0.0,0.0,0.0,0.0,0.0,0.0,0.0,0.0,0.0,0.0,0.0,0.0,0.0,0.0,0.0,0.0,0.0,0.0,0.0,0.0,0.0,0.0,0.0,0.0,0.0,0.0,0.0,0.0,0.0,0.0,0.0,0.0,0.0,0.0,0.0,0.0,0.0,0.0,0.0,0.0,0.0,0.0,0.0,0.0,0.0,0.0,0.0,0.0,0.0,0.0,0.0,0.0,0.0,0.0,0.0,0.0,0.0,0.0,0.0,0.0,0.0,0.0,0.0,0.0,0.0,0.0,0.0,0.0,0.0,0.0,0.0,0.0,0.0,0.0,0.0,0.0,0.0,0.0,0.0,0.0,0.0,0.0,0.0,0.0,0.0,0.0,0.0,0.0,0.0,2.4684,2.5259,2.6382,2.6499,2.6499,2.6499,2.6499,2.6005,2.4879,2.4566,0.0,0.0,0.0,0.0,0.0,0.0,0.0,0.0,0.0,0.0,0.0,0.0,0.0,0.0,0.0,0.0,0.0,0.0,0.0,0.0,0.0,0.0,0.0,0.0,0.0,0.0,0.0,0.0,0.0,0.0,0.0,0.0,0.0,0.0,0.0,0.0,0.0,0.0,0.0,0.0,0.0,0.0,0.0,0.0,0.0,0.0,0.0,0.0,0.0,0.0,0.0,0.0,0.0,0.0,0.0,0.0,0.0,0.0,0.0,0.0,0.0,0.0,0.0,0.0,0.0,0.0,0.0,0.0,0.0,0.0,0.0,0.0,0.0,0.0,0.0,0.0,0.0,0.0,0.0,0.0,0.0,0.0,0.0,0.0,0.0,0.0,0.0,0.0,0.0,0.0,0.0,0.0,0.0,0.0,0.0,0.0,0.0,0.0,0.0,0.0,0.0,0.0,2.503,2.5523,2.6411,2.6499,2.6499,2.6499,2.6499,2.6005,2.4879,2.4804,0.0,0.0,0.0,0.0,0.0,0.0,0.0,0.0,0.0,0.0,0.0,0.0,0.0,0.0,0.0,0.0,0.0,0.0,0.0,0.0,0.0,0.0,0.0,0.0,0.0,0.0,0.0,0.0,0.0,0.0,0.0,0.0,0.0,0.0,0.0,0.0,0.0,0.0,0.0,0.0,0.0,0.0,0.0,0.0,0.0,0.0,0.0,0.0,0.0,0.0,0.0,0.0,0.0,0.0,0.0,0.0,0.0,0.0,0.0,0.0,0.0,0.0,0.0,0.0,0.0,0.0,0.0,0.0,0.0,0.0,0.0,0.0,0.0,0.0,0.0,0.0,0.0,0.0,0.0,0.0,0.0,0.0,0.0,0.0,0.0,0.0,0.0,0.0,0.0,0.0,0.0,0.0,0.0,0.0,0.0,0.0,0.0,0.0,0.0,0.0,0.0,0.0,2.5728,2.6411,2.6487,2.6499,2.6499,2.6499,2.6499,2.6005,2.4879,2.4804,0.0,0.0,0.0,0.0,0.0,0.0,0.0,0.0,0.0,0.0,0.0,0.0,0.0,0.0,0.0,0.0,0.0,0.0,0.0,0.0,0.0,0.0,0.0,0.0,0.0,0.0,0.0,0.0,0.0,0.0,0.0,0.0,0.0,0.0,0.0,0.0,0.0,0.0,0.0,0.0,0.0,0.0,0.0,0.0,0.0,0.0,0.0,0.0,0.0,0.0,0.0,0.0,0.0,0.0,0.0,0.0,0.0,0.0,0.0,0.0,0.0,0.0,0.0,0.0,0.0,0.0,0.0,0.0,0.0,0.0,0.0,0.0,0.0,0.0,0.0,0.0,0.0,0.0,0.0,0.0,0.0,0.0,0.0,0.0,0.0,0.0,0.0,0.0,0.0,0.0,0.0,0.0,0.0,0.0,0.0,0.0,0.0,0.0,0.0,0.0,0.0,0.0,2.5661,2.6206,2.6909,2.7002,2.7123,2.7474,2.7512,2.7035,2.5929,0.0,0.0,0.0,0.0,0.0,0.0,0.0,0.0,0.0,0.0,0.0,0.0,0.0,0.0,0.0,0.0,0.0,0.0,0.0,0.0,0.0,0.0,0.0,0.0,0.0,0.0,0.0,0.0,0.0,0.0,0.0,0.0,0.0,0.0,0.0,0.0,0.0,0.0,0.0,0.0,0.0,0.0,0.0,0.0,0.0,0.0,0.0,0.0,0.0,0.0,0.0,0.0,0.0,0.0,0.0,0.0,0.0,0.0,0.0,0.0,0.0,0.0,0.0,0.0,0.0,0.0,0.0,0.0,0.0,0.0,0.0,0.0,0.0,0.0,0.0,0.0,0.0,0.0,0.0,0.0,0.0,0.0,0.0,0.0,0.0,0.0,0.0,0.0,0.0,0.0,0.0,0.0,0.0,0.0,0.0,0.0,0.0,0.0,0.0,0.0,0.0,0.0,2.5741,2.6176,2.6691,2.7457,2.7544,2.7695,2.8072,2.8109,2.7632,2.6562,0.0,0.0,0.0,0.0,0.0,0.0,0.0,0.0,0.0,0.0,0.0,0.0,0.0,0.0,0.0,0.0,0.0,0.0,0.0,0.0,0.0,0.0,0.0,0.0,0.0,0.0,0.0,0.0,0.0,0.0,0.0,0.0,0.0,0.0,0.0,0.0,0.0,0.0,0.0,0.0,0.0,0.0,0.0,0.0,0.0,0.0,0.0,0.0,0.0,0.0,0.0,0.0,0.0,0.0,0.0,0.0,0.0,0.0,0.0,0.0,0.0,0.0,0.0,0.0,0.0,0.0,0.0,0.0,0.0,0.0,0.0,0.0,0.0,0.0,0.0,0.0,0.0,0.0,0.0,0.0,0.0,0.0,0.0,0.0,0.0,0.0,0.0,0.0,0.0,0.0,0.0,0.0,0.0,0.0,0.0,0.0,0.0,0.0,0.0,0.0,0.0,0.0,2.6499,2.7449,2.8109,2.8109,2.8109,2.8109,2.8122,2.8122,2.7657,0.0,0.0,0.0,0.0,0.0,0.0,0.0,0.0,0.0,0.0,0.0,0.0,0.0,0.0,0.0,0.0,0.0,0.0,0.0,0.0,0.0,0.0,0.0,0.0,0.0,0.0,0.0,0.0,0.0,0.0,0.0,0.0,0.0,0.0,0.0,0.0,0.0,0.0,0.0,0.0,0.0,0.0,0.0,0.0,0.0,0.0,0.0,0.0,0.0,0.0,0.0,0.0,0.0,0.0,0.0,0.0,0.0,0.0,0.0,0.0,0.0,0.0,0.0,0.0,0.0,0.0,0.0,0.0,0.0,0.0,0.0,0.0,0.0,0.0,0.0,0.0,0.0,0.0,0.0,0.0,0.0,0.0,0.0,0.0,0.0,0.0,0.0,0.0,0.0,0.0,0.0,0.0,0.0,0.0,0.0,0.0,0.0,0.0,0.0,0.0,0.0,0.0,0.0,2.7027,2.7657,2.8229,2.8618,2.8668,2.8831,2.9264,2.9302,2.8812,2.7713,0.0,0.0,0.0,0.0,0.0,0.0,0.0,0.0,0.0,0.0,0.0,0.0,0.0,0.0,0.0,0.0,0.0,0.0,0.0,0.0,0.0,0.0,0.0,0.0,0.0,0.0,0.0,0.0,0.0,0.0,0.0,0.0,0.0,0.0,0.0,0.0,0.0,0.0,0.0,0.0,0.0,0.0,0.0,0.0,0.0,0.0,0.0,0.0,0.0,0.0,0.0,0.0,0.0,0.0,0.0,0.0,0.0,0.0,0.0,0.0,0.0,0.0,0.0,0.0,0.0,0.0,0.0,0.0,0.0,0.0,0.0,0.0,0.0,0.0,0.0,0.0,0.0,0.0,0.0,0.0,0.0,0.0,0.0,0.0,0.0,0.0,0.0,0.0,0.0,0.0,0.0,0.0,0.0,0.0,0.0,0.0,0.0,0.0,0.0,0.0,0.0,0.0,2.7587,2.8298,2.89,2.922,2.9258,2.9415,2.9767,2.9792,2.9402,2.848,0.0,0.0,0.0,0.0,0.0,0.0,0.0,0.0,0.0,0.0,0.0,0.0,0.0,0.0,0.0,0.0,0.0,0.0,0.0,0.0,0.0,0.0,0.0,0.0,0.0,0.0,0.0,0.0,0.0,0.0,0.0,0.0,0.0,0.0,0.0,0.0,0.0,0.0,0.0,0.0,0.0,0.0,0.0,0.0,0.0,0.0,0.0,0.0,0.0,0.0,0.0,0.0,0.0,0.0,0.0,0.0,0.0,0.0,0.0,0.0,0.0,0.0,0.0,0.0,0.0,0.0,0.0,0.0,0.0,0.0,0.0,0.0,0.0,0.0,0.0,0.0,0.0,0.0,0.0,0.0,0.0,0.0,0.0,0.0,0.0,0.0,0.0,0.0,0.0,0.0,0.0,0.0,0.0,0.0,0.0,0.0,0.0,0.0,0.0,0.0,0.0,0.0,2.8172,2.9126,2.9792,2.9792,2.9792,2.9792,2.9792,2.9792,2.9541,2.8944,0.0,0.0,0.0,0.0,0.0,0.0,0.0,0.0,0.0,0.0,0.0,0.0,0.0,0.0,0.0,0.0,0.0,0.0,0.0,0.0,0.0,0.0,0.0,0.0,0.0,0.0,0.0,0.0,0.0,0.0,0.0,0.0,0.0,0.0,0.0,0.0,0.0,0.0,0.0,0.0,0.0,0.0,0.0,0.0,0.0,0.0,0.0,0.0,0.0,0.0,0.0,0.0,0.0,0.0,0.0,0.0,0.0,0.0,0.0,0.0,2.952,2.9114,0.0,0.0,0.0,0.0,0.0,0.0,0.0,0.0,0.0,0.0,0.0,0.0,0.0,0.0,0.0,0.0,0.0,0.0,0.0,0.0,0.0,0.0,0.0,0.0,0.0,0.0,0.0,0.0,0.0,0.0,0.0,0.0,0.0,0.0,0.0,0.0,0.0,0.0,0.0,0.0,2.8681,2.9365,2.9792,2.9792,2.9792,2.9792,2.9792,2.9792,2.9541,2.8944,2.8693,0.0,0.0,0.0,0.0,0.0,0.0,0.0,0.0,0.0,0.0,0.0,0.0,0.0,0.0,0.0,0.0,0.0,0.0,0.0,0.0,0.0,0.0,0.0,0.0,0.0,0.0,0.0,0.0,0.0,0.0,0.0,0.0,0.0,0.0,0.0,0.0,0.0,0.0,0.0,0.0,0.0,0.0,0.0,0.0,0.0,0.0,0.0,0.0,0.0,0.0,0.0,0.0,0.0,0.0,0.0,0.0,0.0,0.0,0.0,3.0148,2.9758,0.0,0.0,0.0,0.0,0.0,0.0,0.0,0.0,0.0,0.0,0.0,0.0,0.0,0.0,0.0,0.0,0.0,0.0,0.0,0.0,0.0,0.0,0.0,0.0,0.0,0.0,0.0,0.0,0.0,0.0,0.0,0.0,0.0,0.0,0.0,0.0,0.0,0.0,0.0,0.0,2.9264,2.9822,3.0281,3.0532,3.0577,3.0577,3.0577,3.0033,2.9577,2.9264,2.8995,0.0,0.0,0.0,0.0,0.0,0.0,0.0,0.0,0.0,0.0,0.0,0.0,0.0,0.0,0.0,0.0,0.0,0.0,0.0,0.0,0.0,0.0,0.0,0.0,0.0,0.0,0.0,0.0,0.0,0.0,0.0,0.0,0.0,0.0,0.0,0.0,0.0,0.0,0.0,0.0,0.0,0.0,0.0,0.0,0.0,0.0,0.0,0.0,0.0,0.0,0.0,0.0,0.0,3.1795,3.1854,3.1854,3.1854,3.1854,3.178,3.0561,3.0277,3.0627,2.9998,0.0,0.0,0.0,0.0,0.0,0.0,0.0,0.0,0.0,0.0,0.0,0.0,0.0,0.0,0.0,0.0,0.0,0.0,0.0,0.0,0.0,0.0,2.7853,2.7957,2.7851,2.7944,2.8722,0.0,0.0,0.0,0.0,0.0,0.0,0.0,0.0,0.0,0.0,0.0,2.998,3.0278,3.0687,3.1315,3.1013,3.0931,3.1366,3.0285,2.9602,2.9602,2.9166,2.8893,0.0,0.0,0.0,0.0,0.0,0.0,0.0,0.0,0.0,0.0,0.0,0.0,0.0,0.0,0.0,0.0,0.0,0.0,0.0,0.0,0.0,0.0,0.0,0.0,0.0,0.0,0.0,0.0,0.0,0.0,0.0,0.0,2.8173,2.8442,0.0,0.0,0.0,0.0,0.0,0.0,0.0,0.0,0.0,0.0,0.0,0.0,0.0,3.1585,3.1511,3.2078,3.2362,3.2377,3.2961,3.3245,3.3245,3.3245,3.3245,3.3184,3.2208,0.0,3.1316,3.0643,0.0,0.0,0.0,0.0,0.0,0.0,0.0,0.0,0.0,0.0,0.0,0.0,0.0,0.0,0.0,0.0,0.0,0.0,0.0,0.0,0.0,0.0,2.8855,2.9397,2.9498,2.9497,2.9637,2.8453,2.7483,2.7945,2.8019,2.7996,0.0,0.0,0.0,0.0,0.0,0.0,3.1047,3.0338,3.0171,3.1271,2.9473,2.9058,3.121,3.0285,2.9602,2.9602,2.9531,2.9293,2.881,2.8811,0.0,0.0,0.0,0.0,0.0,0.0,0.0,0.0,0.0,0.0,0.0,0.0,0.0,0.0,0.0,0.0,0.0,0.0,0.0,0.0,0.0,0.0,0.0,0.0,0.0,0.0,0.0,0.0,0.0,2.7946,2.9294,2.9624,2.9924,3.0117,0.0,0.0,0.0,0.0,0.0,0.0,0.0,0.0,0.0,3.2632,3.2991,3.3006,3.2632,3.2916,3.3245,3.3619,3.331,3.3362,3.3698,3.3092,3.2824,3.2779,3.2072,3.1671,3.1445,3.0834,3.0734,3.0934,0.0,0.0,0.0,0.0,3.0737,3.0976,3.032,3.0094,3.0,2.9349,0.0,0.0,0.0,0.0,0.0,0.0,0.0,2.9233,2.9645,2.9329,2.9132,3.0023,3.0256,3.0331,3.062,3.0118,2.9509,2.9126,2.9302,2.9496,2.9496,2.9767,0.0,0.0,0.0,2.9967,3.0742,2.9793,2.9356,3.0193,2.9303,2.9103,3.0185,2.9159,2.8476,2.8476,2.8476,2.8377,2.8144,2.8854,2.9143,0.0,0.0,0.0,0.0,0.0,0.0,0.0,0.0,0.0,0.0,0.0,0.0,0.0,0.0,0.0,0.0,0.0,0.0,0.0,0.0,0.0,0.0,0.0,0.0,0.0,0.0,0.0,0.0,2.9249,3.0313,3.0941,3.0852,3.0882,0.0,0.0,0.0,0.0,0.0,0.0,3.2706,3.3165,3.3382,3.3351,3.3857,3.3975,3.3603,3.3766,3.4106,3.458,3.3688,3.3509,3.398,3.3185,3.2823,3.2777,3.2128,3.1829,3.1766,3.0931,3.0709,3.0849,3.0681,3.1017,3.1557,3.133,3.1564,3.1829,3.0647,3.0252,3.0129,2.9475,2.9336,2.953,3.0273,0.0,0.0,0.0,0.0,2.9928,3.0386,3.0024,2.9747,3.0588,3.0789,3.0922,3.1298,3.1406,3.1148,3.0357,3.0532,3.0789,3.0789,3.0879,0.0,3.1117,3.0121,2.9552,3.0089,2.9082,2.8618,2.9316,2.8832,2.8716,2.9338,2.8296,2.7589,2.7589,2.7589,2.7754,2.8049,2.9013,2.9714,3.0055,0.0,0.0,0.0,0.0,0.0,0.0,0.0,0.0,0.0,0.0,0.0,0.0,0.0,0.0,0.0,0.0,0.0,0.0,0.0,0.0,0.0,0.0,0.0,0.0,0.0,0.0,0.0,0.0,0.0,3.2318,3.1854,0.0,0.0,0.0,0.0,3.3305,3.3934,3.4054,3.3469,3.3232,3.3062,3.2934,3.3089,3.3393,3.3892,3.4508,3.4856,3.4867,3.4449,3.4258,3.4286,3.4229,3.4211,3.414,3.3165,3.2724,3.2631,3.1188,3.099,3.1495,3.0849,3.1017,3.1487,3.0597,3.0281,3.0259,2.9942,2.9819,2.9731,2.912,2.9147,2.9504,3.0057,3.0403,0.0,0.0,3.0952,3.0971,3.1273,3.1301,3.1286,3.1356,3.1369,3.1381,3.1386,3.1406,3.1373,3.1323,3.1336,3.1369,3.1369,0.0,2.9853,3.0374,2.9431,2.8836,2.9375,2.8403,2.8111,2.9258,2.7295,2.6839,2.92,2.8296,2.7589,2.7589,2.7589,2.8109,2.9269,2.9385,3.0006,3.1276,3.1315,0.0,0.0,0.0,0.0,0.0,0.0,0.0,0.0,0.0,0.0,0.0,0.0,0.0,0.0,0.0,0.0,0.0,0.0,0.0,0.0,0.0,0.0,0.0,0.0,0.0,0.0,0.0,0.0,3.2467,3.2662,0.0,3.344,3.3275,3.3245,3.3484,3.3485,3.3365,3.3132,3.3835,3.3932,3.3183,3.4299,3.4665,3.4147,3.4738,3.5254,3.5664,3.5176,3.5174,3.5555,3.4884,3.4385,3.3988,3.3306,3.2769,3.2355,3.1461,3.126,3.1448,3.1202,3.1254,3.1422,3.1099,3.0975,3.0961,3.0853,3.0841,3.0783,3.0583,3.0593,3.0726,3.0911,3.1035,3.1138,3.1232,3.1248,3.1291,3.1387,3.1406,3.1486,3.1838,3.1913,3.2014,3.2411,3.2499,3.2499,3.2499,3.2177,3.2039,3.2437,3.1458,3.068,3.0892,2.9229,2.8043,2.8227,2.7149,2.6548,2.6982,2.6221,2.6062,2.6935,2.661,2.639,2.639,2.639,2.6572,2.7006,2.8564,2.9625,3.0094,3.0893,3.0964,0.0,0.0,0.0,0.0,0.0,0.0,0.0,0.0,0.0,0.0,0.0,0.0,0.0,0.0,0.0,0.0,0.0,0.0,0.0,0.0,0.0,0.0,0.0,0.0,0.0,3.2287,3.2916,3.3155,3.3252,3.3634,3.4425,3.3867,3.3827,3.4753,3.3912,3.3612,3.4137,3.4367,3.4347,3.3995,3.5129,3.5524,3.4985,3.5338,3.573,3.6164,3.5449,3.5313,3.5741,3.5015,3.4502,3.4161,3.3796,3.3407,3.3009,3.2667,3.2516,3.2441,3.1687,3.1406,3.1406,3.1406,3.1406,3.1406,3.1406,3.1406,3.1406,3.1406,3.1406,3.1406,3.1406,3.1406,3.1436,3.1612,3.1675,3.1712,3.1913,3.1972,3.2051,3.2416,3.2503,3.2604,3.3014,3.3102,3.3102,3.3102,3.2422,3.1982,3.2386,3.1067,3.0,3.0,2.8378,2.7194,2.7194,2.657,2.6147,2.6147,2.6147,2.6147,2.6147,2.601,2.5991,2.6137,2.601,2.6178,2.6723,2.84,2.951,2.992,3.0743,3.0894,3.0356,0.0,0.0,0.0,0.0,0.0,0.0,0.0,0.0,0.0,0.0,0.0,0.0,0.0,0.0,0.0,0.0,0.0,0.0,0.0,0.0,0.0,0.0,0.0,3.3438,3.3483,3.3752,3.4394,3.3556,3.3851,3.6205,3.4573,3.4458,3.7134,3.5478,3.5016,3.6573,3.482,3.4249,3.5259,3.5434,3.5761,3.6262,3.6266,3.6266,3.6266,3.5242,3.4753,3.4753,3.4753,3.4741,3.4728,3.4728,3.4715,3.4703,3.4703,3.4703,3.449,3.234,3.1486,3.1482,3.1482,3.1482,3.1436,3.1436,3.1436,3.1436,3.1436,3.1436,3.1436,3.1436,3.1436,3.1549,3.2089,3.224,3.2365,3.2952,3.3102,3.3102,3.3102,3.3102,3.3102,3.3102,3.3093,3.305,3.305,3.2001,3.1147,3.1202,2.9223,2.761,2.7631,2.6937,0.0,2.6431,2.6768,2.6986,2.6986,2.6976,2.7002,2.6986,2.6631,2.6562,2.6957,2.6631,2.7113,2.8674,2.9028,2.9749,3.0901,3.0956,3.0581,2.9853,0.0,0.0,0.0,0.0,0.0,0.0,0.0,0.0,0.0,0.0,0.0,0.0,0.0,0.0,0.0,0.0,0.0,0.0,0.0,0.0,0.0,3.1912,3.2624,3.2179,3.3073,3.3773,3.3702,3.3838,3.4185,3.4846,3.4728,3.4913,3.5667,3.5295,3.5226,3.5661,3.561,3.5357,3.4873,3.5661,3.577,3.5159,3.5521,3.5724,3.5724,3.5844,3.5929,3.5929,3.5929,3.5692,3.527,3.527,3.5067,3.4703,3.4703,3.4703,3.464,3.4025,3.3558,3.3206,3.3206,3.2977,3.2638,3.2638,3.2638,3.2638,3.2638,3.2638,3.2638,3.2638,3.2638,3.2663,3.2813,3.2842,3.2901,3.3052,3.3102,3.3102,3.3102,3.3102,3.3102,3.3102,3.2646,3.2223,3.2223,3.0729,2.9934,3.1444,2.9676,2.8139,2.8439,2.7532,2.6846,2.6846,2.6943,2.6986,2.6986,2.6738,2.668,2.6992,2.6631,2.6562,2.6957,2.6904,2.7037,2.7491,2.8406,2.9069,2.9397,2.9937,2.9638,0.0,0.0,0.0,0.0,0.0,0.0,0.0,0.0,0.0,0.0,0.0,0.0,0.0,0.0,0.0,0.0,0.0,0.0,0.0,0.0,0.0,0.0,3.2085,3.2645,3.196,3.3129,3.4074,3.4116,3.4275,3.4653,3.5329,3.5103,3.5308,3.6208,3.5508,3.5331,3.6031,3.6011,3.5808,3.5426,3.6028,3.6051,3.5403,3.573,3.5893,3.5893,3.623,3.6405,3.6405,3.6405,3.6218,3.5893,3.5893,3.5705,3.5416,3.5416,3.5416,3.5366,0.0,0.0,0.0,0.0,3.4035,3.3771,3.3771,3.3608,3.3442,3.3442,3.3291,3.3102,3.3102,3.3102,3.3102,3.3102,3.3102,3.3102,3.3102,3.3102,3.3023,3.2678,3.2604,3.2499,3.2169,3.1725,3.139,3.139,2.9989,0.0,3.0643,2.9124,2.7781,2.801,2.7634,2.7285,2.7285,2.7441,2.7549,2.7549,2.7334,2.7285,2.7529,2.7168,0.0,0.0,0.0,2.7428,2.7693,2.8381,0.0,0.0,0.0,2.8968,2.8137,2.8204,0.0,0.0,2.8804,2.8717,0.0,0.0,0.0,0.0,0.0,0.0,0.0,0.0,0.0,0.0,0.0,0.0,0.0,0.0,0.0,0.0,3.238,3.3116,3.2402,3.3475,3.4498,3.4921,3.471,3.508,3.651,3.553,3.5592,3.7487,3.5941,3.5521,3.6927,3.6121,0.0,0.0,0.0,3.6405,3.6405,3.6405,3.6405,3.6405,3.6405,3.6405,3.6405,3.6405,3.6405,3.6405,3.6405,3.6405,3.6405,3.6405,3.6405,3.6281,3.5215,3.4791,3.4778,3.4728,3.4703,3.4703,3.4703,0.0,0.0,3.3985,3.3658,3.3291,3.3291,3.3291,3.3291,3.3291,3.3291,3.3235,3.3093,3.3049,3.2856,3.1973,3.177,3.1565,3.0846,3.0619,3.0566,3.0566,2.9582,2.8875,2.929,2.8079,2.71,2.7132,2.7516,2.7761,2.7761,2.8093,2.8291,2.8291,2.8252,0.0,2.8291,2.7936,2.7868,2.8262,2.7976,2.8032,2.8631,2.8661,2.8661,2.8661,2.8661,2.8538,2.8291,2.8291,2.8291,2.8295,2.7762,2.7632,0.0,0.0,0.0,0.0,0.0,0.0,0.0,0.0,0.0,0.0,0.0,0.0,0.0,0.0,0.0,3.1667,3.2534,3.3106,3.2944,3.3918,3.4492,3.4169,3.4454,3.4768,3.5092,3.5267,3.5504,3.5934,3.6035,3.6199,3.6521,3.6335,3.6281,3.6405,3.6405,3.6405,3.6405,3.6405,3.6405,3.6405,3.6405,0.0,3.6405,3.6405,3.6405,3.6405,3.6405,3.6405,3.6405,3.6405,3.6405,3.6318,3.5619,3.5345,3.5282,3.4866,3.4703,3.4703,3.4703,3.4628,3.454,3.454,3.4477,3.4377,3.4377,3.4377,0.0,3.4377,3.4377,3.414,3.3071,3.2771,3.2472,3.123,3.092,3.0895,3.0721,3.0184,2.9715,2.9715,2.9003,2.8427,2.8506,2.7996,2.7682,2.7988,2.8125,2.8174,2.8174,2.8242,2.8291,2.8291,2.8015,2.7946,2.8262,2.7936,2.7868,2.8262,2.8223,2.8231,2.8371,2.8371,2.8371,2.8371,2.8371,2.8354,2.8291,2.8291,2.8291,2.8308,2.8182,2.8151,0.0,0.0,0.0,0.0,0.0,0.0,0.0,0.0,0.0,0.0,0.0,3.1526,3.2258,0.0,3.168,3.2386,3.2832,3.3391,3.4198,3.4766,3.5017,3.4728,3.4941,3.5217,3.5516,3.5793,3.5956,3.5956,3.623,3.6405,3.6405,3.6405,3.6405,3.6405,3.6405,3.6405,3.6405,3.6405,3.6405,3.6405,3.6405,3.6405,3.6405,3.6405,3.6405,3.6405,3.6405,3.6405,3.6405,3.6405,3.6405,3.638,3.6056,3.5956,3.5918,3.5642,3.5542,3.5542,3.5542,3.5366,3.5117,3.5117,3.4929,3.4703,3.4703,3.4703,3.4555,3.388,3.3707,3.3396,3.2053,3.1711,3.1434,3.0346,3.009,2.9981,2.9583,2.9183,2.89,2.89,2.8575,2.8291,2.8291,2.8142,2.8083,2.8262,2.8291,2.8291,2.8291,2.8291,2.8291,2.8291,2.8132,2.8093,2.8271,2.8122,2.8093,2.8281,2.8291,2.8291,2.8291,2.8291,2.8291,2.8291,2.8291,2.8291,2.8291,2.8291,2.8291,2.8291,2.8291,2.8291,0.0,0.0,0.0,0.0,0.0,0.0,0.0,3.1931,3.2266,3.2612,3.2809,3.2802,3.2464,3.2254,3.2409,3.326,3.3504,3.4022,3.5307,3.5596,3.5682,3.5682,3.5682,3.5881,3.6344,3.6405,3.6405,3.6405,3.6405,3.6405,3.6405,3.6405,3.6405,3.6405,3.6405,3.6405,3.6405,3.6405,3.6405,3.6405,3.6405,3.6405,3.6405,3.6405,3.6405,3.6405,3.6405,3.6405,3.6405,3.6405,3.6405,3.6405,3.6405,3.6405,3.6405,3.6405,3.6405,3.6405,3.6405,3.6069,3.5682,3.5682,3.5207,3.4638,3.4638,3.4442,3.4025,3.2925,3.2629,3.232,3.096,3.0618,3.0398,2.9474,2.9271,2.909,2.8443,2.8291,2.8291,2.8291,2.8291,2.8291,2.8291,2.8291,2.8291,2.8291,2.8291,2.8291,2.8291,2.8291,2.8291,2.8291,2.8291,2.8291,2.8291,2.8291,2.8291,2.8291,2.8291,2.8291,2.8291,2.8291,2.8291,2.8291,2.8291,2.8291,2.8291,2.8291,2.8291,2.8291,2.8291,2.8291,2.9803,2.9877,3.0791,3.1974,3.2721,3.3619,0.0,3.5207,3.4767,3.5345,3.4136,3.3236,3.4073,3.3535,3.3298,3.4349,3.4929,3.5282,3.547,3.5968,3.6293,3.6293,3.6293,3.6318,3.6405,3.6405,3.6405,3.6405,3.6405,3.6405,3.6405,3.6405,3.6405,3.6405,3.6405,3.6405,3.6405,3.6405,3.6405,3.6405,3.6405,3.6405,3.6405,3.6405,3.6405,3.6405,3.6405,3.6405,3.6405,3.6405,3.6405,3.6405,3.6405,3.6405,3.6405,3.6405,3.6405,3.6405,3.6405,3.6367,3.6293,3.6293,3.546,3.4425,3.4425,3.3561,3.2549,3.2399,3.2338,3.2049,3.069,3.0341,3.0026,2.8741,2.8426,2.8409,2.8308,2.8291,2.8291,2.8291,2.8291,2.8291,2.8291,2.8291,2.8291,2.8291,2.8291,2.8291,2.8291,2.8291,2.8291,2.8291,2.8291,2.8291,2.8291,2.8291,2.8291,2.8291,2.8291,2.8291,2.8291,2.8291,2.8291,2.8291,2.8291,2.8291,2.8291,2.8291,2.8291,2.8291,2.8291,2.8291,3.3036,3.2931,3.3155,3.4487,3.504,3.5476,3.6314,3.569,3.515,3.5878,3.4882,3.4033,3.4525,3.4309,3.4276,3.5031,3.5345,3.5631,3.5968,3.6243,3.6405,3.6405,3.6405,3.6405,3.6405,3.6405,3.6405,3.6405,3.6405,3.6405,3.6405,3.6405,3.6405,3.6405,3.6405,3.6405,3.6405,3.6405,3.6405,3.6405,3.6405,3.6405,3.6405,3.6405,3.6405,3.6405,3.6405,3.6405,3.6405,3.6405,3.6405,3.6405,3.6405,3.6405,3.6405,3.6405,3.6405,3.6405,3.6405,3.5894,3.5247,3.5247,3.4288,3.318,3.318,3.2769,3.2129,3.1352,3.1147,3.0824,2.9487,2.9128,2.8996,2.8424,2.8291,2.8291,2.8291,2.8291,2.8291,2.8291,2.8291,2.8291,2.8291,2.8291,2.8291,2.8291,2.8291,2.8291,2.8291,2.8291,2.8291,2.8291,2.8291,2.8291,2.8291,2.8291,2.8291,2.8291,2.8291,2.8291,2.8291,2.8291,2.8291,2.8291,2.8291,2.8291,2.8291,2.8291,2.8291,2.8291,2.8291,2.8291,3.4592,3.4742,3.4817,3.6164,3.6663,3.6912,3.7233,3.6725,3.6271,3.6553,3.6015,3.5371,3.4976,3.4929,3.5104,3.5656,3.5744,3.5906,3.6331,3.6405,3.6405,3.6405,3.6405,3.6405,3.6405,3.6405,3.6405,3.6405,3.6405,3.6405,3.6405,3.6405,3.6405,3.6405,3.6405,3.6405,3.6405,3.6405,3.6405,3.6405,3.6405,3.6405,3.6405,3.6405,3.6405,3.6405,3.6405,3.6405,3.6405,3.6405,3.6405,3.6405,3.6405,3.6405,3.6358,3.5989,3.6085,3.6358,3.5989,3.5223,3.4337,3.3945,3.288,3.176,3.176,3.148,3.0994,3.0016,2.9739,2.9529,2.8548,2.8291,2.8291,2.8291,2.8291,2.8291,2.8291,2.8291,2.8291,2.8291,2.8291,2.8291,2.8291,2.8291,2.8291,2.8291,2.8291,2.8291,2.8291,2.8291,2.8291,2.8291,2.8291,2.8291,2.8291,2.8291,2.8291,2.8291,2.8291,2.8291,2.8291,2.8291,2.8291,2.8291,2.8291,2.8291,2.8291,2.8291,2.8291,2.8291,2.8291,2.8291,3.32,3.4024,3.4817,3.6164,3.7098,3.7945,3.9052,3.9387,3.9173,3.8145,3.7979,3.747,3.578,3.547,3.5682,3.6268,3.638,3.6392,3.6405,3.6405,3.6405,3.6405,3.6405,3.6405,3.6405,3.6405,3.6405,3.6405,3.6405,3.6405,3.6405,3.6405,3.6405,3.6405,3.6405,3.6405,3.6405,3.6405,3.6405,3.6405,3.6405,3.6405,3.6405,3.6405,3.6405,3.6405,3.6405,3.6405,3.6405,3.6405,3.6405,3.6405,3.6405,3.6405,3.6239,3.4945,3.5271,3.6203,3.4908,3.4434,3.4178,3.2819,3.1454,3.0369,3.0369,2.946,2.8415,2.8371,2.8371,2.8344,2.8318,2.8291,2.8291,2.8291,2.8291,2.8291,2.8291,2.8291,2.8291,2.8291,2.8291,2.8291,2.8291,2.8291,2.8291,2.8291,2.8291,2.8291,2.8291,2.8291,2.8291,2.8291,2.8291,2.8291,2.8291,2.8291,2.8291,2.8291,2.8291,2.8291,2.8291,2.8291,2.8291,2.8291,2.8291,2.8291,2.8291,2.8291,2.8291,2.8291,2.8291,2.8291,3.5744,3.6252,3.6851,3.8631,3.9304,3.9496,3.9532,3.9062,3.8366,3.7572,3.684,3.6325,3.6132,3.6094,3.6168,3.638,3.6405,3.6405,3.6405,3.6405,3.6405,3.6405,3.6405,3.6405,3.6405,3.6405,3.6405,3.6405,3.6405,3.6405,3.6405,3.6405,3.6405,3.6405,3.6405,3.6405,3.6405,3.6405,3.6405,3.6405,3.6405,3.6405,3.6405,3.6405,3.6405,3.6405,3.6405,3.6405,3.6405,3.6405,3.6405,3.631,3.5415,3.5078,3.4896,3.3527,3.3292,3.3614,3.3168,3.2418,3.1607,3.1133,3.0068,2.8979,2.8979,2.8644,2.8291,2.8291,2.8291,2.8291,2.8291,2.8291,2.8291,2.8291,2.8291,2.8291,2.8291,2.8291,2.8291,2.8291,2.8291,2.8291,2.8291,2.8291,2.8291,2.8291,2.8291,2.8291,2.8291,2.8291,2.8291,2.8291,2.8291,2.8291,2.8291,2.8291,2.8291,2.8291,2.8291,2.8291,2.8291,2.8291,2.8291,2.8291,2.8291,2.8291,2.8291,2.8291,2.8291,2.8291,2.8291,2.8291,3.7285,3.7764,3.8242,4.0247,4.0608,4.0478,4.0583,3.9771,3.8748,3.7955,3.7205,3.6586,3.6157,3.6243,3.6444,3.6645,3.6683,3.6683,3.6683,3.6683,3.6607,3.643,3.6405,3.6405,3.6405,3.6405,3.6405,3.6405,3.6405,3.6405,3.6405,3.6405,3.6405,3.6405,3.6405,3.6405,3.6405,3.6405,3.6405,3.6405,3.6405,3.6405,3.6405,3.6405,3.6405,3.6405,3.6405,3.6405,3.6405,3.6405,3.6108,3.5595,3.4727,3.4092,3.3489,3.2115,3.1582,3.1582,3.1582,3.103,3.0214,2.9739,2.9006,2.8291,2.8291,2.8291,2.8291,2.8291,2.8291,2.8291,2.8291,2.8291,2.8291,2.8291,2.8291,2.8291,2.8291,2.8291,2.8291,2.8291,2.8291,2.8291,2.8291,2.8291,2.8291,2.8291,2.8291,2.8291,2.8291,2.8291,2.8291,2.8291,2.8291,2.8291,2.8291,2.8291,2.8291,2.8291,2.8291,2.8291,2.8291,2.8291,2.8291,2.8291,2.8291,2.8291,2.8291,2.8291,2.8291,2.8291,2.8291,2.8369,3.7841,3.8544,3.9023,4.0969,4.1023,4.0888,4.1976,4.1284,4.0125,3.9031,3.8776,3.8057,3.5945,3.6006,3.6581,3.7085,3.7173,3.7173,3.7173,3.7173,3.6972,0.0,0.0,0.0,0.0,0.0,3.6405,3.6405,3.6405,3.6405,3.6405,3.6405,3.6405,3.6405,3.6405,3.6405,3.6405,3.6405,3.6405,3.6405,3.6405,3.6405,3.6405,3.6405,3.6405,3.6405,3.6405,3.6358,3.631,3.631,3.5523,3.4288,3.4227,3.3365,3.2039,3.0695,3.0188,3.0188,3.0188,3.0188,2.999,2.8698,2.8291,2.8291,2.8291,2.8291,2.8291,2.8291,2.8291,2.8291,2.8291,2.8291,2.8291,2.8291,2.8291,2.8291,2.8291,2.8291,2.8291,2.8291,2.8291,2.8291,2.8291,2.8291,2.8264,2.8211,2.8264,2.8291,2.8291,2.8291,2.8291,2.8291,2.8291,2.8291,2.8291,2.8291,2.8291,2.8291,2.8291,2.8291,2.8291,2.8291,2.8291,2.8291,2.8291,2.8301,2.833,2.833,2.834,2.8359,2.8359,2.8574,3.9709,4.0247,4.0879,4.1901,4.1361,4.0474,3.9966,3.8967,3.7796,3.6628,3.637,3.6329,3.6186,3.6293,3.6431,3.657,3.6595,3.6595,3.6595,3.6595,0.0,3.643,0.0,3.6405,3.6405,3.6405,3.6405,3.6405,3.6405,3.6405,3.6405,3.6405,3.6405,3.6405,3.6405,3.6405,3.6405,3.6405,3.6405,3.6405,3.6405,3.6405,3.6405,3.6405,3.6405,3.6405,3.6405,3.5847,3.4908,3.4908,3.4092,3.2744,3.1735,3.1133,3.0644,2.9303,2.8794,2.8794,2.8794,2.8794,2.8751,2.8415,2.8291,2.8291,2.8291,2.8291,2.8291,2.8291,2.8291,2.8291,2.8291,2.8291,2.8291,2.8291,2.8291,2.8291,2.8291,2.8291,2.8291,2.8291,2.8291,2.8291,2.8291,2.8291,2.7924,2.6825,2.7592,2.8291,2.8291,2.8291,2.8291,2.8291,2.8291,2.8291,2.8291,2.8291,2.8291,2.8291,2.8291,2.8291,2.8291,2.8291,2.8291,2.8291,2.8291,2.8447,2.876,2.876,2.8926,2.9276,2.9276,2.9324,4.1044,4.1553,4.1987,4.2646,4.2085,4.1177,4.0341,3.9186,3.794,3.6576,3.6247,3.6157,3.6037,3.6218,3.6493,3.6708,3.6746,3.6746,3.6746,3.6746,3.6658,0.0,3.6405,0.0,3.6405,3.6405,3.6405,3.6405,3.6405,3.6405,3.6405,3.6405,3.6405,3.6405,3.6405,3.6405,3.6405,3.6405,3.6405,3.6405,3.6405,3.6405,3.6405,3.6405,3.6085,3.5523,3.5523,3.4739,3.3489,3.3489,3.268,3.1352,3.0592,2.9937,2.9329,2.8575,2.8291,2.8291,2.8291,2.8291,2.8291,2.8291,2.8291,2.8291,2.8291,2.8291,2.8291,2.8291,2.8291,2.8291,2.8291,2.8291,2.8291,2.8291,2.8291,2.8291,2.8291,2.8291,2.8291,2.8291,2.8291,2.8291,2.8291,2.7753,2.7051,2.6209,2.6218,2.6336,2.6336,2.7474,2.804,2.7394,2.733,2.733,2.733,2.733,2.7609,2.8264,2.8291,2.8291,2.8291,2.8467,2.8564,2.8564,2.876,2.8965,2.9209,2.9209,2.9336,2.957,2.8841,2.8616,4.1897,4.2358,4.2435,4.2947,4.2451,4.1688,4.1149,4.0014,3.8678,3.7343,3.6974,3.6631,3.5791,3.6107,3.6656,3.7034,3.716,3.7185,3.711,3.7097,3.6921,3.6468,3.6405,3.6405,3.6405,3.6444,3.6493,3.6417,3.648,3.648,3.6405,3.6405,3.6405,3.6405,3.6405,3.6405,3.6405,3.6405,3.6405,3.6405,3.6405,3.6405,3.6381,3.6216,3.5487,3.4385,3.4202,3.334,3.2028,3.2028,3.125,3.0042,3.0042,2.9329,2.8291,2.8291,2.8291,2.8291,2.8291,2.8291,2.8291,2.8291,2.8291,2.8291,2.8291,2.8291,2.8291,2.8291,2.8291,2.8291,2.8291,2.8291,2.8291,2.8291,2.8291,2.8291,2.8291,2.8291,2.8291,2.8291,2.8291,2.8237,2.804,2.6943,2.5955,2.5572,2.4516,2.3738,2.3543,2.5973,2.7222,2.5927,2.5791,2.5791,2.5791,2.5991,2.6572,2.7695,2.7957,2.7985,2.7844,2.8353,2.8665,2.8665,2.9292,2.9627,2.9686,2.948,2.9397,2.9389,2.7723,2.7173,4.2156,4.2089,4.1746,4.1862,4.0356,3.8713,3.8169,3.7094,0.0,3.5872,3.5805,3.5875,3.6179,3.6695,3.6947,3.6606,3.6909,3.7047,3.6595,3.6556,3.6494,0.0,3.6405,3.6405,3.6405,3.6796,3.6884,3.6443,3.6808,3.6859,3.643,3.6405,3.6405,3.6405,3.6405,3.6405,3.6405,3.6405,3.6405,3.6405,3.6405,3.6405,3.6358,3.5247,3.4605,3.4337,3.318,3.1912,3.0644,3.0644,2.9859,2.8654,2.8654,2.8495,2.8291,2.8291,2.8291,2.8291,2.8291,2.8291,2.8291,2.8291,2.8291,2.8291,2.8291,2.8291,2.8291,2.8291,2.8291,2.8291,2.8291,2.8291,2.8291,2.8291,2.8291,2.8291,2.8291,2.8291,2.8291,2.8291,2.8291,2.7897,2.6689,2.6264,2.5261,2.2758,2.3179,2.3347,2.2145,2.3515,2.4488,2.4239,2.4211,2.4211,2.4211,2.538,2.5796,2.5051,2.6132,2.6359,2.5368,2.6665,2.7401,2.7401,2.8859,2.9764,3.0088,2.8762,2.8283,2.8573,2.6944,2.622,4.1887,4.2232,4.2208,4.1,4.0053,3.9108,3.7963,0.0,0.0,3.6022,3.5968,3.6056,3.6344,3.6595,3.6783,3.6808,3.6796,3.6783,3.6808,3.6593,3.6405,3.6405,3.6405,3.6405,3.6405,3.662,3.667,3.643,3.6632,3.6658,3.6394,3.6405,3.6405,3.6405,3.6405,3.6405,3.6405,3.6405,3.6405,3.6381,3.5691,3.5367,3.5319,3.3933,3.293,3.2227,3.1556,3.0488,2.926,2.926,2.8873,2.8291,2.8291,2.8291,2.8291,2.8291,2.8291,2.8291,2.8291,2.8291,2.8291,2.8291,2.8291,2.8291,2.8291,2.8291,2.8291,2.8291,2.8291,2.8291,2.8291,2.8291,2.8291,2.8291,2.8291,2.8291,2.8291,2.8291,2.8291,2.8291,2.8291,2.7843,2.6345,2.5434,2.4147,2.1919,2.1536,2.1238,2.0565,2.1066,2.1792,2.2561,2.2782,2.2855,2.2855,2.3714,2.4302,2.4495,2.5165,2.5307,2.472,2.5641,2.6152,2.6152,2.8011,2.9074,2.9271,2.85,2.8207,2.8328,2.5901,2.4748,4.1172,4.1683,4.1706,3.9815,3.9426,3.9197,3.7998,3.7326,3.6861,3.6469,3.6405,3.6405,3.6405,3.6482,3.6708,3.7135,3.6846,3.6708,3.7148,3.6733,3.6405,3.6405,3.6405,0.0,3.6405,3.6494,3.6531,3.6417,3.6405,3.6405,3.6405,3.6405,3.6405,3.6405,3.6405,3.6405,3.6405,3.6108,3.5966,3.5966,3.4593,3.3945,3.3896,3.2518,3.1301,3.0292,2.999,2.9276,2.8291,2.8291,2.8291,2.8291,2.8291,2.8291,2.8291,2.8291,2.8291,2.8291,2.8291,2.8291,2.8291,2.8291,2.8291,2.8291,2.8291,2.8291,2.8291,2.8291,2.8291,2.8291,2.8291,2.8291,2.8291,2.8291,2.8291,2.8291,2.8291,2.8291,2.8291,2.8291,2.804,2.7367,2.5854,2.435,2.2822,2.1337,2.0148,1.9421,1.9481,1.9488,1.9961,2.1169,2.1452,2.1555,2.1627,2.2172,2.2885,2.3791,2.4145,2.4207,2.3923,2.4572,2.4926,2.4926,2.6897,2.7901,2.7901,2.7542,2.7361,2.7301,2.4417,2.3052,3.9891,3.9236,3.8317,3.769,3.6757,3.607,3.6478,0.0,3.6447,3.6416,3.6405,3.6405,3.6405,3.6796,3.7148,3.7198,3.7173,3.7148,3.7198,3.6733,3.6405,3.6405,0.0,0.0,3.6405,3.6833,3.6921,3.6455,3.6405,3.6405,3.6405,3.6405,3.6405,3.6405,3.6405,3.6405,3.6405,3.5199,3.4581,3.4581,3.3155,3.2482,3.2457,3.1096,3.0421,3.024,2.9006,2.8415,2.8291,2.8291,2.8291,2.8291,2.8291,2.8291,2.8291,2.8291,2.8291,2.8291,2.8291,2.8291,2.8291,2.8291,2.8291,2.8291,2.8291,2.8291,2.8291,2.8291,2.8291,2.8291,2.8291,2.8291,2.8291,2.8291,2.8291,2.8291,2.8291,2.8291,2.8291,2.8291,2.7222,2.5818,2.4267,2.2786,2.1309,1.9815,1.9482,1.9488,1.9726,1.976,1.9919,2.0301,2.0142,2.0102,2.0342,2.1692,2.2099,2.1132,2.2313,2.2559,2.1473,2.2925,2.3769,2.3769,2.5397,2.6219,2.6219,2.4748,2.4031,2.4,2.2184,2.1324,3.8565,3.8461,3.7823,3.653,3.6393,3.6547,3.6431,0.0,3.6405,3.6405,3.6405,3.6405,3.6405,3.6557,3.6821,3.7148,3.6934,3.6833,3.716,3.6733,3.6405,3.6405,3.6405,3.6405,3.6405,3.6582,3.662,3.643,3.6405,3.6061,3.5247,3.5199,3.5571,3.6381,3.5619,3.5199,3.5199,3.4678,3.397,3.313,3.176,3.1096,3.1045,2.9713,2.9102,2.9075,2.8521,2.8291,2.8291,2.8291,2.8291,2.8291,2.8291,2.8291,2.8291,2.8291,2.8291,2.8291,2.8291,2.8291,2.8291,2.8291,2.8291,2.8291,2.8291,2.8291,2.8291,2.8291,2.8291,2.8291,2.8291,2.8291,2.8291,2.8291,2.8291,2.8291,2.8291,2.8291,2.804,2.7132,2.649,2.5316,2.2898,2.2004,2.1088,1.962,1.9542,1.9673,1.9786,1.9953,2.0174,2.0468,2.0401,2.0374,2.0494,2.1204,2.1448,2.096,2.1485,2.1603,2.1102,2.1727,2.2097,2.2097,2.3714,2.4571,2.4532,2.39,2.3605,2.3574,2.1884,2.1109,3.6866,3.7235,3.7059,3.5627,3.6018,3.6654,3.6229,0.0,3.6344,3.618,3.6281,3.6405,3.6405,3.6405,3.6593,3.7122,3.6746,3.6606,3.7135,3.6871,3.6632,3.6632,3.6632,3.6632,3.6632,3.6482,3.6239,3.5834,3.581,3.521,3.3846,3.3797,3.4386,3.5763,3.4896,3.441,3.441,3.3588,3.2705,3.1684,3.0343,2.9713,2.9686,2.8724,2.8291,2.8291,2.8291,2.8291,2.8291,2.8291,2.8291,2.8291,2.8291,2.8291,2.8291,2.8291,2.8291,2.8291,2.8291,2.8291,2.8291,2.8291,2.8291,2.8291,2.8291,2.8291,2.8291,2.8291,2.8291,2.8291,2.8291,2.8291,2.8291,2.8291,2.8291,2.8291,2.8291,2.796,2.734,2.6291,2.5371,2.4092,2.1975,2.1252,2.0615,1.9647,1.9673,1.986,2.004,2.0234,2.0474,2.0775,2.0833,2.0833,2.0833,2.0989,2.1109,2.1109,2.1109,2.1109,2.1109,2.1109,2.1109,2.1109,2.2247,2.2865,2.2865,2.2865,2.2865,2.2834,2.1664,2.1109,3.4686,3.512,3.5394,3.4844,3.5117,3.5531,3.5508,3.5968,3.623,3.5644,3.5981,3.6405,3.6405,3.6405,3.6593,3.7122,3.6746,3.6606,3.7135,3.7198,3.7198,3.7198,3.7198,3.7198,3.7198,3.6708,3.5834,3.4508,3.4434,3.3822,3.2392,3.2306,3.2969,3.4385,3.441,3.441,3.441,3.1684,3.0343,3.0292,2.8953,2.8318,2.8318,2.8318,2.8291,2.8291,2.8291,2.8291,2.8291,2.8291,2.8291,2.8291,2.8291,2.8291,2.8291,2.8291,2.8291,2.8291,2.8291,2.8291,2.8291,2.8291,2.8291,2.8291,2.8291,2.8291,2.8291,2.8291,2.8291,2.8291,2.8291,2.8291,2.8291,2.8291,2.8291,2.8291,2.8291,2.7132,2.6127,2.61,2.3702,2.1643,2.1614,2.04,1.9524,1.9753,1.98,2.0013,2.0625,2.0699,2.0782,2.1076,2.1109,2.1109,2.1109,2.1109,2.1109,2.1109,2.1109,2.1109,2.1109,2.1109,2.1109,2.1109,2.1109,2.1141,2.1141,2.1141,2.1141,2.1141,2.1109,2.1109,3.4265,3.4279,3.3908,3.4098,3.4552,3.4966,3.4966,3.538,3.5732,3.5533,3.5656,3.5918,3.6306,3.6405,3.6468,3.6644,3.6494,3.6468,3.662,3.6645,3.6645,3.6645,3.6645,3.6298,3.5381,3.597,3.5451,3.3143,3.3871,3.339,3.1045,3.18,3.2507,3.2955,3.2944,3.2518,3.1618,3.0721,2.9833,2.8926,2.8495,2.8291,2.8291,2.8291,2.8291,2.8291,2.8291,2.8291,2.8291,2.8291,2.8291,2.8291,2.8291,2.8291,2.8291,2.8291,2.8291,2.8291,2.8291,2.8291,2.8291,2.8291,2.8291,2.8291,2.8291,2.8291,2.8291,2.8291,2.8291,2.8291,2.8291,2.8291,2.8291,2.8291,2.8291,2.8291,2.8291,2.7141,2.5791,2.4737,2.2955,2.128,2.0285,1.987,1.9693,1.9786,2.014,2.0498,2.0686,2.0848,2.1009,2.1096,2.1109,2.1109,2.1109,2.1109,2.1109,2.1109,2.1109,2.1109,2.1109,2.1109,2.1109,2.1109,2.1109,2.1109,2.1109,2.1109,2.1109,2.1109,2.1109,2.1109,3.3601,3.3751,3.347,3.3822,3.4289,0.0,3.4439,3.4979,3.5445,3.5232,3.5544,3.5956,3.6318,3.6405,3.6405,3.6405,3.6405,3.6405,3.6405,3.6557,3.6695,3.6695,3.6264,3.5732,3.5223,3.5439,3.4727,3.2457,3.3105,3.2429,2.9686,3.0824,3.1301,3.0798,3.1276,3.1147,3.0317,2.9817,2.9128,2.8291,2.8291,2.8291,2.8291,2.8291,2.8291,2.8291,2.8291,2.8291,0.0,2.8291,2.8291,2.8291,2.8291,2.8291,2.8291,2.8291,2.8291,2.8291,2.8291,2.8291,2.8291,2.8291,2.8291,2.8291,2.8291,2.8291,2.8291,2.8291,2.8291,2.8291,2.8291,2.8291,2.8291,2.8291,2.8291,2.8147,2.7582,2.63,2.4793,2.3263,2.1784,2.0515,1.9681,1.9679,1.988,2.0094,2.0472,2.0746,2.0822,2.0995,2.1109,2.1109,2.1109,2.1109,2.1109,2.1109,2.1109,2.1109,2.1109,2.1109,2.1109,2.1109,2.1109,2.1109,2.1109,2.1109,2.1109,2.1109,2.1109,2.1109,2.1109,2.1109,0.0,3.3467,3.3847,3.3847,3.4261,3.449,3.3972,3.4678,0.0,3.4803,3.5529,3.6281,3.6318,3.6293,3.6281,3.6318,3.6331,3.6344,3.6405,3.6833,3.7148,3.7148,3.6039,3.5514,3.6051,3.5066,3.3748,3.214,3.2104,3.1019,2.8441,2.9487,2.9581,2.8344,2.9503,3.0162,3.0162,2.8926,2.8291,2.8291,2.8291,2.8291,2.8291,2.8291,2.8291,2.8291,2.8291,2.8291,2.8291,2.8291,2.8291,2.8291,2.8291,2.8291,2.8291,2.8291,2.8291,2.8291,2.8291,2.8291,2.8291,2.8291,2.8291,2.8291,2.8291,2.8291,2.8291,2.8291,2.8291,2.8291,2.8291,2.8291,2.8291,2.8291,2.8291,2.7897,2.6409,2.4875,2.3347,2.189,2.0414,1.9515,1.9753,1.9833,2.0047,2.0625,2.0726,2.0808,2.1076,2.1109,2.1109,2.1109,2.1109,2.1109,2.1109,2.1109,2.1109,2.1109,2.1109,2.1109,2.1109,2.1109,2.1109,2.1109,2.1109,2.1109,2.1109,2.1109,2.1109,2.1109,2.1109,2.1109,3.2788,0.0,3.3291,3.3291,3.3684,3.3947,0.0,0.0,0.0,0.0,0.0,3.5205,3.5644,3.5368,3.5217,3.5644,3.5707,3.5881,3.6331,3.6494,3.6582,3.6582,3.6319,3.5356,3.3453,3.3933,3.2967,2.9513,3.0188,3.0042,2.8398,2.8601,2.8618,2.8318,2.8601,2.8777,2.8777,2.8468,2.8291,2.8291,2.8291,2.8291,2.8291,2.8291,2.8291,2.8291,2.8291,2.8291,2.8291,2.8291,2.8291,2.8291,2.8291,2.8291,2.8291,2.8291,2.8291,2.8291,2.8291,2.8291,2.8291,2.8291,2.8291,2.8291,2.8291,2.8291,2.8291,2.8291,2.8291,2.8291,2.8291,2.8291,2.8291,2.8291,2.8291,2.7897,2.6409,2.4875,2.3347,2.189,2.0583,1.972,1.9786,2.0174,2.0545,2.0686,2.0862,2.1036,2.1102,2.1109,2.1109,2.1109,2.1109,2.1109,2.1109,2.1109,2.1109,2.1109,2.1109,2.1109,2.1109,2.1109,2.1109,2.1109,2.1109,2.1109,2.1109,2.1109,2.1109,2.1109,2.1109,2.1109,3.2441,3.2901,3.3102,3.3102,3.3329,3.3508,3.3492,0.0,0.0,0.0,0.0,3.4791,3.5092,3.5117,3.5157,3.5445,3.5732,3.6031,3.6344,3.6405,3.6156,3.5571,3.4909,3.3934,3.2431,3.2418,3.1593,2.9381,2.9885,2.9713,2.8371,2.8291,2.8291,2.8291,2.8291,2.8291,2.8291,2.8291,2.8291,2.8291,2.8291,2.8291,2.8291,2.8291,2.8291,2.8291,2.8291,2.8291,2.8291,2.8291,2.8291,2.8291,2.8291,2.8291,2.8291,2.8291,2.8291,2.8291,2.8291,2.8291,2.8291,2.8291,2.8291,2.8291,2.8291,2.8291,2.8291,2.8291,2.8291,2.8291,2.8291,2.8291,2.8291,2.8291,2.8291,2.7699,2.5517,2.4378,2.3199,2.1169,2.0261,1.9887,2.0154,2.0498,2.0753,2.0855,2.1009,2.1109,2.1109,2.1109,2.1109,2.1109,2.1109,2.1109,2.1109,2.1109,2.1109,2.1109,2.1109,2.1109,2.1109,2.1109,2.1109,2.1109,2.1109,2.1109,2.1109,2.1109,2.1109,2.1109,2.1109,2.1109,3.2039,3.2641,3.3102,3.3102,3.3102,3.3228,3.3671,0.0,0.0,0.0,0.0,3.4603,3.4678,3.4941,3.5207,3.5458,3.5829,3.6085,3.6085,3.5906,3.5355,3.4227,3.303,3.2205,3.2003,3.0968,3.0214,3.0016,2.999,2.9513,2.8371,2.8291,2.8291,2.8291,2.8291,2.8291,2.8291,2.8291,2.8291,2.8291,2.8291,2.8291,2.8291,2.8291,2.8291,2.8291,2.8291,2.8291,2.8291,2.8291,2.8291,2.8291,2.8291,2.8291,2.8291,2.8291,2.8291,2.8291,2.8291,2.8291,2.8291,2.8291,2.8291,2.8291,2.8291,2.8291,2.8291,2.8291,2.8291,2.8291,2.8291,2.8291,2.8291,2.8291,2.8121,2.7195,2.4405,2.3676,2.279,2.0294,1.9873,2.0094,2.0625,2.0746,2.0822,2.1076,2.1109,2.1109,2.1109,2.1109,2.1109,2.1109,2.1109,2.1109,2.1109,2.1109,2.1109,2.1109,2.1109,2.1109,2.1109,2.1109,2.1109,2.1109,2.1109,2.1109,2.1109,2.1109,2.1109,2.1109,2.1109,2.1109,3.1918,3.2641,3.3102,3.3102,3.3102,3.3128,3.3203,0.0,0.0,0.0,0.0,3.4173,3.4615,3.4035,3.3909,3.527,3.5049,3.4702,3.4702,3.3675,3.2858,3.2644,3.2431,3.1851,3.0721,3.0421,2.9833,2.8698,2.8601,2.8521,2.8318,2.8291,2.8291,2.8291,2.8291,2.8291,2.8291,2.8291,2.8291,2.8291,2.8291,2.8291,2.8291,2.8291,2.8291,2.8291,2.8291,2.8291,2.8291,2.8291,2.8291,2.8291,2.8291,2.8291,2.8291,2.8291,2.8291,2.8291,2.8291,2.8291,2.8291,2.8291,2.8291,2.8291,2.8291,2.8291,2.8291,2.8291,2.8291,2.8291,2.8291,2.8291,2.8291,2.8291,2.7357,2.5964,2.4183,2.2987,2.1787,2.0135,2.0201,2.0599,2.0692,2.0882,2.1056,2.1102,2.1109,2.1109,2.1109,2.1109,2.1109,2.1109,2.1109,2.1109,2.1109,2.1109,2.1109,2.1109,2.1109,2.1109,2.1109,2.1109,2.1109,2.1109,2.1109,2.1109,2.1109,2.1109,2.1109,2.1109,2.1109,2.1109,3.119,3.1964,3.2692,3.3027,3.3542,3.4048,3.4327,0.0,0.0,0.0,3.411,3.3972,3.4223,3.3516,3.3071,3.3683,3.411,3.4129,3.3365,3.2719,3.2028,3.1301,3.1224,3.0695,2.9355,2.9234,2.8953,2.8344,2.8291,2.8291,2.8291,2.8291,2.8291,2.8291,2.8291,2.8291,2.8291,2.8291,2.8291,2.8291,2.8291,2.8291,2.8291,2.8291,2.8291,2.8291,2.8291,2.8291,2.8291,2.8291,2.8291,2.8291,2.8291,2.8291,2.8291,2.8291,2.8291,2.8291,2.8291,2.8291,2.8291,2.8291,2.8291,2.8291,2.8291,2.8291,2.8291,2.8291,2.8291,2.8291,2.8291,2.8291,2.8094,2.7303,2.6581,2.5487,2.3307,2.2385,2.1657,2.0503,2.0518,2.0759,2.0882,2.1022,2.1109,2.1109,2.1109,2.1109,2.1109,2.1109,2.1109,2.1109,2.1109,2.1109,2.1109,2.1109,2.1109,2.1109,2.1109,2.1109,2.1109,2.1109,2.1109,2.1109,2.1109,2.1109,2.1109,2.1109,2.1109,2.1109,2.1109,2.1109,3.0563,3.1378,3.2353,3.2952,3.3709,3.449,3.5157,3.4904,3.454,3.4678,3.4364,3.4085,3.4085,3.3433,3.2782,3.2463,3.2969,3.3055,3.1988,3.1556,3.0968,2.9964,2.9833,2.9434,2.8398,2.8291,2.8291,2.8291,2.8291,2.8291,2.8291,2.8291,2.8291,2.8291,2.8291,2.8291,2.8291,2.8291,2.8291,2.8291,2.8291,2.8291,2.8291,2.8291,2.8291,2.8291,2.8291,2.8291,2.8291,2.8291,2.8291,2.8291,2.8291,2.8291,2.8291,2.8291,2.8291,2.8291,2.8291,2.8291,2.8291,2.8291,2.8291,2.8291,2.8291,2.8291,2.8291,2.8291,2.8291,2.8291,2.8291,2.8291,2.7924,2.6463,2.5818,2.4923,2.2509,2.1781,2.1402,2.0808,2.0759,2.0848,2.1069,2.1109,2.1109,2.1109,2.1109,2.1109,2.1109,2.1109,2.1109,2.1109,2.1109,2.1109,2.1109,2.1109,2.1109,2.1109,2.1109,2.1109,2.1109,2.1109,2.1109,2.1109,2.1109,2.1109,2.1109,2.1109,2.1109,2.1109,2.1109,2.1109,3.045,3.1378,3.2353,3.2952,3.3153,3.3492,3.4515,3.4327,3.411,3.459,3.4665,3.464,3.464,3.3993,3.3256,3.2759,3.1489,3.0566,3.0473,2.9381,2.8548,2.8468,2.8441,2.8398,2.8318,2.8291,2.8291,2.8291,2.8291,2.8291,2.8291,2.8291,2.8291,2.8291,2.8291,2.8291,2.8291,2.8291,2.8291,2.8291,2.8291,2.8291,2.8291,2.8291,2.8291,2.8291,2.8291,2.8291,2.8291,2.8291,2.8291,2.8291,2.8291,2.8291,2.8291,2.8291,2.8291,2.8291,2.8291,2.8291,2.8291,2.8291,2.8291,2.8291,2.8291,2.8291,2.8291,2.8291,2.8291,2.8291,2.8291,2.8291,2.7924,2.6463,2.5013,2.3613,2.2279,2.1129,2.0416,2.0646,2.0895,2.1082,2.1109,2.1109,2.1109,2.1109,2.1109,2.1109,2.1109,2.1109,2.1109,2.1109,2.1109,2.1109,2.1109,2.1109,2.1109,2.1109,2.1109,2.1109,2.1109,2.1109,2.1109,2.1109,2.1109,2.1109,2.1109,2.1109,2.1109,2.1109,2.1109,2.1109,3.045,3.1378,3.2353,3.2952,3.3354,3.3872,3.4966,3.5031,3.4866,3.4728,3.4979,3.484,3.3676,3.3791,3.3329,3.1082,3.0473,3.0016,2.9181,2.8628,2.8291,2.8291,2.8291,2.8291,2.8291,2.8291,2.8291,2.8291,2.8291,2.8291,2.8291,2.8291,2.8291,2.8291,2.8291,2.8291,2.8291,2.8291,2.8291,2.8291,2.8291,2.8291,2.8291,2.8291,2.8291,2.8291,2.8291,2.8291,2.8291,2.8291,2.8291,2.8291,2.8291,2.8291,2.8291,2.8291,2.8291,2.8291,2.8291,2.8291,2.8291,2.8291,2.8291,2.8291,2.8291,2.8291,2.8291,2.8291,2.7645,2.7141,2.8067,2.7618,2.6545,2.5041,2.365,2.2342,2.1152,2.0675,2.0595,2.0889,2.1036,2.1109,2.1109,2.1109,2.1109,2.1109,2.1109,2.1109,2.1109,2.1109,2.1109,2.1109,2.1109,2.1109,2.1109,2.1109,2.1109,2.1109,2.1109,2.1109,2.1109,2.1109,2.1109,2.1109,2.1109,2.1109,2.1109,2.1109,2.1109,2.1109,2.1109,2.1109,3.0758,3.1524,3.239,3.3156,3.3504,3.3972,3.5207,3.537,3.5255,3.524,3.538,3.4988,3.3278,3.3241,3.2602,2.9931,2.9585,2.9355,2.8424,2.8291,2.8291,2.8291,2.8291,2.8291,2.8291,2.8291,2.8291,2.8291,2.8291,2.8291,2.8291,2.8291,2.8291,2.8291,2.8291,2.8291,2.8291,2.8291,2.8291,2.8291,2.8291,2.8291,2.8291,2.8291,2.8291,2.8291,2.8291,2.8291,2.8291,2.8291,2.8291,2.8291,2.8291,2.8291,2.8291,2.8291,2.8291,2.8291,2.8291,2.8291,2.8228,2.7762,2.7618,2.7501,2.7033,2.6888,2.6888,2.6888,2.6164,2.5599,2.6608,2.6136,2.5012,2.3569,2.259,2.1701,2.0608,2.0535,2.0793,2.1049,2.1109,2.1109,2.1109,2.1109,2.1109,2.1109,2.1109,2.1109,2.1109,2.1109,2.1109,2.1109,2.1109,2.1109,2.1109,2.1109,2.1109,2.1109,2.1109,2.1109,2.1109,2.1109,2.1109,2.1109,2.1109,2.1109,2.1109,2.1109,2.1109,2.1109,2.1109,2.1162,3.1386,3.1788,3.247,3.3608,3.3495,3.3533,3.5132,3.5082,3.5039,3.6155,3.5895,3.5076,3.372,3.2397,3.1045,2.9726,2.881,2.8291,2.8291,2.8291,2.8291,2.8291,2.8291,2.8291,2.8291,2.8291,2.8291,2.8291,2.8291,2.8291,2.8291,2.8291,2.8291,2.8291,2.8291,2.8291,2.8291,2.8291,2.8291,2.8291,2.8291,2.8291,2.8291,2.8291,2.8291,2.8291,2.8291,2.8291,2.8291,2.8291,2.8291,2.8291,2.8291,2.8291,2.8291,2.8291,2.8291,2.8291,2.8291,2.8291,2.804,2.6572,2.61,2.5791,2.4267,2.3794,2.3794,2.3794,2.3794,2.3766,2.3766,2.3766,2.3464,2.2271,2.1984,2.1766,2.0879,2.0712,2.0768,2.1056,2.1109,2.1109,2.1109,2.1109,2.1109,2.1109,2.1109,2.1109,2.1109,2.1109,2.1109,2.1109,2.1109,2.1109,2.1109,2.1109,2.1109,2.1109,2.1109,2.1109,2.1109,2.1109,2.1109,2.1109,2.1109,2.1109,2.1109,2.1109,2.1109,2.1109,2.1109,2.1269,3.0733,3.1813,3.2905,3.3253,3.4073,3.4916,3.5382,3.537,3.5214,3.5029,3.4522,3.3696,3.2337,3.1309,3.0402,2.9637,2.881,2.8291,2.8291,2.8291,2.8291,2.8291,2.8291,2.8291,2.8291,2.8291,2.8291,2.8291,2.8291,2.8291,2.8291,2.8291,2.8291,2.8291,2.8291,2.8291,2.8291,2.8291,2.8291,2.8291,2.8291,2.8291,2.8291,2.8291,2.8291,2.8291,2.8291,2.8291,2.8291,2.8291,2.8291,2.8291,2.8291,2.8291,2.8291,2.8291,2.8291,2.8291,2.8291,2.7618,2.6689,2.6236,2.538,2.4405,2.3933,2.3794,2.3794,2.3794,2.3039,2.2251,2.2251,2.1622,2.1169,2.1846,2.1354,2.0731,2.0711,2.0835,2.1002,2.1089,2.1109,2.1109,2.1109,2.1109,2.1109,2.1109,2.1109,2.1109,2.1109,2.1109,2.1109,2.1109,2.1109,2.1109,2.1109,2.1109,2.1109,2.1109,2.1109,2.1109,2.1109,2.1109,2.1109,2.1109,2.1109,2.1109,2.1109,2.1109,2.1109,2.1116,2.1355,2.1502,3.165,3.2491,3.3303,3.4183,3.4801,3.5167,3.5088,3.5068,3.4785,3.3776,3.3283,3.261,3.127,3.0632,3.0026,2.9146,2.8635,2.8291,2.8291,2.8291,2.8291,2.8291,2.8291,2.8291,2.8291,2.8291,2.8291,2.8291,2.8291,2.8291,2.8291,2.8291,2.8291,2.8291,2.8291,2.8291,2.8291,2.8291,2.8291,2.8291,2.8291,2.8291,2.8291,2.8291,2.8291,2.8291,2.8291,2.8291,2.8291,2.8291,2.8291,2.8291,2.8291,2.8291,2.8291,2.8291,2.8291,2.8211,2.7645,2.6825,2.59,2.4701,2.3674,2.2814,2.2238,2.2047,2.2047,2.2047,2.1401,2.073,2.073,2.0254,2.0057,2.1058,2.0831,2.0488,2.0782,2.0989,2.1109,2.1109,2.1109,2.1109,2.1109,2.1109,2.1109,2.1109,2.1109,2.1109,2.1109,2.1109,2.1109,2.1109,2.1109,2.1109,2.1109,2.1109,2.1109,2.1109,2.1109,2.1109,2.1109,2.1109,2.1109,2.1109,2.1109,2.1109,2.1109,2.1109,2.1169,2.1289,2.1502,2.1709,3.3257,3.338,3.3586,3.5705,3.546,3.4564,3.4135,3.403,3.3674,3.2381,3.2104,3.1698,3.0369,3.012,2.9713,2.8495,2.8291,2.8291,2.8291,2.8291,2.8291,2.8291,2.8291,2.8291,2.8291,2.8291,2.8291,2.8291,2.8291,2.8291,2.8291,2.8291,2.8291,2.8291,2.8291,2.8291,2.8291,2.8291,2.8291,2.8291,2.8291,2.8291,2.8291,2.8291,2.8291,2.8291,2.8291,2.8291,2.8291,2.8291,2.8291,2.8291,2.8291,2.8211,2.8094,2.8094,2.8014,2.7699,2.6354,2.5791,2.5233,2.2505,2.15,2.1145,1.9815,1.9395,1.9395,1.9395,1.9395,1.9401,1.9428,1.9655,1.9913,2.0177,2.0481,2.0755,2.1049,2.1109,2.1109,2.1109,2.1109,2.1109,2.1109,2.1109,2.1109,2.1109,2.1109,2.1109,2.1109,2.1109,2.1109,2.1109,2.1109,2.1109,2.1109,2.1109,2.1109,2.1109,2.1109,2.1109,2.1109,2.1109,2.1109,2.1109,2.1109,2.1109,2.1109,2.1136,2.1289,2.1582,2.1642,2.1943,3.1838,3.2354,3.3143,3.4688,3.4749,3.3894,3.1691,3.1184,3.1107,3.0798,3.0721,3.0317,2.8979,2.8724,2.8644,2.8344,2.8291,2.8291,2.8291,2.8291,2.8291,2.8291,2.8291,2.8291,2.8291,2.8291,2.8291,2.8291,2.8291,2.8291,2.8291,2.8291,2.8291,2.8291,2.8291,2.8291,2.8291,2.8291,2.8291,2.8291,2.8291,2.8291,2.8291,2.8291,2.8291,2.8291,2.8291,2.8291,2.8291,2.8291,2.8291,2.8291,2.8291,2.7582,2.6572,2.6572,2.58,2.4718,2.4405,2.3543,2.2448,2.1805,2.0809,1.9809,1.9511,1.9395,1.9395,1.9395,1.9395,1.9448,1.9646,1.992,2.0184,2.0508,2.0659,2.0755,2.1049,2.1109,2.1109,2.1109,2.1109,2.1109,2.1109,2.1109,2.1109,2.1109,2.1109,2.1109,2.1109,2.1109,2.1109,2.1109,2.1109,2.1109,2.1109,2.1109,2.1109,2.1109,2.1109,2.1109,2.1109,2.1109,2.1109,2.1109,2.1109,2.1109,2.1109,2.1375,2.1522,2.1596,2.2024,2.2298,3.1451,3.1757,3.2154,3.3256,3.3485,3.2844,3.0773,2.9817,2.9329,2.9329,2.9329,2.9128,2.8424,2.8291,2.8291,2.8291,2.8291,2.8291,2.8291,2.8291,2.8291,2.8291,2.8291,2.8291,2.8291,2.8291,2.8291,2.8291,2.8291,2.8291,2.8291,2.8291,2.8291,2.8291,2.8291,2.8291,2.8291,2.8291,2.8291,2.8291,2.8291,2.8291,2.8291,2.8291,2.8291,2.8291,2.8291,2.8291,2.8291,2.8291,2.8291,2.8237,2.7528,2.6771,2.6009,2.527,2.4488,2.371,2.2983,2.223,2.1472,2.078,2.004,1.9395,1.9395,1.9395,1.9395,1.9395,1.9395,1.9461,1.9726,1.9983,2.0277,2.0608,2.0813,2.0922,2.1076,2.1109,2.1109,2.1109,2.1109,2.1109,2.1109,2.1109,2.1109,2.1109,2.1109,2.1109,2.1109,2.1109,2.1109,2.1109,2.1109,2.1109,2.1109,2.1109,2.1109,2.1109,2.1109,2.1109,2.1109,2.1109,2.1109,2.1109,2.1109,2.1182,2.1355,2.1509,2.1729,2.1977,2.2278,2.2498,3.1494,3.1723,3.1628,3.1609,3.1952,3.1876,3.0317,2.9102,2.8291,2.8291,2.8291,2.8291,2.8291,2.8291,2.8291,2.8291,2.8291,2.8291,2.8291,2.8291,2.8291,2.8291,2.8291,2.8291,2.8291,2.8291,2.8291,2.8291,2.8291,2.8291,2.8291,2.8291,2.8291,2.8291,2.8291,2.8291,2.8291,2.8291,2.8291,2.8291,2.8291,2.8291,2.8291,2.8291,2.8291,2.8291,2.8291,2.8291,2.8291,2.8291,2.8147,2.7816,2.6572,2.5791,2.5178,2.3905,2.3263,2.2878,2.1643,2.1223,2.1031,1.9815,1.9395,1.9395,1.9395,1.9395,1.9395,1.9395,1.9395,1.9475,1.9786,2.0024,2.029,2.0668,2.0935,2.1109,2.1109,2.1109,2.1109,2.1109,2.1109,2.1109,2.1109,2.1109,2.1109,2.1109,2.1109,2.1109,2.1109,2.1109,2.1109,2.1109,2.1109,2.1109,2.1109,2.1109,2.1109,2.1109,2.1109,2.1109,2.1109,2.1109,2.1136,2.1182,2.1189,2.1303,2.1582,2.1689,2.1984,2.2385,2.2472,2.2625,3.1427,3.281,3.3353,2.973,3.0566,3.1647,2.9128,2.8424,2.8291,2.8291,2.8291,2.8291,2.8291,2.8291,2.8291,2.8291,2.8291,2.8291,2.8291,2.8291,2.8291,2.8291,2.8291,2.8291,2.8291,2.8291,2.8291,2.8291,2.8291,2.8291,2.8291,2.8291,2.8291,2.8291,2.8291,2.8291,2.8291,2.8291,2.8291,2.8291,2.8291,2.8291,2.8291,2.8291,2.8291,2.8291,2.8291,2.8291,2.8291,2.8291,2.7555,2.6381,2.6182,2.4508,2.2166,2.1975,2.1088,1.9953,1.9758,1.97,1.9649,1.9453,1.9395,1.9395,1.9395,1.9395,1.9395,1.9395,1.9395,1.9522,2.0034,2.017,2.0344,2.0922,2.1082,2.1109,2.1109,2.1109,2.1109,2.1109,2.1109,2.1109,2.1109,2.1109,2.1109,2.1109,2.1109,2.1109,2.1109,2.1109,2.1109,2.1109,2.1109,2.1109,2.1109,2.1109,2.1109,2.1109,2.1109,2.1109,2.1109,2.1109,2.1229,2.1522,2.1529,2.1549,2.1582,2.2058,2.2345,2.2425,2.2686,2.286,3.0136,3.1232,3.1785,2.9011,2.9755,3.0669,2.8751,2.8291,2.8291,2.8291,2.8291,2.8291,2.8291,2.8291,2.8291,2.8291,2.8291,2.8291,2.8291,2.8291,2.8291,2.8291,2.8291,2.8291,2.8291,2.8291,2.8291,2.8291,2.8291,2.8291,2.8291,2.8291,2.8291,2.8291,2.8291,2.8291,2.8291,2.8291,2.8291,2.8291,2.8291,2.8291,2.8291,2.8291,2.8291,2.8291,2.8291,2.7843,2.7078,2.7078,2.6191,2.4737,2.3897,2.2778,2.15,2.0673,1.9953,1.9395,1.9395,1.9395,1.9395,1.9395,1.9395,1.9395,1.9395,1.9395,1.9395,1.9395,1.9515,1.9706,2.0097,2.0354,2.0588,2.1009,2.1109,2.1109,2.1109,2.1109,2.1109,2.1109,2.1109,2.1109,2.1109,2.1109,2.1109,2.1109,2.1109,2.1109,2.1109,2.1109,2.1109,2.1109,2.1109,2.1109,2.1109,2.1109,2.1109,2.1109,2.1109,2.1109,2.1109,2.1109,2.1249,2.1575,2.1582,2.1743,2.2038,2.2291,2.2505,2.2672,2.284,2.2893,2.9185,2.9782,3.013,2.8736,2.9192,2.9684,2.8552,2.8291,2.8291,2.8291,2.8291,2.8291,2.8291,2.8291,2.8291,2.8291,2.8291,2.8291,2.8291,2.8291,2.8291,2.8291,2.8291,2.8291,2.8291,2.8291,2.8291,2.8291,2.8291,2.8291,2.8291,2.8291,2.8291,2.8291,2.8291,2.8291,2.8291,2.8291,2.8291,2.8291,2.8291,2.8291,2.8291,2.8291,2.8094,2.7753,2.8147,2.7474,2.61,2.61,2.4958,2.3123,2.2032,2.1358,2.0923,1.9815,1.9395,1.9395,1.9395,1.9395,1.9395,1.9395,1.9395,1.9395,1.9395,1.9395,1.9395,1.9395,1.9579,1.9867,2.0124,2.0454,2.0779,2.1042,2.1109,2.1109,2.1109,2.1109,2.1109,2.1109,2.1109,2.1109,2.1109,2.1109,2.1109,2.1109,2.1109,2.1109,2.1109,2.1109,2.1109,2.1109,2.1109,2.1109,2.1109,2.1109,2.1109,2.1109,2.1109,2.1109,2.1109,2.1182,2.1395,2.1689,2.177,2.1984,2.2385,2.2498,2.2645,2.2893,2.2893,2.2893,2.9291,2.9605,2.9669,2.8872,2.8867,2.8931,2.8414,2.8291,2.8291,2.8291,2.8291,2.8291,2.8291,2.8291,2.8291,2.8291,2.8291,2.8291,2.8291,2.8291,2.8291,2.8291,2.8291,2.8291,2.8291,2.8291,2.8291,2.8291,2.8291,2.8291,2.8291,2.8291,2.8291,2.8291,2.8291,2.8291,2.8291,2.8291,2.8291,2.8291,2.8291,2.8291,2.8291,2.8291,2.7538,2.6291,2.7699,2.7474,2.61,2.61,2.4369,2.172,2.1643,2.0759,1.9511,1.9424,1.9395,1.9395,1.9395,1.9395,1.9395,1.9395,1.9395,1.9395,1.9395,1.9395,1.9395,1.9395,1.9579,1.9867,2.0124,2.0454,2.0779,2.1042,2.1109,2.1109,2.1109,2.1109,2.1109,2.1109,2.1109,2.1109,2.1109,2.1109,2.1109,2.1109,2.1109,2.1109,2.1109,2.1109,2.1109,2.1109,2.1109,2.1109,2.1109,2.1109,2.1109,2.1109,2.1109,2.1109,2.1109,2.1415,2.1703,2.1957,2.2231,2.2358,2.2385,2.2706,2.288,2.2893,2.2893,2.2893,2.9398,2.8932,2.8352,2.7949,2.7797,2.7672,2.7496,2.79,2.8291,2.8291,2.8291,2.8291,2.8291,2.8291,2.8291,2.8291,2.8291,2.8291,2.8291,2.8291,2.8291,2.8291,2.8291,2.8291,2.8291,2.8291,2.8291,2.8291,2.8291,2.8291,2.8291,2.8291,2.8291,2.8291,2.8291,2.8291,2.8291,2.8291,2.8291,2.8291,2.8291,2.8291,2.8291,2.8291,2.7501,2.6127,2.6662,2.5489,2.3199,2.3199,2.2011,2.0206,2.0206,1.9873,1.9395,1.9395,1.9395,1.9395,1.9395,1.9395,1.9395,1.9395,1.9395,1.9395,1.9395,1.9395,1.9395,1.9395,1.9713,2.007,2.0177,2.0595,2.0982,2.1082,2.1109,2.1109,2.1109,2.1109,2.1109,2.1109,2.1109,2.1109,2.1109,2.1109,2.1109,2.1109,2.1109,2.1109,2.1109,2.1109,2.1109,2.1109,2.1109,2.1109,2.1109,2.1109,2.1109,2.1109,2.1109,2.1196,2.1422,2.1529,2.181,2.2251,2.2365,2.2512,2.2706,2.2847,2.2893,2.2893,2.2893,2.2893,2.9476,0.0,2.7553,2.752,2.7105,2.675,2.6951,2.7461,2.7949,2.8232,2.8291,2.8291,2.8291,2.8291,2.8291,2.8291,2.8291,2.8291,2.8291,2.8291,2.8291,2.8291,2.8291,2.8291,2.8291,2.8291,2.8291,2.8291,2.8291,2.8291,2.8291,2.8291,2.8291,2.8291,2.8291,2.8291,2.8291,2.8291,2.8291,2.8291,2.8291,2.8291,2.8291,2.778,2.6744,2.5288,2.4793,2.3451,2.1614,2.1614,2.0723,1.9395,1.9395,1.9395,1.9395,1.9395,1.9395,1.9395,1.9395,1.9395,1.9395,1.9395,1.9395,1.9395,1.9395,1.9395,1.9421,1.9515,1.986,2.0224,2.0354,2.0742,2.1109,2.1109,2.1109,2.1109,2.1109,2.1109,2.1109,2.1109,2.1109,2.1109,2.1109,2.1109,2.1109,2.1109,2.1109,2.1109,2.1109,2.1109,2.1109,2.1109,2.1109,2.1109,2.1109,2.1109,2.1109,2.1109,2.1109,2.1243,2.1575,2.1683,2.1924,2.2371,2.2519,2.2665,2.2893,2.2893,2.2893,2.2893,2.2893,2.2893,0.0,0.0,0.0,2.7587,2.6875,2.6241,2.6774,2.6947,2.7256,2.8086,2.8271,2.8291,2.8291,2.8291,2.8291,2.8291,2.8291,2.8291,2.8291,2.8291,2.8291,2.8291,2.8291,2.8291,2.8291,2.8291,2.8291,2.8291,2.8291,2.8291,2.8291,2.8291,2.8291,2.8291,2.8291,2.8291,2.8291,2.8291,2.8291,2.8291,2.8291,2.8291,2.8264,2.6771,2.5261,2.371,2.223,2.1586,2.1529,2.1529,2.0702,1.9395,1.9395,1.9395,1.9395,1.9395,1.9395,1.9395,1.9395,1.9395,1.9395,1.9395,1.9395,1.9395,1.9395,1.9395,1.9461,1.972,1.9977,2.027,2.0608,2.0895,2.1109,2.1109,2.1109,2.1109,2.1109,2.1109,2.1109,2.1109,2.1109,2.1109,2.1109,2.1109,2.1109,2.1109,2.1109,2.1109,2.1109,2.1109,2.1109,2.1109,2.1109,2.1109,2.1109,2.1109,2.1109,2.1109,2.1116,2.1256,2.1582,2.1877,2.2131,2.2425,2.2712,2.2893,2.2893,2.2893,2.2893,2.2893,2.2893,2.2893,2.8957,0.0,0.0,0.0,0.0,0.0,2.4908,2.5889,2.7054,2.7314,2.7861,2.8291,2.8291,2.8291,2.8291,2.8291,2.8291,2.8291,2.8291,2.8291,2.8291,2.8291,2.8291,2.8291,2.8291,2.8291,2.8291,2.8291,2.8291,2.8291,2.8291,2.8291,2.8291,2.8291,2.8291,2.8291,2.8291,2.8291,2.8291,2.8291,2.8291,2.8291,2.8264,2.6762,2.526,2.371,2.223,2.1002,2.0011,2.0011,1.9758,1.9395,1.9395,1.9395,1.9395,1.9395,1.9395,1.9395,1.9395,1.9395,1.9395,1.9395,1.9395,1.9395,1.9395,1.9395,1.9461,1.972,1.9977,2.0317,2.0855,2.1049,2.1109,2.1109,2.1109,2.1109,2.1109,2.1109,2.1109,2.1109,2.1109,2.1109,2.1109,2.1109,2.1109,2.1109,2.1109,2.1109,2.1109,2.1109,2.1109,2.1109,2.1109,2.1109,2.1109,2.1109,2.1109,2.1109,2.1341,2.1596,2.1883,2.2144,2.2438,2.2766,2.2853,2.2893,2.2893,2.2893,2.2893,2.2893,2.2893,2.2893,0.0,0.0,0.0,0.0,0.0,0.0,2.4736,2.5552,2.6654,2.7402,2.7949,2.8291,2.8291,2.8291,2.8291,2.8291,2.8291,2.8291,2.8291,2.8291,2.8291,2.8291,2.8291,2.8291,2.8291,2.8291,2.8291,2.8291,2.8291,2.8291,2.8291,2.8291,2.8291,2.8291,2.8291,2.8291,2.8291,2.8291,2.8291,2.8291,2.8291,2.8291,2.8237,2.6118,2.4644,2.3682,2.1593,2.0199,1.9395,1.9395,1.9395,1.9395,1.9395,1.9395,1.9395,1.9395,1.9395,1.9395,1.9395,1.9395,1.9395,1.9395,1.9395,1.9395,1.9395,1.9395,1.9481,1.9867,2.025,2.065,2.1022,2.1109,2.1109,2.1109,2.1109,2.1109,2.1109,2.1109,2.1109,2.1109,2.1109,2.1109,2.1109,2.1109,2.1109,2.1109,2.1109,2.1109,2.1109,2.1109,2.1109,2.1109,2.1109,2.1109,2.1109,2.1109,2.1109,2.1109,2.1422,2.1716,2.1977,2.2265,2.2559,2.2887,2.2893,2.2893,2.2893,2.2893,2.2893,2.2893,2.2893,2.2893,0.0,0.0,0.0,0.0,2.5702,0.0,2.522,2.5396,2.5913,2.7422,2.7793,2.7861,2.7861,2.7861,2.7861,2.7861,2.7988,2.8135,2.8271,2.8291,2.8291,2.8291,2.8291,2.8291,2.8291,2.8291,2.8291,2.8291,2.8291,2.8291,2.8291,2.8291,2.8291,2.8291,2.8291,2.8291,2.8291,2.8291,2.8291,2.8291,2.8291,2.8291,2.8211,2.5187,2.3794,2.3627,2.068,1.9395,1.9395,1.9395,1.9395,1.9395,1.9395,1.9395,1.9395,1.9395,1.9395,1.9395,1.9395,1.9395,1.9395,1.9395,1.9395,1.9395,1.9395,1.9395,1.9522,2.0037,2.0624,2.1109,2.1109,2.1109,2.1109,2.1109,2.1109,2.1109,2.1109,2.1109,2.1109,2.1109,2.1109,2.1109,2.1109,2.1109,2.1109,2.1109,2.1109,2.1109,2.1109,2.1109,2.1109,2.1109,2.1109,2.1109,2.1109,2.1109,2.1122,2.1156,2.1468,2.1763,2.2024,2.2311,2.2592,2.2893,2.2893,2.2893,2.2893,2.2893,2.2893,2.2893,2.2893,2.2893,0.0,0.0,0.0,0.0,0.0,0.0,2.3187,2.3428,2.417,2.4183,2.4697,2.5152,2.5152,2.5152,2.5152,2.5152,2.6064,2.7119,2.8144,2.8291,2.8291,2.8291,2.8291,2.8291,2.8291,2.8291,2.8291,2.8291,2.8291,2.8291,2.8291,2.8291,2.8291,2.8291,2.8291,2.8291,2.8291,2.8291,2.8291,2.8291,2.8291,2.8291,2.8211,2.5187,2.3794,2.3627,2.068,1.9395,1.9395,1.9395,1.9395,1.9395,1.9395,1.9395,1.9395,1.9395,1.9395,1.9395,1.9395,1.9395,1.9395,1.9395,1.9395,1.9395,1.9395,1.9395,1.9522,2.0037,2.0624,2.1109,2.1109,2.1109,2.1109,2.1109,2.1109,2.1109,2.1109,2.1109,2.1109,2.1109,2.1109,2.1109,2.1109,2.1109,2.1109,2.1109,2.1109,2.1109,2.1109,2.1109,2.1109,2.1109,2.1109,2.1109,2.1109,2.1109,2.1216,2.1482,2.177,2.2031,2.2318,2.2619,2.284,2.2893,2.2893,2.2893,2.2893,2.2893,2.2893,2.2893,2.2893,2.2893,0.0,0.0,0.0,2.7138,0.0,0.0,0.0,2.3569,2.3557,2.3772,2.4121,2.4391,2.4391,2.4391,2.4391,2.4391,2.5527,2.6387,2.6357,2.748,2.8291,2.8291,2.8291,2.8291,2.8291,2.8291,2.8291,2.8291,2.8291,2.8291,2.8291,2.8291,2.8291,2.8291,2.8291,2.8291,2.8291,2.8291,2.8291,2.8291,2.7555,2.7195,2.7114,2.4072,2.2702,2.2597,2.0371,1.9395,1.9395,1.9395,1.9395,1.9395,1.9395,1.9395,1.9395,1.9395,1.9395,1.9395,1.9395,1.9395,1.9395,1.9395,1.9395,1.9395,1.9395,1.9602,1.986,2.0117,2.0624,2.1109,2.1109,2.1109,2.1109,2.1109,2.1109,2.1109,2.1109,2.1109,2.1109,2.1109,2.1109,2.1109,2.1109,2.1109,2.1109,2.1109,2.1109,2.1109,2.1109,2.1109,2.1109,2.1109,2.1109,2.1109,2.1109,2.1109,2.1236,2.1569,2.1856,2.2118,2.2371,2.2706,2.2893,2.2893,2.2893,2.2893,2.2893,2.2893,2.2893,2.2893,2.2893,2.2893,0.0,0.0,0.0,0.0,0.0,2.4157,0.0,0.0,0.0,2.3555,2.3613,2.3552,2.3662,2.3581,2.3552,2.364,2.4775,2.5273,2.4199,2.6064,2.7519,2.7432,2.7939,2.8164,2.7832,2.7871,2.8027,2.8271,2.8066,2.8037,2.8281,2.8291,2.8291,2.8291,2.8291,2.8291,2.8291,2.8291,2.8147,2.787,2.6662,2.5927,2.5572,2.2834,2.1614,2.1529,2.0033,1.9395,1.9395,1.9395,1.9395,1.9395,1.9395,1.9395,1.9395,1.9395,1.9395,1.9395,1.9395,1.9395,1.9395,1.9395,1.9395,1.9395,1.9395,1.9773,2.0204,2.0204,2.0624,2.1109,2.1109,2.1109,2.1109,2.1109,2.1109,2.1109,2.1109,2.1109,2.1109,2.1109,2.1109,2.1109,2.1109,2.1109,2.1109,2.1109,2.1109,2.1109,2.1109,2.1109,2.1109,2.1109,2.1109,2.1109,2.1109,2.1162,2.1316,2.1649,2.1943,2.2198,2.2492,2.2766,2.2893,2.2893,2.2893,2.2893,2.2893,2.2893,2.2893,2.2893,2.2893,2.2893,0.0,0.0,0.0,0.0,2.4467,0.0,2.1969,0.0,2.1347,2.1084,0.0,2.0547,2.0947,0.0,0.0,2.0957,2.212,2.29,2.2754,2.3932,2.4717,2.4346,2.666,2.7695,2.6147,2.6377,2.707,2.8203,2.7246,2.71,2.8232,2.8291,2.8291,2.8291,2.8291,2.8291,2.8291,2.8291,2.7645,2.6354,2.6182,2.5371,2.4017,2.2343,2.1614,2.1529,2.0033,1.9395,1.9395,1.9395,1.9395,1.9395,1.9395,1.9395,1.9395,1.9395,1.9395,1.9395,1.9395,1.9395,1.9395,1.9395,1.9395,1.9395,1.9395,1.9773,2.0204,2.0204,2.0624,2.1109,2.1109,2.1109,2.1109,2.1109,2.1109,2.1109,2.1109,2.1109,2.1109,2.1109,2.1109,2.1109,2.1109,2.1109,2.1109,2.1109,2.1109,2.1109,2.1109,2.1109,2.1109,2.1109,2.1109,2.1109,2.1109,2.1381,2.1662,2.195,2.2211,2.2498,2.2833,2.288,2.2893,2.2893,2.2893,2.2893,2.2893,2.2893,2.2893,2.2893,2.2893,2.2893,0.0,0.0,0.0,0.0,0.0,0.0,2.2498,0.0,2.0791,2.0625,0.0,0.0,0.0,0.0,0.0,0.0,2.1289,2.1797,2.0781,2.2371,2.3679,2.3779,2.4912,2.5693,2.5708,2.6807,2.7715,2.8252,2.7793,2.7725,2.8262,2.8291,2.8291,2.8291,2.8291,2.7897,2.7024,2.7024,2.6273,2.4765,2.3897,2.3143,2.2476,2.1009,2.0314,2.0285,1.9678,1.9395,1.9395,1.9395,1.9395,1.9395,1.9395,1.9395,1.9395,1.9395,1.9395,1.9395,1.9395,1.9395,1.9395,1.9395,1.9395,1.9395,1.9395,1.9773,2.0204,2.0204,2.0624,2.1109,2.1109,2.1109,2.1109,2.1109,2.1109,2.1109,2.1109,2.1109,2.1109,2.1109,2.1109,2.1109,2.1109,2.1109,2.1109,2.1109,2.1109,2.1109,2.1109,2.1109,2.1109,2.1109,2.1109,2.1109,2.1109,2.1415,2.1709,2.1964,2.2418,2.2766,2.2893,2.2893,2.2893,2.2893,2.2893,2.2893,2.2893,2.2893,2.2893,2.2893,2.2893,2.2893,2.859,0.0,0.0,0.0,2.489,2.3708,2.2529,2.1396,2.0605,2.0605,2.0507,0.0,0.0,0.0,2.0165,0.0,0.0,2.0752,1.9481,2.0879,2.2137,2.2353,2.2695,2.3516,2.5035,2.6328,2.7207,2.7568,2.7705,2.792,2.8271,2.8291,2.8291,2.8291,2.8291,2.7582,2.6127,2.61,2.5123,2.3179,2.2117,2.1394,2.0952,1.9895,1.9395,1.9395,1.9395,1.9395,1.9395,1.9395,1.9395,1.9395,1.9395,1.9395,1.9395,1.9395,1.9395,1.9395,1.9395,1.9395,1.9395,1.9395,1.9395,1.9395,1.9395,1.9773,2.0204,2.0204,2.0624,2.1109,2.1109,2.1109,2.1109,2.1109,2.1109,2.1109,2.1109,2.1109,2.1109,2.1109,2.1109,2.1109,2.1109,2.1109,2.1109,2.1109,2.1109,2.1109,2.1109,2.1109,2.1109,2.1109,2.1109,2.1142,2.1223,2.1535,2.1863,2.2231,2.2659,2.2893,2.2893,2.2893,2.2893,2.2893,2.2893,2.2893,2.2893,2.2893,2.2893,2.2893,2.2893,2.2893,2.8261,2.7075,2.5954,2.4082,2.2841,2.1826,2.0896,2.0634,2.0605,2.0605,2.0244,2.0059,2.0527,1.9902,1.9453,0.0,0.0,0.0,0.0,1.9374,1.9258,1.8812,1.9912,2.1524,2.3665,2.3896,2.4463,2.5698,2.6211,2.6992,2.8223,2.8291,2.8291,2.8291,2.8291,2.7582,2.6127,2.61,2.4618,2.1671,2.1614,2.0838,1.9482,1.9424,1.9395,1.9395,1.9395,1.9395,1.9395,1.9395,1.9395,1.9395,1.9395,1.9395,1.9395,1.9395,1.9395,1.9395,1.9395,1.9395,1.9395,1.9395,1.9395,1.9395,1.9395,1.9773,2.0204,2.0204,2.0624,2.1109,2.1109,2.1109,2.1109,2.1109,2.1109,2.1109,2.1109,2.1109,2.1109,2.1109,2.1109,2.1109,2.1109,2.1109,2.1109,2.1109,2.1109,2.1109,2.1109,2.1109,2.1109,2.1109,2.1109,2.1229,2.1549,2.1836,2.2251,2.2833,2.2887,2.2893,2.2893,2.2893,2.2893,2.2893,2.2893,2.2893,2.2893,2.2893,2.2893,2.2893,2.2893,2.2893,2.8309,2.7972,2.7243,2.4506,2.3701,2.3052,2.1056,2.0605,2.0605,2.0605,2.0468,2.041,2.0576,0.0,0.0,0.0,0.0,0.0,0.0,1.8437,1.8469,1.8588,1.9775,2.0889,2.1602,2.373,2.524,2.5679,2.6924,2.7842,2.8271,2.8291,2.8291,2.8291,2.8291,2.7087,2.4599,2.4571,2.3095,2.0148,2.0148,1.9866,1.9395,1.9395,1.9395,1.9395,1.9395,1.9395,1.9395,1.9395,1.9395,1.9395,1.9395,1.9395,1.9395,1.9395,1.9395,1.9395,1.9395,1.9395,1.9395,1.9395,1.9395,1.9395,1.9395,1.9773,2.0204,2.0204,2.0624,2.1109,2.1109,2.1109,2.1109,2.1109,2.1109,2.1109,2.1109,2.1109,2.1109,2.1109,2.1109,2.1109,2.1109,2.1109,2.1109,2.1109,2.1109,2.1109,2.1109,2.1109,2.1109,2.1109,2.1109,2.1229,2.1562,2.1997,2.2438,2.2873,2.2893,2.2893,2.2893,2.2893,2.2893,2.2893,2.2893,2.2893,2.2893,2.2893,2.2893,2.2893,2.2893,2.2893,2.8168,2.8224,2.7769,2.5303,2.4805,2.4297,2.1841,2.128,2.128,2.128,2.0928,2.0889,2.1788,0.0,0.0,0.0,0.0,0.0,0.0,1.8313,1.8313,1.8568,1.9357,2.0127,2.0742,2.2969,2.4723,2.5615,2.6904,2.7812,2.8271,2.8291,2.8291,2.8291,2.8291,2.6834,2.3822,2.3794,2.2322,1.9395,1.9395,1.9395,1.9395,1.9395,1.9395,1.9395,1.9395,1.9395,1.9395,1.9395,1.9395,1.9395,1.9395,1.9395,1.9395,1.9395,1.9395,1.9395,1.9395,1.9395,1.9395,1.9395,1.9395,1.9395,1.9395,1.97,2.009,2.0334,2.0661,2.1002,2.1216,2.1189,2.1109,2.1109,2.1109,2.1109,2.1109,2.1109,2.1109,2.1109,2.1109,2.1109,2.1109,2.1109,2.1109,2.1109,2.1109,2.1109,2.1109,2.1109,2.1109,2.1109,2.1109,2.1269,2.1703,2.2271,2.2659,2.2887,2.2893,2.2893,2.2893,2.2893,2.2947,2.3026,2.2954,2.2954,2.3026,2.2954,2.2893,2.2893,2.2893,2.2893]},{"header":{"parameterUnit":"m.s-1","parameterCategory":1,"la1":30.6,"la2":29.2853,"lo1":-89.7004,"lo2":-87.6739,"dy":0.0162,"dx":0.0183,"nx":112,"ny":82,"refTime":"2023-05-28T12:00:00:Z","depth":0,"parameterNumber":3,"parameterNumberName":"V-component_of_WINDS"},"data":[0.0,0.0,0.0,0.0,0.0,0.0,0.0,0.0,0.0,0.0,0.0,0.0,0.0,0.0,0.0,0.0,0.0,0.0,0.0,0.0,0.0,0.0,0.0,0.0,0.0,0.0,0.0,0.0,0.0,0.0,0.0,0.0,0.0,0.0,0.0,0.0,0.0,0.0,0.0,0.0,0.0,0.0,0.0,0.0,0.0,0.0,0.0,0.0,0.0,0.0,0.0,0.0,0.0,0.0,0.0,0.0,0.0,0.0,0.0,0.0,0.0,0.0,0.0,0.0,0.0,0.0,0.0,0.0,0.0,0.0,0.0,0.0,0.0,0.0,0.0,0.0,0.0,0.0,0.0,0.0,0.0,0.0,0.0,0.0,0.0,0.0,0.0,0.0,0.0,0.0,2.7751,2.8152,3.0183,3.1511,3.1511,3.1511,3.0703,2.8861,0.0,0.0,0.0,0.0,0.0,0.0,0.0,0.0,0.0,0.0,0.0,0.0,0.0,0.0,0.0,0.0,0.0,0.0,0.0,0.0,0.0,0.0,0.0,0.0,0.0,0.0,0.0,0.0,0.0,0.0,0.0,0.0,0.0,0.0,0.0,0.0,0.0,0.0,0.0,0.0,0.0,0.0,0.0,0.0,0.0,0.0,0.0,0.0,0.0,0.0,0.0,0.0,0.0,0.0,0.0,0.0,0.0,0.0,0.0,0.0,0.0,0.0,0.0,0.0,0.0,0.0,0.0,0.0,0.0,0.0,0.0,0.0,0.0,0.0,0.0,0.0,0.0,0.0,0.0,0.0,0.0,0.0,0.0,0.0,0.0,0.0,0.0,0.0,0.0,0.0,0.0,0.0,0.0,0.0,0.0,0.0,0.0,0.0,0.0,0.0,0.0,0.0,0.0,0.0,2.8454,3.0668,3.1259,3.1511,3.1511,3.1511,3.0898,2.9533,0.0,0.0,0.0,0.0,0.0,0.0,0.0,0.0,0.0,0.0,0.0,0.0,0.0,0.0,0.0,0.0,0.0,0.0,0.0,0.0,0.0,0.0,0.0,0.0,0.0,0.0,0.0,0.0,0.0,0.0,0.0,0.0,0.0,0.0,0.0,0.0,0.0,0.0,0.0,0.0,0.0,0.0,0.0,0.0,0.0,0.0,0.0,0.0,0.0,0.0,0.0,0.0,0.0,0.0,0.0,0.0,0.0,0.0,0.0,0.0,0.0,0.0,0.0,0.0,0.0,0.0,0.0,0.0,0.0,0.0,0.0,0.0,0.0,0.0,0.0,0.0,0.0,0.0,0.0,0.0,0.0,0.0,0.0,0.0,0.0,0.0,0.0,0.0,0.0,0.0,0.0,0.0,0.0,0.0,0.0,0.0,0.0,0.0,0.0,0.0,0.0,0.0,0.0,2.8489,2.9412,3.1302,3.1511,3.1511,3.1511,3.1511,3.0957,2.9683,2.9309,0.0,0.0,0.0,0.0,0.0,0.0,0.0,0.0,0.0,0.0,0.0,0.0,0.0,0.0,0.0,0.0,0.0,0.0,0.0,0.0,0.0,0.0,0.0,0.0,0.0,0.0,0.0,0.0,0.0,0.0,0.0,0.0,0.0,0.0,0.0,0.0,0.0,0.0,0.0,0.0,0.0,0.0,0.0,0.0,0.0,0.0,0.0,0.0,0.0,0.0,0.0,0.0,0.0,0.0,0.0,0.0,0.0,0.0,0.0,0.0,0.0,0.0,0.0,0.0,0.0,0.0,0.0,0.0,0.0,0.0,0.0,0.0,0.0,0.0,0.0,0.0,0.0,0.0,0.0,0.0,0.0,0.0,0.0,0.0,0.0,0.0,0.0,0.0,0.0,0.0,0.0,0.0,0.0,0.0,0.0,0.0,0.0,0.0,0.0,0.0,0.0,0.0,2.9862,3.0417,3.1406,3.1511,3.1511,3.1511,3.1511,3.0957,2.9683,2.9593,0.0,0.0,0.0,0.0,0.0,0.0,0.0,0.0,0.0,0.0,0.0,0.0,0.0,0.0,0.0,0.0,0.0,0.0,0.0,0.0,0.0,0.0,0.0,0.0,0.0,0.0,0.0,0.0,0.0,0.0,0.0,0.0,0.0,0.0,0.0,0.0,0.0,0.0,0.0,0.0,0.0,0.0,0.0,0.0,0.0,0.0,0.0,0.0,0.0,0.0,0.0,0.0,0.0,0.0,0.0,0.0,0.0,0.0,0.0,0.0,0.0,0.0,0.0,0.0,0.0,0.0,0.0,0.0,0.0,0.0,0.0,0.0,0.0,0.0,0.0,0.0,0.0,0.0,0.0,0.0,0.0,0.0,0.0,0.0,0.0,0.0,0.0,0.0,0.0,0.0,0.0,0.0,0.0,0.0,0.0,0.0,0.0,0.0,0.0,0.0,0.0,0.0,3.0628,3.1406,3.1496,3.1511,3.1511,3.1511,3.1511,3.0957,2.9683,2.9593,0.0,0.0,0.0,0.0,0.0,0.0,0.0,0.0,0.0,0.0,0.0,0.0,0.0,0.0,0.0,0.0,0.0,0.0,0.0,0.0,0.0,0.0,0.0,0.0,0.0,0.0,0.0,0.0,0.0,0.0,0.0,0.0,0.0,0.0,0.0,0.0,0.0,0.0,0.0,0.0,0.0,0.0,0.0,0.0,0.0,0.0,0.0,0.0,0.0,0.0,0.0,0.0,0.0,0.0,0.0,0.0,0.0,0.0,0.0,0.0,0.0,0.0,0.0,0.0,0.0,0.0,0.0,0.0,0.0,0.0,0.0,0.0,0.0,0.0,0.0,0.0,0.0,0.0,0.0,0.0,0.0,0.0,0.0,0.0,0.0,0.0,0.0,0.0,0.0,0.0,0.0,0.0,0.0,0.0,0.0,0.0,0.0,0.0,0.0,0.0,0.0,0.0,3.0582,3.1196,3.2033,3.2108,3.2288,3.2706,3.2751,3.2183,3.0867,0.0,0.0,0.0,0.0,0.0,0.0,0.0,0.0,0.0,0.0,0.0,0.0,0.0,0.0,0.0,0.0,0.0,0.0,0.0,0.0,0.0,0.0,0.0,0.0,0.0,0.0,0.0,0.0,0.0,0.0,0.0,0.0,0.0,0.0,0.0,0.0,0.0,0.0,0.0,0.0,0.0,0.0,0.0,0.0,0.0,0.0,0.0,0.0,0.0,0.0,0.0,0.0,0.0,0.0,0.0,0.0,0.0,0.0,0.0,0.0,0.0,0.0,0.0,0.0,0.0,0.0,0.0,0.0,0.0,0.0,0.0,0.0,0.0,0.0,0.0,0.0,0.0,0.0,0.0,0.0,0.0,0.0,0.0,0.0,0.0,0.0,0.0,0.0,0.0,0.0,0.0,0.0,0.0,0.0,0.0,0.0,0.0,0.0,0.0,0.0,0.0,0.0,3.0643,3.1195,3.1809,3.2721,3.2826,3.3006,3.3455,3.3499,3.2931,3.1585,0.0,0.0,0.0,0.0,0.0,0.0,0.0,0.0,0.0,0.0,0.0,0.0,0.0,0.0,0.0,0.0,0.0,0.0,0.0,0.0,0.0,0.0,0.0,0.0,0.0,0.0,0.0,0.0,0.0,0.0,0.0,0.0,0.0,0.0,0.0,0.0,0.0,0.0,0.0,0.0,0.0,0.0,0.0,0.0,0.0,0.0,0.0,0.0,0.0,0.0,0.0,0.0,0.0,0.0,0.0,0.0,0.0,0.0,0.0,0.0,0.0,0.0,0.0,0.0,0.0,0.0,0.0,0.0,0.0,0.0,0.0,0.0,0.0,0.0,0.0,0.0,0.0,0.0,0.0,0.0,0.0,0.0,0.0,0.0,0.0,0.0,0.0,0.0,0.0,0.0,0.0,0.0,0.0,0.0,0.0,0.0,0.0,0.0,0.0,0.0,0.0,0.0,3.1511,3.2677,3.3499,3.3499,3.3499,3.3499,3.3514,3.3514,3.2961,0.0,0.0,0.0,0.0,0.0,0.0,0.0,0.0,0.0,0.0,0.0,0.0,0.0,0.0,0.0,0.0,0.0,0.0,0.0,0.0,0.0,0.0,0.0,0.0,0.0,0.0,0.0,0.0,0.0,0.0,0.0,0.0,0.0,0.0,0.0,0.0,0.0,0.0,0.0,0.0,0.0,0.0,0.0,0.0,0.0,0.0,0.0,0.0,0.0,0.0,0.0,0.0,0.0,0.0,0.0,0.0,0.0,0.0,0.0,0.0,0.0,0.0,0.0,0.0,0.0,0.0,0.0,0.0,0.0,0.0,0.0,0.0,0.0,0.0,0.0,0.0,0.0,0.0,0.0,0.0,0.0,0.0,0.0,0.0,0.0,0.0,0.0,0.0,0.0,0.0,0.0,0.0,0.0,0.0,0.0,0.0,0.0,0.0,0.0,0.0,0.0,0.0,0.0,3.2138,3.2961,3.3679,3.4143,3.4203,3.4398,3.4876,3.4921,3.4337,3.2991,0.0,0.0,0.0,0.0,0.0,0.0,0.0,0.0,0.0,0.0,0.0,0.0,0.0,0.0,0.0,0.0,0.0,0.0,0.0,0.0,0.0,0.0,0.0,0.0,0.0,0.0,0.0,0.0,0.0,0.0,0.0,0.0,0.0,0.0,0.0,0.0,0.0,0.0,0.0,0.0,0.0,0.0,0.0,0.0,0.0,0.0,0.0,0.0,0.0,0.0,0.0,0.0,0.0,0.0,0.0,0.0,0.0,0.0,0.0,0.0,0.0,0.0,0.0,0.0,0.0,0.0,0.0,0.0,0.0,0.0,0.0,0.0,0.0,0.0,0.0,0.0,0.0,0.0,0.0,0.0,0.0,0.0,0.0,0.0,0.0,0.0,0.0,0.0,0.0,0.0,0.0,0.0,0.0,0.0,0.0,0.0,0.0,0.0,0.0,0.0,0.0,0.0,3.2841,3.3724,3.4442,3.4862,3.4907,3.5055,3.5474,3.5504,3.504,3.3979,0.0,0.0,0.0,0.0,0.0,0.0,0.0,0.0,0.0,0.0,0.0,0.0,0.0,0.0,0.0,0.0,0.0,0.0,0.0,0.0,0.0,0.0,0.0,0.0,0.0,0.0,0.0,0.0,0.0,0.0,0.0,0.0,0.0,0.0,0.0,0.0,0.0,0.0,0.0,0.0,0.0,0.0,0.0,0.0,0.0,0.0,0.0,0.0,0.0,0.0,0.0,0.0,0.0,0.0,0.0,0.0,0.0,0.0,0.0,0.0,0.0,0.0,0.0,0.0,0.0,0.0,0.0,0.0,0.0,0.0,0.0,0.0,0.0,0.0,0.0,0.0,0.0,0.0,0.0,0.0,0.0,0.0,0.0,0.0,0.0,0.0,0.0,0.0,0.0,0.0,0.0,0.0,0.0,0.0,0.0,0.0,0.0,0.0,0.0,0.0,0.0,0.0,3.3574,3.4711,3.5504,3.5504,3.5504,3.5504,3.5504,3.5504,3.5205,3.4533,0.0,0.0,0.0,0.0,0.0,0.0,0.0,0.0,0.0,0.0,0.0,0.0,0.0,0.0,0.0,0.0,0.0,0.0,0.0,0.0,0.0,0.0,0.0,0.0,0.0,0.0,0.0,0.0,0.0,0.0,0.0,0.0,0.0,0.0,0.0,0.0,0.0,0.0,0.0,0.0,0.0,0.0,0.0,0.0,0.0,0.0,0.0,0.0,0.0,0.0,0.0,0.0,0.0,0.0,0.0,0.0,0.0,0.0,0.0,0.0,2.477,2.4402,0.0,0.0,0.0,0.0,0.0,0.0,0.0,0.0,0.0,0.0,0.0,0.0,0.0,0.0,0.0,0.0,0.0,0.0,0.0,0.0,0.0,0.0,0.0,0.0,0.0,0.0,0.0,0.0,0.0,0.0,0.0,0.0,0.0,0.0,0.0,0.0,0.0,0.0,0.0,0.0,3.4218,3.4996,3.5504,3.5504,3.5504,3.5504,3.5504,3.5504,3.5205,3.4533,3.4233,0.0,0.0,0.0,0.0,0.0,0.0,0.0,0.0,0.0,0.0,0.0,0.0,0.0,0.0,0.0,0.0,0.0,0.0,0.0,0.0,0.0,0.0,0.0,0.0,0.0,0.0,0.0,0.0,0.0,0.0,0.0,0.0,0.0,0.0,0.0,0.0,0.0,0.0,0.0,0.0,0.0,0.0,0.0,0.0,0.0,0.0,0.0,0.0,0.0,0.0,0.0,0.0,0.0,0.0,0.0,0.0,0.0,0.0,0.0,2.5297,2.4942,0.0,0.0,0.0,0.0,0.0,0.0,0.0,0.0,0.0,0.0,0.0,0.0,0.0,0.0,0.0,0.0,0.0,0.0,0.0,0.0,0.0,0.0,0.0,0.0,0.0,0.0,0.0,0.0,0.0,0.0,0.0,0.0,0.0,0.0,0.0,0.0,0.0,0.0,0.0,0.0,3.4876,3.558,3.6088,3.6387,3.64,3.64,3.64,3.68,3.6893,3.6543,3.6208,0.0,0.0,0.0,0.0,0.0,0.0,0.0,0.0,0.0,0.0,0.0,0.0,0.0,0.0,0.0,0.0,0.0,0.0,0.0,0.0,0.0,0.0,0.0,0.0,0.0,0.0,0.0,0.0,0.0,0.0,0.0,0.0,0.0,0.0,0.0,0.0,0.0,0.0,0.0,0.0,0.0,0.0,0.0,0.0,0.0,0.0,0.0,0.0,0.0,0.0,0.0,0.0,0.0,2.6738,2.6788,2.6788,2.6788,2.6788,2.6725,2.5958,2.566,2.5699,2.5172,0.0,0.0,0.0,0.0,0.0,0.0,0.0,0.0,0.0,0.0,0.0,0.0,0.0,0.0,0.0,0.0,0.0,0.0,0.0,0.0,0.0,0.0,3.1138,3.1254,3.218,3.2538,3.0767,0.0,0.0,0.0,0.0,0.0,0.0,0.0,0.0,0.0,0.0,0.0,3.5729,3.6446,3.7021,3.7362,3.7664,3.7731,3.7422,3.8202,3.8709,3.8709,3.8182,3.7825,0.0,0.0,0.0,0.0,0.0,0.0,0.0,0.0,0.0,0.0,0.0,0.0,0.0,0.0,0.0,0.0,0.0,0.0,0.0,0.0,0.0,0.0,0.0,0.0,0.0,0.0,0.0,0.0,0.0,0.0,0.0,0.0,2.364,2.3866,0.0,0.0,0.0,0.0,0.0,0.0,0.0,0.0,0.0,0.0,0.0,0.0,0.0,2.6562,2.6499,2.6947,2.7185,2.7198,2.7657,2.7896,2.7896,2.7896,2.7896,2.7938,2.8589,0.0,2.6336,2.5741,0.0,0.0,0.0,0.0,0.0,0.0,0.0,0.0,0.0,0.0,0.0,0.0,0.0,0.0,0.0,0.0,0.0,0.0,0.0,0.0,0.0,0.0,3.4123,3.4687,3.496,3.5037,3.4739,3.3388,3.2392,3.2974,3.3244,3.3365,0.0,0.0,0.0,0.0,0.0,0.0,3.7,3.7885,3.8143,3.7475,3.8758,3.9046,3.7526,3.8202,3.8709,3.8709,3.8616,3.8305,3.7716,3.742,0.0,0.0,0.0,0.0,0.0,0.0,0.0,0.0,0.0,0.0,0.0,0.0,0.0,0.0,0.0,0.0,0.0,0.0,0.0,0.0,0.0,0.0,0.0,0.0,0.0,0.0,0.0,0.0,0.0,2.3424,2.4553,2.4858,2.5109,2.5243,0.0,0.0,0.0,0.0,0.0,0.0,0.0,0.0,0.0,2.7412,2.7682,2.7695,2.7412,2.762,2.7896,2.821,2.9052,2.9614,2.9912,3.0523,3.0811,3.0802,3.0837,3.0352,2.9484,2.8879,2.8786,2.8972,0.0,0.0,0.0,0.0,2.9942,3.034,3.1431,3.1782,3.1683,3.1062,0.0,0.0,0.0,0.0,0.0,0.0,0.0,3.1144,3.2493,3.3665,3.4757,3.582,3.6058,3.6148,3.6492,3.5893,3.5129,3.4711,3.4921,3.5191,3.5191,3.5474,0.0,0.0,0.0,3.7631,3.8562,3.9447,3.9991,3.9977,4.0658,4.0801,4.0056,4.0785,4.1288,4.1288,4.1288,4.1144,4.0854,3.9172,3.7682,0.0,0.0,0.0,0.0,0.0,0.0,0.0,0.0,0.0,0.0,0.0,0.0,0.0,0.0,0.0,0.0,0.0,0.0,0.0,0.0,0.0,0.0,0.0,0.0,0.0,0.0,0.0,0.0,2.4515,2.5435,2.5963,2.5917,2.5942,0.0,0.0,0.0,0.0,0.0,0.0,2.7474,2.8263,2.87,2.8706,2.9077,2.9178,2.8922,2.9062,2.9356,2.9763,3.0971,3.1764,3.2176,3.2968,3.3328,3.3318,3.3052,3.296,3.2859,3.1545,3.1079,3.1187,3.1051,3.1323,3.1833,3.2056,3.2401,3.2852,3.3482,3.3709,3.3609,3.2988,3.251,3.2121,3.1693,0.0,0.0,0.0,0.0,3.2948,3.4008,3.4768,3.5491,3.6493,3.6733,3.6851,3.73,3.7387,3.712,3.6178,3.6387,3.6733,3.6733,3.7293,0.0,3.7958,3.8727,3.953,4.0202,4.1055,4.1689,4.1965,4.2395,4.2473,4.2046,4.2801,4.3306,4.3306,4.3306,4.32,4.2986,4.0769,3.9164,3.8383,0.0,0.0,0.0,0.0,0.0,0.0,0.0,0.0,0.0,0.0,0.0,0.0,0.0,0.0,0.0,0.0,0.0,0.0,0.0,0.0,0.0,0.0,0.0,0.0,0.0,0.0,0.0,0.0,0.0,2.7148,2.6758,0.0,0.0,0.0,0.0,2.7946,2.8442,2.8543,2.8084,2.9466,3.0296,3.0377,3.0354,3.0599,3.1125,3.1725,3.201,3.2055,3.3632,3.4408,3.4436,3.4492,3.451,3.4553,3.541,3.5791,3.5532,3.2331,3.1296,3.1702,3.1187,3.1323,3.1902,3.2811,3.3155,3.3386,3.4864,3.5379,3.5275,3.4589,3.3382,3.2304,3.291,3.2108,0.0,0.0,3.4076,3.4586,3.6656,3.7221,3.7285,3.7327,3.7342,3.7357,3.7404,3.7387,3.7389,3.733,3.7345,3.7342,3.7342,0.0,3.8861,3.9495,4.0323,4.1134,4.1805,4.2659,4.2876,4.2077,4.3469,4.3798,4.2141,4.2801,4.3306,4.3306,4.3306,4.2924,4.2093,4.1917,4.0458,3.7522,3.7362,0.0,0.0,0.0,0.0,0.0,0.0,0.0,0.0,0.0,0.0,0.0,0.0,0.0,0.0,0.0,0.0,0.0,0.0,0.0,0.0,0.0,0.0,0.0,0.0,0.0,0.0,0.0,0.0,2.7273,2.7437,0.0,2.8059,2.7921,2.7896,2.8097,2.9237,2.9845,2.9637,3.0869,3.1885,3.2609,3.2265,3.2503,3.341,3.4063,3.4569,3.4932,3.6625,3.7596,3.7961,3.8658,3.8737,3.8332,3.823,3.7946,3.7426,3.5795,3.5217,3.539,3.519,3.5249,3.5439,3.5775,3.5908,3.5972,3.6526,3.6714,3.6686,3.6447,3.5978,3.5581,3.5834,3.5545,3.5273,3.6047,3.6265,3.6435,3.7199,3.7387,3.7524,3.7943,3.8033,3.8153,3.8584,3.8688,3.8688,3.8688,3.8347,3.8182,3.8614,3.9415,4.0073,4.0304,4.155,4.257,4.2799,4.3606,4.402,4.371,4.4239,4.4355,4.3739,4.396,4.4138,4.4138,4.4138,4.4006,4.3695,4.2599,4.1485,4.0393,3.981,3.8409,0.0,0.0,0.0,0.0,0.0,0.0,0.0,0.0,0.0,0.0,0.0,0.0,0.0,0.0,0.0,0.0,0.0,0.0,0.0,0.0,0.0,0.0,0.0,0.0,0.0,2.7092,2.765,2.7821,2.8462,2.8917,2.895,2.9602,2.9796,2.9258,3.0871,3.1827,3.1694,3.3043,3.4347,3.5511,3.5167,3.5408,3.6347,3.6794,3.7203,3.7572,3.9069,4.0002,4.0354,4.1088,4.1164,4.0711,4.0277,3.9813,3.9382,3.8931,3.8751,3.8661,3.7764,3.7387,3.7387,3.7387,3.7387,3.7387,3.7387,3.7387,3.7387,3.7387,3.7387,3.7387,3.7387,3.7387,3.7464,3.7674,3.7749,3.7793,3.8033,3.806,3.8197,3.8631,3.8736,3.8856,3.9302,3.9406,3.9406,3.9406,3.9287,3.9319,3.9771,4.0809,4.1576,4.1576,4.3027,4.4107,4.4107,4.4827,4.5345,4.5345,4.5345,4.5345,4.5345,4.5108,4.5074,4.5328,4.5108,4.4944,4.4917,4.306,4.1901,4.1609,4.103,4.0081,3.8767,0.0,0.0,0.0,0.0,0.0,0.0,0.0,0.0,0.0,0.0,0.0,0.0,0.0,0.0,0.0,0.0,0.0,0.0,0.0,0.0,0.0,0.0,0.0,2.8213,2.822,2.8416,2.8988,2.9983,3.0648,3.0718,3.2629,3.3203,3.1645,3.352,3.4561,3.418,3.6018,3.7705,3.903,3.8924,3.9154,3.9834,3.9883,3.9883,3.9883,4.0945,4.1463,4.1463,4.1463,4.1448,4.1433,4.1433,4.1418,4.1403,4.1403,4.1403,4.1149,3.8542,3.7524,3.7477,3.7477,3.7477,3.7464,3.7464,3.7464,3.7464,3.7464,3.7464,3.7464,3.7464,3.7464,3.7599,3.8242,3.8422,3.8571,3.9227,3.9406,3.9406,3.9406,3.9406,3.9406,3.9406,3.9439,3.9475,3.9475,4.0231,4.0822,4.0755,4.2173,4.3339,4.3372,4.4721,0.0,4.5722,4.6363,4.68,4.68,4.6783,4.6769,4.68,4.6126,4.6007,4.675,4.6126,4.5685,4.5555,4.3393,4.1804,4.096,4.0894,4.166,4.3234,0.0,0.0,0.0,0.0,0.0,0.0,0.0,0.0,0.0,0.0,0.0,0.0,0.0,0.0,0.0,0.0,0.0,0.0,0.0,0.0,0.0,3.0184,3.1334,3.0838,3.0572,3.0879,3.2157,3.3,3.3484,3.3504,3.4463,3.4913,3.4481,3.651,3.7734,3.762,3.8523,3.9571,4.0696,3.9955,3.9989,4.0939,4.1452,4.169,4.169,4.2434,4.2771,4.2771,4.2771,4.2536,4.2126,4.2126,4.1837,4.1403,4.1403,4.1403,4.1328,4.0595,3.9993,3.9574,3.9574,3.9257,3.8853,3.8853,3.8853,3.8853,3.8853,3.8853,3.8853,3.8853,3.8853,3.8883,3.9062,3.914,3.9167,3.9346,3.9406,3.9406,3.9406,3.9406,3.9406,3.9406,4.0314,4.1151,4.1151,4.2784,4.3605,4.1822,4.2928,4.4276,4.4802,4.5822,4.6498,4.6498,4.6667,4.68,4.68,4.6312,4.621,4.6752,4.6126,4.6007,4.675,4.6599,4.6477,4.6438,4.5239,4.4443,4.4203,4.3104,4.3073,0.0,0.0,0.0,0.0,0.0,0.0,0.0,0.0,0.0,0.0,0.0,0.0,0.0,0.0,0.0,0.0,0.0,0.0,0.0,0.0,0.0,0.0,3.219,3.3475,3.4423,3.3492,3.3121,3.4302,3.5377,3.5963,3.5794,3.7153,3.7657,3.6765,3.875,3.9934,3.9754,4.048,4.1283,4.2173,4.1583,4.1563,4.2192,4.2581,4.2776,4.2776,4.313,4.329,4.329,4.329,4.3115,4.2776,4.2776,4.2551,4.2207,4.2207,4.2207,4.2147,0.0,0.0,0.0,0.0,4.0561,4.0247,4.0247,4.0053,3.981,3.981,3.9631,3.9406,3.9406,3.9406,3.9406,3.9406,3.9406,3.9406,3.9406,3.9406,3.9574,4.0264,4.0398,4.0583,4.1267,4.2148,4.2811,4.2811,4.4252,0.0,4.4017,4.4687,4.5557,4.5989,4.6739,4.7259,4.7259,4.753,4.7716,4.7716,4.7344,4.7259,4.7682,4.7056,0.0,0.0,0.0,4.6973,4.6317,4.5807,0.0,0.0,0.0,4.4928,4.6369,4.5135,0.0,0.0,4.2955,4.2425,0.0,0.0,0.0,0.0,0.0,0.0,0.0,0.0,0.0,0.0,0.0,0.0,0.0,0.0,0.0,0.0,3.4271,3.5242,3.8106,3.6692,3.5569,3.6083,3.7467,3.8241,3.7889,4.0071,4.0719,3.8819,4.049,4.1452,4.1102,4.1967,0.0,0.0,0.0,4.329,4.329,4.329,4.329,4.329,4.329,4.329,4.329,4.329,4.329,4.329,4.329,4.329,4.329,4.329,4.329,4.319,4.1968,4.1508,4.1493,4.1433,4.1403,4.1403,4.1403,0.0,0.0,4.0502,4.0113,3.9631,3.9631,3.9631,3.9631,3.9631,3.9631,3.9652,3.9745,3.9781,4.0169,4.1715,4.2065,4.2463,4.3899,4.4343,4.4474,4.4474,4.5228,4.6098,4.676,4.6905,4.6938,4.7054,4.7599,4.8022,4.8022,4.8597,4.9001,4.9001,4.8934,0.0,4.9001,4.8326,4.8208,4.8951,4.8394,4.7411,4.6043,4.5978,4.5978,4.5978,4.5978,4.6971,4.9001,4.9001,4.9001,4.8886,4.3682,4.2652,0.0,0.0,0.0,0.0,0.0,0.0,0.0,0.0,0.0,0.0,0.0,0.0,0.0,0.0,0.0,3.4825,3.6854,3.8506,3.9131,3.9713,3.9942,3.9524,4.0206,4.0708,4.0636,4.1567,4.2031,4.1612,4.2426,4.2902,4.2808,4.3016,4.319,4.329,4.329,4.329,4.329,4.329,4.329,4.329,4.329,0.0,4.329,4.329,4.329,4.329,4.329,4.329,4.329,4.329,4.329,4.3235,4.2496,4.2216,4.2141,4.1598,4.1403,4.1403,4.1403,4.1313,4.1209,4.1209,4.1134,4.1014,4.1014,4.1014,0.0,4.1014,4.1014,4.1186,4.195,4.2135,4.2415,4.3482,4.3751,4.3816,4.4129,4.5228,4.6142,4.6142,4.7328,4.838,4.8514,4.8066,4.7887,4.8477,4.8714,4.8798,4.8798,4.8917,4.9001,4.9001,4.8462,4.8343,4.8951,4.8326,4.8208,4.8951,4.8883,4.8652,4.8345,4.8345,4.8345,4.8345,4.8345,4.8558,4.9001,4.9001,4.9001,4.8969,4.7844,4.7613,0.0,0.0,0.0,0.0,0.0,0.0,0.0,0.0,0.0,0.0,0.0,3.0812,3.2541,0.0,3.5261,3.7011,3.8484,3.975,4.0756,4.1478,4.1777,4.1433,4.1688,4.2017,4.2327,4.2656,4.2851,4.2851,4.313,4.329,4.329,4.329,4.329,4.329,4.329,4.329,4.329,4.329,4.329,4.329,4.329,4.329,4.329,4.329,4.329,4.329,4.329,4.329,4.329,4.329,4.329,4.326,4.297,4.2851,4.2806,4.2476,4.2357,4.2357,4.2357,4.2147,4.1897,4.1897,4.1673,4.1403,4.1403,4.1403,4.1502,4.1979,4.2093,4.2315,4.3268,4.3496,4.3816,4.5096,4.5407,4.562,4.6436,4.7217,4.7802,4.7802,4.8451,4.9001,4.9001,4.8682,4.858,4.8951,4.9001,4.9001,4.9001,4.9001,4.9001,4.9001,4.8665,4.8597,4.8968,4.8648,4.8597,4.8984,4.9001,4.9001,4.9001,4.9001,4.9001,4.9001,4.9001,4.9001,4.9001,4.9001,4.9001,4.9001,4.9001,4.9001,0.0,0.0,0.0,0.0,0.0,0.0,0.0,2.7091,2.811,2.9949,3.0998,3.2411,3.5235,3.5901,3.6834,3.9375,3.9885,4.0546,4.2171,4.2515,4.2571,4.2571,4.2571,4.2761,4.3265,4.329,4.329,4.329,4.329,4.329,4.329,4.329,4.329,4.329,4.329,4.329,4.329,4.329,4.329,4.329,4.329,4.329,4.329,4.329,4.329,4.329,4.329,4.329,4.329,4.329,4.329,4.329,4.329,4.329,4.329,4.329,4.329,4.329,4.329,4.2985,4.2571,4.2571,4.2331,4.2066,4.2066,4.2202,4.2489,4.3249,4.3448,4.3678,4.4629,4.4864,4.5226,4.6713,4.7071,4.7412,4.871,4.9001,4.9001,4.9001,4.9001,4.9001,4.9001,4.9001,4.9001,4.9001,4.9001,4.9001,4.9001,4.9001,4.9001,4.9001,4.9001,4.9001,4.9001,4.9001,4.9001,4.9001,4.9001,4.9001,4.9001,4.9001,4.9001,4.9001,4.9001,4.9001,4.9001,4.9001,4.9001,4.9001,4.9001,4.9001,2.498,2.5042,2.5837,2.6859,2.7457,2.821,0.0,3.074,3.1615,3.2459,3.4061,3.5797,3.7389,3.8366,3.942,4.0935,4.1673,4.2141,4.2366,4.2865,4.3205,4.3205,4.3205,4.3235,4.329,4.329,4.329,4.329,4.329,4.329,4.329,4.329,4.329,4.329,4.329,4.329,4.329,4.329,4.329,4.329,4.329,4.329,4.329,4.329,4.329,4.329,4.329,4.329,4.329,4.329,4.329,4.329,4.329,4.329,4.329,4.329,4.329,4.329,4.329,4.3245,4.3205,4.3205,4.3741,4.4411,4.4411,4.4995,4.5684,4.5791,4.581,4.6037,4.6977,4.7226,4.7473,4.8489,4.8742,4.8775,4.8969,4.9001,4.9001,4.9001,4.9001,4.9001,4.9001,4.9001,4.9001,4.9001,4.9001,4.9001,4.9001,4.9001,4.9001,4.9001,4.9001,4.9001,4.9001,4.9001,4.9001,4.9001,4.9001,4.9001,4.9001,4.9001,4.9001,4.9001,4.9001,4.9001,4.9001,4.9001,4.9001,4.9001,4.9001,4.9001,2.772,2.7632,2.779,2.8938,2.9402,2.9735,3.0437,3.1403,3.267,3.4572,3.6121,3.7715,3.9629,4.0304,4.0894,4.1841,4.2216,4.2511,4.2865,4.3145,4.329,4.329,4.329,4.329,4.329,4.329,4.329,4.329,4.329,4.329,4.329,4.329,4.329,4.329,4.329,4.329,4.329,4.329,4.329,4.329,4.329,4.329,4.329,4.329,4.329,4.329,4.329,4.329,4.329,4.329,4.329,4.329,4.329,4.329,4.329,4.329,4.329,4.329,4.329,4.3689,4.4163,4.4163,4.4837,4.5615,4.5615,4.5887,4.6314,4.6867,4.7003,4.7239,4.8177,4.8417,4.8497,4.8924,4.9001,4.9001,4.9001,4.9001,4.9001,4.9001,4.9001,4.9001,4.9001,4.9001,4.9001,4.9001,4.9001,4.9001,4.9001,4.9001,4.9001,4.9001,4.9001,4.9001,4.9001,4.9001,4.9001,4.9001,4.9001,4.9001,4.9001,4.9001,4.9001,4.9001,4.9001,4.9001,4.9001,4.9001,4.9001,4.9001,4.9001,4.9001,2.9026,2.912,2.9183,3.0312,3.1175,3.1665,3.1347,3.2385,3.4046,3.6394,3.7498,3.877,4.1224,4.1673,4.1882,4.2541,4.2646,4.2791,4.325,4.329,4.329,4.329,4.329,4.329,4.329,4.329,4.329,4.329,4.329,4.329,4.329,4.329,4.329,4.329,4.329,4.329,4.329,4.329,4.329,4.329,4.329,4.329,4.329,4.329,4.329,4.329,4.329,4.329,4.329,4.329,4.329,4.329,4.329,4.329,4.3329,4.361,4.3532,4.3329,4.361,4.4182,4.4849,4.5098,4.5832,4.6591,4.6591,4.6781,4.7105,4.7803,4.7999,4.8128,4.8829,4.9001,4.9001,4.9001,4.9001,4.9001,4.9001,4.9001,4.9001,4.9001,4.9001,4.9001,4.9001,4.9001,4.9001,4.9001,4.9001,4.9001,4.9001,4.9001,4.9001,4.9001,4.9001,4.9001,4.9001,4.9001,4.9001,4.9001,4.9001,4.9001,4.9001,4.9001,4.9001,4.9001,4.9001,4.9001,4.9001,4.9001,4.9001,4.9001,4.9001,4.9001,2.7858,2.8518,2.9183,3.0312,3.2642,3.4391,3.328,3.477,3.669,3.7813,3.8062,3.8971,4.1847,4.2366,4.2571,4.3175,4.326,4.3275,4.329,4.329,4.329,4.329,4.329,4.329,4.329,4.329,4.329,4.329,4.329,4.329,4.329,4.329,4.329,4.329,4.329,4.329,4.329,4.329,4.329,4.329,4.329,4.329,4.329,4.329,4.329,4.329,4.329,4.329,4.329,4.329,4.329,4.329,4.329,4.329,4.3428,4.4377,4.4143,4.3433,4.4431,4.4774,4.4946,4.5852,4.6798,4.7556,4.7556,4.8193,4.8907,4.8955,4.8955,4.897,4.8986,4.9001,4.9001,4.9001,4.9001,4.9001,4.9001,4.9001,4.9001,4.9001,4.9001,4.9001,4.9001,4.9001,4.9001,4.9001,4.9001,4.9001,4.9001,4.9001,4.9001,4.9001,4.9001,4.9001,4.9001,4.9001,4.9001,4.9001,4.9001,4.9001,4.9001,4.9001,4.9001,4.9001,4.9001,4.9001,4.9001,4.9001,4.9001,4.9001,4.9001,4.9001,2.9993,3.0419,3.0922,3.2416,3.3495,3.4409,3.5167,3.6466,3.795,3.9549,4.0469,4.1375,4.2728,4.3015,4.3055,4.326,4.329,4.329,4.329,4.329,4.329,4.329,4.329,4.329,4.329,4.329,4.329,4.329,4.329,4.329,4.329,4.329,4.329,4.329,4.329,4.329,4.329,4.329,4.329,4.329,4.329,4.329,4.329,4.329,4.329,4.329,4.329,4.329,4.329,4.329,4.329,4.3369,4.4028,4.4297,4.4415,4.5361,4.5509,4.5272,4.56,4.6136,4.6695,4.7036,4.777,4.8529,4.8529,4.875,4.9001,4.9001,4.9001,4.9001,4.9001,4.9001,4.9001,4.9001,4.9001,4.9001,4.9001,4.9001,4.9001,4.9001,4.9001,4.9001,4.9001,4.9001,4.9001,4.9001,4.9001,4.9001,4.9001,4.9001,4.9001,4.9001,4.9001,4.9001,4.9001,4.9001,4.9001,4.9001,4.9001,4.9001,4.9001,4.9001,4.9001,4.9001,4.9001,4.9001,4.9001,4.9001,4.9001,4.9001,4.9001,4.9001,3.1286,3.1687,3.2089,3.3771,3.4645,3.5304,3.5984,3.6965,3.8203,3.9778,4.0692,4.1536,4.2758,4.3145,4.3384,4.3624,4.3668,4.3668,4.3668,4.3668,4.3579,4.3319,4.329,4.329,4.329,4.329,4.329,4.329,4.329,4.329,4.329,4.329,4.329,4.329,4.329,4.329,4.329,4.329,4.329,4.329,4.329,4.329,4.329,4.329,4.329,4.329,4.329,4.329,4.329,4.329,4.3512,4.3907,4.4548,4.4986,4.5413,4.6347,4.6712,4.6712,4.6712,4.7104,4.7655,4.7999,4.8513,4.9001,4.9001,4.9001,4.9001,4.9001,4.9001,4.9001,4.9001,4.9001,4.9001,4.9001,4.9001,4.9001,4.9001,4.9001,4.9001,4.9001,4.9001,4.9001,4.9001,4.9001,4.9001,4.9001,4.9001,4.9001,4.9001,4.9001,4.9001,4.9001,4.9001,4.9001,4.9001,4.9001,4.9001,4.9001,4.9001,4.9001,4.9001,4.9001,4.9001,4.9001,4.9001,4.9001,4.9001,4.9001,4.9001,4.9001,4.9001,4.9137,3.1717,3.2307,3.2708,3.4339,3.6016,3.7018,3.593,3.6606,3.7787,3.8861,3.9116,3.9842,4.204,4.291,4.3499,4.4147,4.4252,4.4252,4.4252,4.4252,4.4012,0.0,0.0,0.0,0.0,0.0,4.329,4.329,4.329,4.329,4.329,4.329,4.329,4.329,4.329,4.329,4.329,4.329,4.329,4.329,4.329,4.329,4.329,4.329,4.329,4.329,4.329,4.3329,4.3369,4.3369,4.3966,4.4887,4.4909,4.5504,4.64,4.7323,4.7671,4.7671,4.7671,4.7671,4.7819,4.8719,4.9001,4.9001,4.9001,4.9001,4.9001,4.9001,4.9001,4.9001,4.9001,4.9001,4.9001,4.9001,4.9001,4.9001,4.9001,4.9001,4.9001,4.9001,4.9001,4.9001,4.9001,4.9001,4.9017,4.9048,4.9017,4.9001,4.9001,4.9001,4.9001,4.9001,4.9001,4.9001,4.9001,4.9001,4.9001,4.9001,4.9001,4.9001,4.9001,4.9001,4.9001,4.9001,4.9001,4.9018,4.9069,4.9069,4.9086,4.912,4.912,4.9492,3.3319,3.3771,3.4264,3.5082,3.6312,3.7414,3.7927,3.8925,4.009,4.1264,4.1518,4.1838,4.2887,4.3205,4.3369,4.3534,4.3564,4.3564,4.3564,4.3564,0.0,4.3319,0.0,4.329,4.329,4.329,4.329,4.329,4.329,4.329,4.329,4.329,4.329,4.329,4.329,4.329,4.329,4.329,4.329,4.329,4.329,4.329,4.329,4.329,4.329,4.329,4.329,4.3728,4.4431,4.4431,4.4986,4.5905,4.6609,4.7036,4.7356,4.8289,4.8639,4.8639,4.8639,4.8639,4.8688,4.8907,4.9001,4.9001,4.9001,4.9001,4.9001,4.9001,4.9001,4.9001,4.9001,4.9001,4.9001,4.9001,4.9001,4.9001,4.9001,4.9001,4.9001,4.9001,4.9001,4.9001,4.9001,4.9001,4.9167,4.9664,4.9331,4.9001,4.9001,4.9001,4.9001,4.9001,4.9001,4.9001,4.9001,4.9001,4.9001,4.9001,4.9001,4.9001,4.9001,4.9001,4.9001,4.9001,4.9001,4.9272,4.9813,4.9813,5.0101,5.0643,5.0643,5.0728,3.4402,3.4828,3.5192,3.5744,3.6223,3.6873,3.8241,3.8677,3.9331,4.1206,4.1651,4.1962,4.2757,4.3115,4.3394,4.3698,4.3743,4.3743,4.3743,4.3743,4.3638,0.0,4.329,0.0,4.329,4.329,4.329,4.329,4.329,4.329,4.329,4.329,4.329,4.329,4.329,4.329,4.329,4.329,4.329,4.329,4.329,4.329,4.329,4.329,4.3532,4.3966,4.3966,4.4514,4.5413,4.5413,4.5975,4.6867,4.739,4.7852,4.8273,4.8814,4.9001,4.9001,4.9001,4.9001,4.9001,4.9001,4.9001,4.9001,4.9001,4.9001,4.9001,4.9001,4.9001,4.9001,4.9001,4.9001,4.9001,4.9001,4.9001,4.9001,4.9001,4.9001,4.9001,4.9001,4.9001,4.9001,4.9001,4.9241,4.9563,4.9947,4.9965,4.9925,4.9925,4.9374,4.9123,4.9419,4.9432,4.9432,4.9432,4.9432,4.9299,4.9017,4.9001,4.9001,4.9001,4.9306,4.9475,4.9475,4.9813,5.0168,5.0591,5.0591,5.0811,5.1217,5.1564,5.189,3.5117,3.5661,3.5964,3.6478,3.6457,3.668,3.8121,3.7848,3.7968,4.0353,4.0929,4.1313,4.2325,4.303,4.3589,4.4087,4.4237,4.4267,4.4177,4.4162,4.3953,4.3364,4.329,4.329,4.329,4.3384,4.3394,4.3305,4.3379,4.3379,4.329,4.329,4.329,4.329,4.329,4.329,4.329,4.329,4.329,4.329,4.329,4.329,4.3309,4.3448,4.397,4.4812,4.4927,4.5522,4.6384,4.6384,4.6935,4.7786,4.7786,4.8273,4.9001,4.9001,4.9001,4.9001,4.9001,4.9001,4.9001,4.9001,4.9001,4.9001,4.9001,4.9001,4.9001,4.9001,4.9001,4.9001,4.9001,4.9001,4.9001,4.9001,4.9001,4.9001,4.9001,4.9001,4.9001,4.9001,4.9001,4.9032,4.9123,4.9622,5.0058,5.0255,5.0756,5.1125,5.1215,5.0093,4.9492,5.0072,5.0143,5.0143,5.0143,5.0061,4.9844,4.9453,4.935,4.9401,4.9593,5.0113,5.0408,5.0408,5.0927,5.1252,5.1353,5.1449,5.1564,5.1681,5.2483,5.3187,3.5295,3.6547,3.7671,3.7776,3.9185,4.0485,4.0221,4.0793,0.0,4.2,4.2108,4.2331,4.3021,4.3683,4.3982,4.3529,4.3938,4.4102,4.3564,4.3469,4.3444,0.0,4.329,4.329,4.329,4.3803,4.3908,4.3334,4.3818,4.3878,4.3319,4.329,4.329,4.329,4.329,4.329,4.329,4.329,4.329,4.329,4.329,4.329,4.3329,4.4163,4.4643,4.4849,4.5615,4.6487,4.7356,4.7356,4.7901,4.8767,4.8767,4.8861,4.9001,4.9001,4.9001,4.9001,4.9001,4.9001,4.9001,4.9001,4.9001,4.9001,4.9001,4.9001,4.9001,4.9001,4.9001,4.9001,4.9001,4.9001,4.9001,4.9001,4.9001,4.9001,4.9001,4.9001,4.9001,4.9001,4.9001,4.9182,4.9737,4.9919,5.039,5.1569,5.1381,5.1305,5.1856,5.1228,5.077,5.0889,5.0903,5.0903,5.0903,5.0352,5.0491,5.1648,5.1219,5.1454,5.2666,5.2262,5.2013,5.2013,5.1465,5.1488,5.2114,5.2768,5.3402,5.4022,5.4788,5.5203,3.6452,3.7037,3.7507,3.8738,3.9188,3.9666,4.0844,0.0,0.0,4.2693,4.2865,4.297,4.3265,4.3564,4.3788,4.3818,4.3803,4.3788,4.3818,4.3514,4.329,4.329,4.329,4.329,4.329,4.3594,4.3653,4.3319,4.3609,4.3638,4.3324,4.329,4.329,4.329,4.329,4.329,4.329,4.329,4.329,4.3309,4.383,4.4066,4.4105,4.5082,4.5796,4.6293,4.6729,4.7456,4.8338,4.8338,4.8592,4.9001,4.9001,4.9001,4.9001,4.9001,4.9001,4.9001,4.9001,4.9001,4.9001,4.9001,4.9001,4.9001,4.9001,4.9001,4.9001,4.9001,4.9001,4.9001,4.9001,4.9001,4.9001,4.9001,4.9001,4.9001,4.9001,4.9001,4.9001,4.9001,4.9001,4.9212,4.9876,5.0324,5.0911,5.1952,5.2154,5.2318,5.2628,5.2388,5.2048,5.1655,5.2006,5.2251,5.2251,5.2339,5.2564,5.2905,5.2612,5.276,5.3468,5.3531,5.3545,5.3545,5.317,5.3132,5.3492,5.3884,5.4258,5.4636,5.5784,5.6326,3.7112,3.7244,3.7306,3.9512,3.9212,3.9026,4.1422,4.1637,4.171,4.3031,4.329,4.329,4.329,4.3429,4.3698,4.4207,4.3863,4.3698,4.4222,4.3728,4.329,4.329,4.329,0.0,4.329,4.3444,4.3439,4.3305,4.329,4.329,4.329,4.329,4.329,4.329,4.329,4.329,4.329,4.3512,4.363,4.363,4.4627,4.5098,4.5135,4.6065,4.6901,4.7605,4.7819,4.8305,4.9001,4.9001,4.9001,4.9001,4.9001,4.9001,4.9001,4.9001,4.9001,4.9001,4.9001,4.9001,4.9001,4.9001,4.9001,4.9001,4.9001,4.9001,4.9001,4.9001,4.9001,4.9001,4.9001,4.9001,4.9001,4.9001,4.9001,4.9001,4.9001,4.9001,4.9001,4.9001,4.9123,4.9434,5.0132,5.0836,5.1562,5.2236,5.2831,5.3269,5.3434,5.3453,5.3299,5.2894,5.3264,5.3602,5.3783,5.4279,5.4491,5.4229,5.4073,5.4131,5.4449,5.4866,5.5092,5.5092,5.4919,5.4833,5.4833,5.5014,5.5104,5.5134,5.6492,5.7147,3.5879,3.7193,3.8359,4.0109,4.1228,4.2139,4.2947,0.0,4.3101,4.3255,4.329,4.329,4.329,4.3803,4.4222,4.4282,4.4252,4.4222,4.4282,4.3728,4.329,4.329,0.0,0.0,4.329,4.3848,4.3953,4.3349,4.329,4.329,4.329,4.329,4.329,4.329,4.329,4.329,4.329,4.4201,4.4662,4.4662,4.5634,4.6067,4.6085,4.7037,4.7523,4.7638,4.8513,4.8907,4.9001,4.9001,4.9001,4.9001,4.9001,4.9001,4.9001,4.9001,4.9001,4.9001,4.9001,4.9001,4.9001,4.9001,4.9001,4.9001,4.9001,4.9001,4.9001,4.9001,4.9001,4.9001,4.9001,4.9001,4.9001,4.9001,4.9001,4.9001,4.9001,4.9001,4.9001,4.9001,4.9492,5.0129,5.0876,5.1556,5.2247,5.2999,5.3164,5.3453,5.4197,5.4289,5.4543,5.5214,5.469,5.458,5.5324,5.4893,5.513,5.6427,5.5928,5.6187,5.7529,5.7009,5.6683,5.6683,5.5972,5.5592,5.5592,5.6326,5.67,5.6713,5.751,5.7897,3.6878,3.7631,3.8573,4.1064,4.1498,4.1674,4.2986,0.0,4.329,4.329,4.329,4.329,4.329,4.3519,4.3833,4.4222,4.3967,4.3848,4.4237,4.3728,4.329,4.329,4.329,4.329,4.329,4.3549,4.3594,4.3319,4.329,4.3551,4.4163,4.4201,4.3927,4.3309,4.3888,4.4201,4.4201,4.4586,4.5079,4.5652,4.6591,4.7037,4.7071,4.8015,4.8433,4.8449,4.8845,4.9001,4.9001,4.9001,4.9001,4.9001,4.9001,4.9001,4.9001,4.9001,4.9001,4.9001,4.9001,4.9001,4.9001,4.9001,4.9001,4.9001,4.9001,4.9001,4.9001,4.9001,4.9001,4.9001,4.9001,4.9001,4.9001,4.9001,4.9001,4.9001,4.9001,4.9001,4.9123,4.9519,4.9821,5.0362,5.1506,5.1916,5.2358,5.3092,5.3599,5.4051,5.4363,5.4821,5.5427,5.6235,5.6051,5.5978,5.6308,5.6525,5.6892,5.749,5.7274,5.7397,5.7978,5.7726,5.7565,5.7565,5.6812,5.6425,5.6421,5.6734,5.6899,5.6912,5.7667,5.7997,3.7515,3.8056,3.8797,4.1439,4.1617,4.1476,4.2748,0.0,4.3265,4.307,4.319,4.329,4.329,4.329,4.3514,4.4192,4.3743,4.3529,4.4207,4.3893,4.3609,4.3609,4.3609,4.3609,4.3609,4.3429,4.3428,4.3713,4.3732,4.4167,4.5172,4.5208,4.4762,4.3771,4.4415,4.4793,4.4793,4.534,4.5957,4.6643,4.7572,4.8015,4.8031,4.8703,4.9001,4.9001,4.9001,4.9001,4.9001,4.9001,4.9001,4.9001,4.9001,4.9001,4.9001,4.9001,4.9001,4.9001,4.9001,4.9001,4.9001,4.9001,4.9001,4.9001,4.9001,4.9001,4.9001,4.9001,4.9001,4.9001,4.9001,4.9001,4.9001,4.9001,4.9001,4.9001,4.9001,4.9168,4.9449,4.9904,5.0335,5.0938,5.1928,5.2271,5.2672,5.3436,5.4051,5.4564,5.506,5.5592,5.6253,5.7079,5.7141,5.7141,5.7141,5.7666,5.7997,5.7997,5.7997,5.7997,5.7997,5.7997,5.7997,5.7997,5.7486,5.7222,5.7222,5.7222,5.7222,5.7234,5.775,5.7997,3.7196,3.8285,3.9223,4.0978,4.1897,4.2391,4.241,4.2865,4.313,4.2526,4.288,4.329,4.329,4.329,4.3514,4.4192,4.3743,4.3529,4.4207,4.4282,4.4282,4.4282,4.4282,4.4282,4.4282,4.3698,4.3713,4.4718,4.4774,4.519,4.6154,4.6191,4.5744,4.4812,4.4793,4.4793,4.4793,4.6643,4.7572,4.7605,4.8545,4.8986,4.8986,4.8986,4.9001,4.9001,4.9001,4.9001,4.9001,4.9001,4.9001,4.9001,4.9001,4.9001,4.9001,4.9001,4.9001,4.9001,4.9001,4.9001,4.9001,4.9001,4.9001,4.9001,4.9001,4.9001,4.9001,4.9001,4.9001,4.9001,4.9001,4.9001,4.9001,4.9001,4.9001,4.9001,4.9001,4.9519,4.999,5.0004,5.112,5.2089,5.2101,5.2714,5.346,5.4271,5.4399,5.4987,5.6572,5.6774,5.7097,5.7905,5.7997,5.7997,5.7997,5.7997,5.7997,5.7997,5.7997,5.7997,5.7997,5.7997,5.7997,5.7997,5.7997,5.7985,5.7985,5.7985,5.7985,5.7985,5.7997,5.7997,3.7558,3.8491,3.9439,4.0457,4.1224,4.1718,4.1718,4.2211,4.2631,4.244,4.2541,4.2806,4.322,4.329,4.3364,4.3574,4.3444,4.3364,4.3594,4.3624,4.3624,4.3624,4.3624,4.3887,4.458,4.3829,4.3974,4.5618,4.5153,4.5486,4.7071,4.654,4.6049,4.5778,4.5762,4.6065,4.6711,4.7306,4.7917,4.8561,4.8861,4.9001,4.9001,4.9001,4.9001,4.9001,4.9001,4.9001,4.9001,4.9001,4.9001,4.9001,4.9001,4.9001,4.9001,4.9001,4.9001,4.9001,4.9001,4.9001,4.9001,4.9001,4.9001,4.9001,4.9001,4.9001,4.9001,4.9001,4.9001,4.9001,4.9001,4.9001,4.9001,4.9001,4.9001,4.9001,4.9001,4.9536,5.0143,5.0649,5.1481,5.2259,5.2758,5.35,5.4106,5.4363,5.5335,5.6223,5.6737,5.7281,5.7721,5.796,5.7997,5.7997,5.7997,5.7997,5.7997,5.7997,5.7997,5.7997,5.7997,5.7997,5.7997,5.7997,5.7997,5.7997,5.7997,5.7997,5.7997,5.7997,5.7997,5.7997,3.8231,3.9084,3.9888,4.0307,4.0909,0.0,4.1089,4.1733,4.2336,4.2081,4.2406,4.2851,4.3235,4.329,4.329,4.329,4.329,4.329,4.329,4.3519,4.3683,4.3683,4.3992,4.4224,4.4232,4.4008,4.4498,4.6085,4.567,4.6152,4.8031,4.7239,4.6901,4.7256,4.6918,4.7003,4.7589,4.795,4.8417,4.9001,4.9001,4.9001,4.9001,4.9001,4.9001,4.9001,4.9001,4.9001,0.0,4.9001,4.9001,4.9001,4.9001,4.9001,4.9001,4.9001,4.9001,4.9001,4.9001,4.9001,4.9001,4.9001,4.9001,4.9001,4.9001,4.9001,4.9001,4.9001,4.9001,4.9001,4.9001,4.9001,4.9001,4.9001,4.9001,4.9061,4.9314,4.9922,5.0622,5.1343,5.203,5.2753,5.3528,5.4069,5.462,5.5207,5.615,5.6902,5.7207,5.7685,5.7997,5.7997,5.7997,5.7997,5.7997,5.7997,5.7997,5.7997,5.7997,5.7997,5.7997,5.7997,5.7997,5.7997,5.7997,5.7997,5.7997,5.7997,5.7997,5.7997,5.7997,5.7997,0.0,3.984,4.0337,4.0337,4.0831,4.1149,4.0487,4.1373,0.0,4.1523,4.2342,4.319,4.3235,4.3205,4.319,4.3235,4.325,4.3265,4.329,4.3848,4.4222,4.4222,4.5004,4.4998,4.3636,4.4282,4.5245,4.633,4.6331,4.7088,4.8892,4.8177,4.8096,4.897,4.8144,4.7688,4.7688,4.8561,4.9001,4.9001,4.9001,4.9001,4.9001,4.9001,4.9001,4.9001,4.9001,4.9001,4.9001,4.9001,4.9001,4.9001,4.9001,4.9001,4.9001,4.9001,4.9001,4.9001,4.9001,4.9001,4.9001,4.9001,4.9001,4.9001,4.9001,4.9001,4.9001,4.9001,4.9001,4.9001,4.9001,4.9001,4.9001,4.9001,4.9001,4.9182,4.9864,5.0581,5.1305,5.1964,5.275,5.3526,5.4271,5.4491,5.5078,5.6572,5.6847,5.7171,5.7905,5.7997,5.7997,5.7997,5.7997,5.7997,5.7997,5.7997,5.7997,5.7997,5.7997,5.7997,5.7997,5.7997,5.7997,5.7997,5.7997,5.7997,5.7997,5.7997,5.7997,5.7997,5.7997,5.7997,3.9032,0.0,3.9631,3.9631,4.0142,4.0457,0.0,0.0,0.0,0.0,0.0,4.2002,4.2526,4.2197,4.2017,4.2526,4.2601,4.2761,4.325,4.3444,4.3549,4.3549,4.3718,4.43,4.5416,4.5082,4.5794,4.8161,4.7671,4.7786,4.894,4.8798,4.8766,4.8986,4.8798,4.8672,4.8672,4.8876,4.9001,4.9001,4.9001,4.9001,4.9001,4.9001,4.9001,4.9001,4.9001,4.9001,4.9001,4.9001,4.9001,4.9001,4.9001,4.9001,4.9001,4.9001,4.9001,4.9001,4.9001,4.9001,4.9001,4.9001,4.9001,4.9001,4.9001,4.9001,4.9001,4.9001,4.9001,4.9001,4.9001,4.9001,4.9001,4.9001,4.9001,4.9182,4.9864,5.0581,5.1305,5.1964,5.3187,5.4179,5.4363,5.5427,5.6352,5.6737,5.7317,5.7795,5.7978,5.7997,5.7997,5.7997,5.7997,5.7997,5.7997,5.7997,5.7997,5.7997,5.7997,5.7997,5.7997,5.7997,5.7997,5.7997,5.7997,5.7997,5.7997,5.7997,5.7997,5.7997,5.7997,5.7997,3.8661,3.9167,3.9406,3.9406,3.9675,3.9933,3.987,0.0,0.0,0.0,0.0,4.1508,4.1867,4.1897,4.1991,4.2336,4.2631,4.294,4.3265,4.329,4.3472,4.3927,4.4381,4.5032,4.6103,4.6136,4.6728,4.8241,4.7885,4.8015,4.8955,4.9001,4.9001,4.9001,4.9001,4.9001,4.9001,4.9001,4.9001,4.9001,4.9001,4.9001,4.9001,4.9001,4.9001,4.9001,4.9001,4.9001,4.9001,4.9001,4.9001,4.9001,4.9001,4.9001,4.9001,4.9001,4.9001,4.9001,4.9001,4.9001,4.9001,4.9001,4.9001,4.9001,4.9001,4.9001,4.9001,4.9001,4.9001,4.9001,4.9001,4.9001,4.9001,4.9001,4.9001,4.9271,5.0283,5.0823,5.15,5.2894,5.3833,5.4638,5.5372,5.6223,5.6921,5.7299,5.7721,5.7997,5.7997,5.7997,5.7997,5.7997,5.7997,5.7997,5.7997,5.7997,5.7997,5.7997,5.7997,5.7997,5.7997,5.7997,5.7997,5.7997,5.7997,5.7997,5.7997,5.7997,5.7997,5.7997,5.7997,5.7997,3.8182,3.8901,3.9406,3.9406,3.9406,3.9556,4.0127,0.0,0.0,0.0,0.0,4.1283,4.1373,4.1688,4.2051,4.2351,4.3033,4.3532,4.3532,4.3654,4.4051,4.4909,4.5724,4.6261,4.6401,4.7122,4.7655,4.7803,4.7819,4.8161,4.8955,4.9001,4.9001,4.9001,4.9001,4.9001,4.9001,4.9001,4.9001,4.9001,4.9001,4.9001,4.9001,4.9001,4.9001,4.9001,4.9001,4.9001,4.9001,4.9001,4.9001,4.9001,4.9001,4.9001,4.9001,4.9001,4.9001,4.9001,4.9001,4.9001,4.9001,4.9001,4.9001,4.9001,4.9001,4.9001,4.9001,4.9001,4.9001,4.9001,4.9001,4.9001,4.9001,4.9001,4.9077,4.9506,5.081,5.1283,5.2024,5.4008,5.4601,5.5207,5.6572,5.6902,5.7207,5.7905,5.7997,5.7997,5.7997,5.7997,5.7997,5.7997,5.7997,5.7997,5.7997,5.7997,5.7997,5.7997,5.7997,5.7997,5.7997,5.7997,5.7997,5.7997,5.7997,5.7997,5.7997,5.7997,5.7997,5.7997,5.7997,5.7997,3.808,3.8901,3.9406,3.9406,3.9406,3.9436,3.9526,0.0,0.0,0.0,0.0,4.0726,4.1298,4.0561,4.0412,4.2126,4.3621,4.4567,4.4567,4.5251,4.58,4.5977,4.6103,4.6506,4.7306,4.7523,4.7917,4.8719,4.8798,4.8845,4.8986,4.9001,4.9001,4.9001,4.9001,4.9001,4.9001,4.9001,4.9001,4.9001,4.9001,4.9001,4.9001,4.9001,4.9001,4.9001,4.9001,4.9001,4.9001,4.9001,4.9001,4.9001,4.9001,4.9001,4.9001,4.9001,4.9001,4.9001,4.9001,4.9001,4.9001,4.9001,4.9001,4.9001,4.9001,4.9001,4.9001,4.9001,4.9001,4.9001,4.9001,4.9001,4.9001,4.9001,4.9417,5.0075,5.0916,5.2087,5.3255,5.4214,5.55,5.6499,5.6756,5.7373,5.785,5.7978,5.7997,5.7997,5.7997,5.7997,5.7997,5.7997,5.7997,5.7997,5.7997,5.7997,5.7997,5.7997,5.7997,5.7997,5.7997,5.7997,5.7997,5.7997,5.7997,5.7997,5.7997,5.7997,5.7997,5.7997,5.7997,5.7997,3.7212,3.8093,3.896,3.9316,3.993,4.0576,4.0954,0.0,0.0,0.0,4.0651,4.0487,4.0786,4.1067,4.195,4.4095,4.4654,4.4983,4.5504,4.5923,4.6384,4.6901,4.6952,4.7323,4.8257,4.8354,4.8545,4.897,4.9001,4.9001,4.9001,4.9001,4.9001,4.9001,4.9001,4.9001,4.9001,4.9001,4.9001,4.9001,4.9001,4.9001,4.9001,4.9001,4.9001,4.9001,4.9001,4.9001,4.9001,4.9001,4.9001,4.9001,4.9001,4.9001,4.9001,4.9001,4.9001,4.9001,4.9001,4.9001,4.9001,4.9001,4.9001,4.9001,4.9001,4.9001,4.9001,4.9001,4.9001,4.9001,4.9001,4.9001,4.9092,4.9447,4.9795,5.0429,5.1966,5.2815,5.3771,5.5389,5.6278,5.6939,5.7373,5.7758,5.7997,5.7997,5.7997,5.7997,5.7997,5.7997,5.7997,5.7997,5.7997,5.7997,5.7997,5.7997,5.7997,5.7997,5.7997,5.7997,5.7997,5.7997,5.7997,5.7997,5.7997,5.7997,5.7997,5.7997,5.7997,5.7997,5.7997,5.7997,3.6464,3.7437,3.8556,3.9227,4.0172,4.1149,4.1991,4.1643,4.1209,4.1373,4.0999,4.0621,4.0621,4.1937,4.3553,4.5146,4.543,4.5706,4.6435,4.6729,4.7122,4.7836,4.7917,4.8209,4.894,4.9001,4.9001,4.9001,4.9001,4.9001,4.9001,4.9001,4.9001,4.9001,4.9001,4.9001,4.9001,4.9001,4.9001,4.9001,4.9001,4.9001,4.9001,4.9001,4.9001,4.9001,4.9001,4.9001,4.9001,4.9001,4.9001,4.9001,4.9001,4.9001,4.9001,4.9001,4.9001,4.9001,4.9001,4.9001,4.9001,4.9001,4.9001,4.9001,4.9001,4.9001,4.9001,4.9001,4.9001,4.9001,4.9001,4.9001,4.9167,4.9835,5.0129,5.0819,5.2868,5.3573,5.4419,5.6401,5.6939,5.7281,5.7886,5.7997,5.7997,5.7997,5.7997,5.7997,5.7997,5.7997,5.7997,5.7997,5.7997,5.7997,5.7997,5.7997,5.7997,5.7997,5.7997,5.7997,5.7997,5.7997,5.7997,5.7997,5.7997,5.7997,5.7997,5.7997,5.7997,5.7997,5.7997,5.7997,3.6329,3.7437,3.8556,3.9227,3.9466,3.987,4.1179,4.0954,4.0651,4.1268,4.1358,4.1328,4.1328,4.2639,4.3586,4.3129,4.5498,4.7406,4.7489,4.8241,4.8829,4.8876,4.8892,4.894,4.8986,4.9001,4.9001,4.9001,4.9001,4.9001,4.9001,4.9001,4.9001,4.9001,4.9001,4.9001,4.9001,4.9001,4.9001,4.9001,4.9001,4.9001,4.9001,4.9001,4.9001,4.9001,4.9001,4.9001,4.9001,4.9001,4.9001,4.9001,4.9001,4.9001,4.9001,4.9001,4.9001,4.9001,4.9001,4.9001,4.9001,4.9001,4.9001,4.9001,4.9001,4.9001,4.9001,4.9001,4.9001,4.9001,4.9001,4.9001,4.9167,4.9835,5.0513,5.1441,5.2966,5.4421,5.5713,5.6627,5.7409,5.7923,5.7997,5.7997,5.7997,5.7997,5.7997,5.7997,5.7997,5.7997,5.7997,5.7997,5.7997,5.7997,5.7997,5.7997,5.7997,5.7997,5.7997,5.7997,5.7997,5.7997,5.7997,5.7997,5.7997,5.7997,5.7997,5.7997,5.7997,5.7997,5.7997,5.7997,3.6329,3.7437,3.8556,3.9227,3.9705,4.0367,4.1718,4.1841,4.1598,4.1433,4.1733,4.2077,4.2242,4.3445,4.4583,4.5067,4.6535,4.7803,4.8386,4.8783,4.9001,4.9001,4.9001,4.9001,4.9001,4.9001,4.9001,4.9001,4.9001,4.9001,4.9001,4.9001,4.9001,4.9001,4.9001,4.9001,4.9001,4.9001,4.9001,4.9001,4.9001,4.9001,4.9001,4.9001,4.9001,4.9001,4.9001,4.9001,4.9001,4.9001,4.9001,4.9001,4.9001,4.9001,4.9001,4.9001,4.9001,4.9001,4.9001,4.9001,4.9001,4.9001,4.9001,4.9001,4.9001,4.9001,4.9001,4.9001,4.9301,4.9536,4.9107,4.9316,4.9792,5.05,5.1596,5.2876,5.4391,5.5576,5.6583,5.7391,5.7795,5.7997,5.7997,5.7997,5.7997,5.7997,5.7997,5.7997,5.7997,5.7997,5.7997,5.7997,5.7997,5.7997,5.7997,5.7997,5.7997,5.7997,5.7997,5.7997,5.7997,5.7997,5.7997,5.7997,5.7997,5.7997,5.7997,5.7997,5.7997,5.7997,5.7997,5.7997,3.6656,3.7569,3.8601,3.9514,3.9885,4.0487,4.2051,4.2246,4.2062,4.1998,4.2211,4.2538,4.3027,4.4112,4.5286,4.6422,4.7404,4.8257,4.8924,4.9001,4.9001,4.9001,4.9001,4.9001,4.9001,4.9001,4.9001,4.9001,4.9001,4.9001,4.9001,4.9001,4.9001,4.9001,4.9001,4.9001,4.9001,4.9001,4.9001,4.9001,4.9001,4.9001,4.9001,4.9001,4.9001,4.9001,4.9001,4.9001,4.9001,4.9001,4.9001,4.9001,4.9001,4.9001,4.9001,4.9001,4.9001,4.9001,4.9001,4.9001,4.9015,4.9258,4.9316,4.9359,4.9595,4.9652,4.9652,4.9652,4.9993,5.0241,4.978,5.0007,5.0579,5.1568,5.2579,5.3796,5.558,5.6418,5.7031,5.7831,5.7997,5.7997,5.7997,5.7997,5.7997,5.7997,5.7997,5.7997,5.7997,5.7997,5.7997,5.7997,5.7997,5.7997,5.7997,5.7997,5.7997,5.7997,5.7997,5.7997,5.7997,5.7997,5.7997,5.7997,5.7997,5.7997,5.7997,5.7997,5.7997,5.7997,5.7997,5.8143,3.7404,3.7883,3.8739,4.0053,3.9918,3.9963,4.1961,4.1901,4.1758,4.304,4.2825,4.2693,4.3648,4.4591,4.5542,4.6437,4.7948,4.9001,4.9001,4.9001,4.9001,4.9001,4.9001,4.9001,4.9001,4.9001,4.9001,4.9001,4.9001,4.9001,4.9001,4.9001,4.9001,4.9001,4.9001,4.9001,4.9001,4.9001,4.9001,4.9001,4.9001,4.9001,4.9001,4.9001,4.9001,4.9001,4.9001,4.9001,4.9001,4.9001,4.9001,4.9001,4.9001,4.9001,4.9001,4.9001,4.9001,4.9001,4.9001,4.9001,4.9123,4.9777,5.0004,5.0143,5.0876,5.1099,5.1099,5.1099,5.1099,5.1112,5.1112,5.1112,5.1487,5.2948,5.3321,5.3959,5.6312,5.6811,5.706,5.785,5.7997,5.7997,5.7997,5.7997,5.7997,5.7997,5.7997,5.7997,5.7997,5.7997,5.7997,5.7997,5.7997,5.7997,5.7997,5.7997,5.7997,5.7997,5.7997,5.7997,5.7997,5.7997,5.7997,5.7997,5.7997,5.7997,5.7997,5.7997,5.7997,5.7997,5.7997,5.8437,3.6626,3.7913,3.9215,3.9586,4.0606,4.1658,4.2261,4.2246,4.2528,4.4037,4.384,4.3667,4.461,4.593,4.6815,4.6633,4.7948,4.9001,4.9001,4.9001,4.9001,4.9001,4.9001,4.9001,4.9001,4.9001,4.9001,4.9001,4.9001,4.9001,4.9001,4.9001,4.9001,4.9001,4.9001,4.9001,4.9001,4.9001,4.9001,4.9001,4.9001,4.9001,4.9001,4.9001,4.9001,4.9001,4.9001,4.9001,4.9001,4.9001,4.9001,4.9001,4.9001,4.9001,4.9001,4.9001,4.9001,4.9001,4.9001,4.9316,4.9737,4.9933,5.0352,5.081,5.1034,5.1099,5.1099,5.1099,5.1444,5.179,5.179,5.2605,5.3398,5.3315,5.4123,5.5263,5.652,5.7244,5.7703,5.7941,5.7997,5.7997,5.7997,5.7997,5.7997,5.7997,5.7997,5.7997,5.7997,5.7997,5.7997,5.7997,5.7997,5.7997,5.7997,5.7997,5.7997,5.7997,5.7997,5.7997,5.7997,5.7997,5.7997,5.7997,5.7997,5.7997,5.7997,5.7997,5.7997,5.8015,5.8572,5.8976,3.7719,3.8721,3.9645,4.0692,4.1474,4.2237,4.3137,4.3354,4.3731,4.5078,4.5031,4.5039,4.598,4.6945,4.7589,4.7561,4.8371,4.9001,4.9001,4.9001,4.9001,4.9001,4.9001,4.9001,4.9001,4.9001,4.9001,4.9001,4.9001,4.9001,4.9001,4.9001,4.9001,4.9001,4.9001,4.9001,4.9001,4.9001,4.9001,4.9001,4.9001,4.9001,4.9001,4.9001,4.9001,4.9001,4.9001,4.9001,4.9001,4.9001,4.9001,4.9001,4.9001,4.9001,4.9001,4.9001,4.9001,4.9048,4.9301,4.9664,5.0086,5.0645,5.1133,5.1544,5.1838,5.194,5.194,5.194,5.2231,5.2543,5.2543,5.346,5.4367,5.4239,5.5163,5.629,5.7097,5.7666,5.7997,5.7997,5.7997,5.7997,5.7997,5.7997,5.7997,5.7997,5.7997,5.7997,5.7997,5.7997,5.7997,5.7997,5.7997,5.7997,5.7997,5.7997,5.7997,5.7997,5.7997,5.7997,5.7997,5.7997,5.7997,5.7997,5.7997,5.7997,5.7997,5.7997,5.8162,5.8492,5.8976,5.9545,3.9634,3.9913,4.0249,4.2551,4.24,4.2304,4.4536,4.5058,4.53,4.6138,4.6331,4.661,4.7556,4.7737,4.8015,4.8861,4.9001,4.9001,4.9001,4.9001,4.9001,4.9001,4.9001,4.9001,4.9001,4.9001,4.9001,4.9001,4.9001,4.9001,4.9001,4.9001,4.9001,4.9001,4.9001,4.9001,4.9001,4.9001,4.9001,4.9001,4.9001,4.9001,4.9001,4.9001,4.9001,4.9001,4.9001,4.9001,4.9001,4.9001,4.9001,4.9001,4.9001,4.9048,4.9092,4.9092,4.9138,4.9271,4.9893,5.0143,5.0404,5.168,5.2148,5.2335,5.2999,5.3196,5.3196,5.3196,5.3196,5.3214,5.3287,5.3911,5.4711,5.553,5.6271,5.7024,5.7831,5.7997,5.7997,5.7997,5.7997,5.7997,5.7997,5.7997,5.7997,5.7997,5.7997,5.7997,5.7997,5.7997,5.7997,5.7997,5.7997,5.7997,5.7997,5.7997,5.7997,5.7997,5.7997,5.7997,5.7997,5.7997,5.7997,5.7997,5.7997,5.7997,5.7997,5.807,5.8492,5.9196,5.9361,6.0187,3.7943,3.9998,4.2042,4.1847,4.2959,4.4573,4.6544,4.7002,4.7053,4.7256,4.7306,4.7589,4.8529,4.8703,4.875,4.897,4.9001,4.9001,4.9001,4.9001,4.9001,4.9001,4.9001,4.9001,4.9001,4.9001,4.9001,4.9001,4.9001,4.9001,4.9001,4.9001,4.9001,4.9001,4.9001,4.9001,4.9001,4.9001,4.9001,4.9001,4.9001,4.9001,4.9001,4.9001,4.9001,4.9001,4.9001,4.9001,4.9001,4.9001,4.9001,4.9001,4.9001,4.9314,4.9777,4.9777,5.016,5.068,5.081,5.1215,5.1704,5.2,5.249,5.298,5.3153,5.3196,5.3196,5.3196,5.3196,5.3343,5.3977,5.473,5.5548,5.6345,5.6664,5.7024,5.7831,5.7997,5.7997,5.7997,5.7997,5.7997,5.7997,5.7997,5.7997,5.7997,5.7997,5.7997,5.7997,5.7997,5.7997,5.7997,5.7997,5.7997,5.7997,5.7997,5.7997,5.7997,5.7997,5.7997,5.7997,5.7997,5.7997,5.7997,5.7997,5.7997,5.7997,5.8627,5.9031,5.9233,6.0511,6.1263,3.8969,4.0647,4.2142,4.3389,4.4588,4.5834,4.7273,4.795,4.8273,4.8273,4.8273,4.8417,4.8924,4.9001,4.9001,4.9001,4.9001,4.9001,4.9001,4.9001,4.9001,4.9001,4.9001,4.9001,4.9001,4.9001,4.9001,4.9001,4.9001,4.9001,4.9001,4.9001,4.9001,4.9001,4.9001,4.9001,4.9001,4.9001,4.9001,4.9001,4.9001,4.9001,4.9001,4.9001,4.9001,4.9001,4.9001,4.9001,4.9001,4.9001,4.9001,4.9032,4.9344,4.9693,5.003,5.0407,5.077,5.1138,5.1469,5.182,5.2159,5.2502,5.2893,5.3196,5.3196,5.3196,5.3196,5.3196,5.3196,5.3379,5.4197,5.4997,5.5805,5.662,5.7086,5.7483,5.7905,5.7997,5.7997,5.7997,5.7997,5.7997,5.7997,5.7997,5.7997,5.7997,5.7997,5.7997,5.7997,5.7997,5.7997,5.7997,5.7997,5.7997,5.7997,5.7997,5.7997,5.7997,5.7997,5.7997,5.7997,5.7997,5.7997,5.7997,5.7997,5.8198,5.8572,5.8994,5.96,6.0382,6.1208,6.1814,4.0084,4.0971,4.183,4.5724,4.6436,4.6488,4.7589,4.8433,4.9001,4.9001,4.9001,4.9001,4.9001,4.9001,4.9001,4.9001,4.9001,4.9001,4.9001,4.9001,4.9001,4.9001,4.9001,4.9001,4.9001,4.9001,4.9001,4.9001,4.9001,4.9001,4.9001,4.9001,4.9001,4.9001,4.9001,4.9001,4.9001,4.9001,4.9001,4.9001,4.9001,4.9001,4.9001,4.9001,4.9001,4.9001,4.9001,4.9001,4.9001,4.9001,4.9061,4.9228,4.9777,5.0143,5.0431,5.1047,5.1343,5.1537,5.2089,5.2282,5.2381,5.2999,5.3196,5.3196,5.3196,5.3196,5.3196,5.3196,5.3196,5.3416,5.4363,5.5108,5.5842,5.6785,5.7519,5.7997,5.7997,5.7997,5.7997,5.7997,5.7997,5.7997,5.7997,5.7997,5.7997,5.7997,5.7997,5.7997,5.7997,5.7997,5.7997,5.7997,5.7997,5.7997,5.7997,5.7997,5.7997,5.7997,5.7997,5.7997,5.7997,5.7997,5.807,5.8198,5.8217,5.8529,5.9196,5.949,6.0297,6.1606,6.1741,6.2163,3.7828,3.9625,4.2498,4.7406,4.7406,4.6644,4.8417,4.8924,4.9001,4.9001,4.9001,4.9001,4.9001,4.9001,4.9001,4.9001,4.9001,4.9001,4.9001,4.9001,4.9001,4.9001,4.9001,4.9001,4.9001,4.9001,4.9001,4.9001,4.9001,4.9001,4.9001,4.9001,4.9001,4.9001,4.9001,4.9001,4.9001,4.9001,4.9001,4.9001,4.9001,4.9001,4.9001,4.9001,4.9001,4.9001,4.9001,4.9001,4.9001,4.9001,4.9329,4.9879,4.9962,5.0739,5.1826,5.1928,5.2358,5.2926,5.302,5.3042,5.3082,5.3175,5.3196,5.3196,5.3196,5.3196,5.3196,5.3196,5.3196,5.3544,5.5042,5.5511,5.5989,5.7483,5.7923,5.7997,5.7997,5.7997,5.7997,5.7997,5.7997,5.7997,5.7997,5.7997,5.7997,5.7997,5.7997,5.7997,5.7997,5.7997,5.7997,5.7997,5.7997,5.7997,5.7997,5.7997,5.7997,5.7997,5.7997,5.7997,5.7997,5.7997,5.8327,5.9031,5.9049,5.9104,5.9196,6.0603,6.1392,6.1612,6.2328,6.2701,3.9407,4.1493,4.3949,4.7986,4.7966,4.734,4.8688,4.9001,4.9001,4.9001,4.9001,4.9001,4.9001,4.9001,4.9001,4.9001,4.9001,4.9001,4.9001,4.9001,4.9001,4.9001,4.9001,4.9001,4.9001,4.9001,4.9001,4.9001,4.9001,4.9001,4.9001,4.9001,4.9001,4.9001,4.9001,4.9001,4.9001,4.9001,4.9001,4.9001,4.9001,4.9001,4.9001,4.9001,4.9001,4.9001,4.9001,4.9212,4.9548,4.9548,4.9979,5.0649,5.1029,5.1538,5.2148,5.2565,5.2926,5.3196,5.3196,5.3196,5.3196,5.3196,5.3196,5.3196,5.3196,5.3196,5.3196,5.3196,5.3526,5.4142,5.531,5.5923,5.6565,5.7721,5.7997,5.7997,5.7997,5.7997,5.7997,5.7997,5.7997,5.7997,5.7997,5.7997,5.7997,5.7997,5.7997,5.7997,5.7997,5.7997,5.7997,5.7997,5.7997,5.7997,5.7997,5.7997,5.7997,5.7997,5.7997,5.7997,5.7997,5.7997,5.8382,5.9178,5.9196,5.9636,6.0548,6.1245,6.1832,6.2291,6.2646,6.2793,4.0261,4.2044,4.3635,4.7239,4.7579,4.7389,4.8714,4.9001,4.9001,4.9001,4.9001,4.9001,4.9001,4.9001,4.9001,4.9001,4.9001,4.9001,4.9001,4.9001,4.9001,4.9001,4.9001,4.9001,4.9001,4.9001,4.9001,4.9001,4.9001,4.9001,4.9001,4.9001,4.9001,4.9001,4.9001,4.9001,4.9001,4.9001,4.9001,4.9001,4.9001,4.9001,4.9001,4.9001,4.9092,4.9241,4.9061,4.9374,5.0004,5.0004,5.054,5.1406,5.1904,5.2206,5.2445,5.2999,5.3196,5.3196,5.3196,5.3196,5.3196,5.3196,5.3196,5.3196,5.3196,5.3196,5.3196,5.3196,5.3794,5.4583,5.5383,5.6198,5.6994,5.7813,5.7997,5.7997,5.7997,5.7997,5.7997,5.7997,5.7997,5.7997,5.7997,5.7997,5.7997,5.7997,5.7997,5.7997,5.7997,5.7997,5.7997,5.7997,5.7997,5.7997,5.7997,5.7997,5.7997,5.7997,5.7997,5.7997,5.7997,5.8198,5.8682,5.949,5.971,6.0401,6.1606,6.1814,6.2218,6.2793,6.2793,6.2793,3.8258,3.8977,4.0003,4.4618,4.5641,4.6131,4.8478,4.9001,4.9001,4.9001,4.9001,4.9001,4.9001,4.9001,4.9001,4.9001,4.9001,4.9001,4.9001,4.9001,4.9001,4.9001,4.9001,4.9001,4.9001,4.9001,4.9001,4.9001,4.9001,4.9001,4.9001,4.9001,4.9001,4.9001,4.9001,4.9001,4.9001,4.9001,4.9001,4.9001,4.9001,4.9001,4.9001,4.9001,4.9361,4.9904,4.9271,4.9374,5.0004,5.0004,5.0805,5.2035,5.2089,5.2531,5.3153,5.3185,5.3196,5.3196,5.3196,5.3196,5.3196,5.3196,5.3196,5.3196,5.3196,5.3196,5.3196,5.3196,5.3794,5.4583,5.5383,5.6198,5.6994,5.7813,5.7997,5.7997,5.7997,5.7997,5.7997,5.7997,5.7997,5.7997,5.7997,5.7997,5.7997,5.7997,5.7997,5.7997,5.7997,5.7997,5.7997,5.7997,5.7997,5.7997,5.7997,5.7997,5.7997,5.7997,5.7997,5.7997,5.7997,5.8737,5.9526,6.0327,6.108,6.1533,6.1606,6.2383,6.2756,6.2793,6.2793,6.2793,3.8225,3.9188,4.0256,4.34,4.5249,4.6512,4.7385,4.8325,4.9001,4.9001,4.9001,4.9001,4.9001,4.9001,4.9001,4.9001,4.9001,4.9001,4.9001,4.9001,4.9001,4.9001,4.9001,4.9001,4.9001,4.9001,4.9001,4.9001,4.9001,4.9001,4.9001,4.9001,4.9001,4.9001,4.9001,4.9001,4.9001,4.9001,4.9001,4.9001,4.9001,4.9001,4.9001,4.9001,4.9359,4.999,4.9751,5.0297,5.135,5.135,5.1934,5.2809,5.2809,5.2977,5.3196,5.3196,5.3196,5.3196,5.3196,5.3196,5.3196,5.3196,5.3196,5.3196,5.3196,5.3196,5.3196,5.3196,5.4161,5.5236,5.553,5.6583,5.7648,5.7923,5.7997,5.7997,5.7997,5.7997,5.7997,5.7997,5.7997,5.7997,5.7997,5.7997,5.7997,5.7997,5.7997,5.7997,5.7997,5.7997,5.7997,5.7997,5.7997,5.7997,5.7997,5.7997,5.7997,5.7997,5.7997,5.8235,5.8756,5.9049,5.982,6.1135,6.1447,6.1851,6.2383,6.2664,6.2793,6.2793,6.2793,6.2793,3.7223,0.0,3.9123,4.1628,4.3588,4.5242,4.6505,4.7564,4.8409,4.89,4.9001,4.9001,4.9001,4.9001,4.9001,4.9001,4.9001,4.9001,4.9001,4.9001,4.9001,4.9001,4.9001,4.9001,4.9001,4.9001,4.9001,4.9001,4.9001,4.9001,4.9001,4.9001,4.9001,4.9001,4.9001,4.9001,4.9001,4.9001,4.9001,4.9001,4.9001,4.9001,4.9001,4.9226,4.9707,5.0376,5.0622,5.1236,5.2101,5.2101,5.2524,5.3196,5.3196,5.3196,5.3196,5.3196,5.3196,5.3196,5.3196,5.3196,5.3196,5.3196,5.3196,5.3196,5.3196,5.3196,5.3269,5.3526,5.4564,5.5658,5.5923,5.6987,5.7997,5.7997,5.7997,5.7997,5.7997,5.7997,5.7997,5.7997,5.7997,5.7997,5.7997,5.7997,5.7997,5.7997,5.7997,5.7997,5.7997,5.7997,5.7997,5.7997,5.7997,5.7997,5.7997,5.7997,5.7997,5.7997,5.7997,5.8364,5.9178,5.9471,6.0236,6.1569,6.1869,6.2273,6.2793,6.2793,6.2793,6.2793,6.2793,6.2793,0.0,0.0,0.0,3.9171,4.0556,4.2147,4.5794,4.6733,4.7208,4.8646,4.8968,4.9001,4.9001,4.9001,4.9001,4.9001,4.9001,4.9001,4.9001,4.9001,4.9001,4.9001,4.9001,4.9001,4.9001,4.9001,4.9001,4.9001,4.9001,4.9001,4.9001,4.9001,4.9001,4.9001,4.9001,4.9001,4.9001,4.9001,4.9001,4.9001,4.9001,4.9001,4.9017,4.9693,5.039,5.1138,5.182,5.2112,5.2136,5.2136,5.2554,5.3196,5.3196,5.3196,5.3196,5.3196,5.3196,5.3196,5.3196,5.3196,5.3196,5.3196,5.3196,5.3196,5.3196,5.3196,5.3379,5.4179,5.4979,5.5787,5.662,5.7409,5.7997,5.7997,5.7997,5.7997,5.7997,5.7997,5.7997,5.7997,5.7997,5.7997,5.7997,5.7997,5.7997,5.7997,5.7997,5.7997,5.7997,5.7997,5.7997,5.7997,5.7997,5.7997,5.7997,5.7997,5.7997,5.7997,5.8015,5.84,5.9196,6.0003,6.0805,6.1612,6.2401,6.2793,6.2793,6.2793,6.2793,6.2793,6.2793,6.2793,3.4548,0.0,0.0,0.0,0.0,0.0,4.2496,4.484,4.6919,4.731,4.8257,4.9001,4.9001,4.9001,4.9001,4.9001,4.9001,4.9001,4.9001,4.9001,4.9001,4.9001,4.9001,4.9001,4.9001,4.9001,4.9001,4.9001,4.9001,4.9001,4.9001,4.9001,4.9001,4.9001,4.9001,4.9001,4.9001,4.9001,4.9001,4.9001,4.9001,4.9001,4.9017,4.9742,5.0456,5.1138,5.182,5.2393,5.2904,5.2904,5.302,5.3196,5.3196,5.3196,5.3196,5.3196,5.3196,5.3196,5.3196,5.3196,5.3196,5.3196,5.3196,5.3196,5.3196,5.3196,5.3379,5.4179,5.4979,5.5915,5.7299,5.7831,5.7997,5.7997,5.7997,5.7997,5.7997,5.7997,5.7997,5.7997,5.7997,5.7997,5.7997,5.7997,5.7997,5.7997,5.7997,5.7997,5.7997,5.7997,5.7997,5.7997,5.7997,5.7997,5.7997,5.7997,5.7997,5.7997,5.8535,5.9233,6.0022,6.0841,6.1649,6.2444,6.2683,6.2793,6.2793,6.2793,6.2793,6.2793,6.2793,6.2793,0.0,0.0,0.0,0.0,0.0,0.0,4.2257,4.4313,4.6225,4.7462,4.8409,4.9001,4.9001,4.9001,4.9001,4.9001,4.9001,4.9001,4.9001,4.9001,4.9001,4.9001,4.9001,4.9001,4.9001,4.9001,4.9001,4.9001,4.9001,4.9001,4.9001,4.9001,4.9001,4.9001,4.9001,4.9001,4.9001,4.9001,4.9001,4.9001,4.9001,4.9001,4.9032,5.0039,5.0738,5.1151,5.2131,5.2791,5.3196,5.3196,5.3196,5.3196,5.3196,5.3196,5.3196,5.3196,5.3196,5.3196,5.3196,5.3196,5.3196,5.3196,5.3196,5.3196,5.3196,5.3196,5.3434,5.4583,5.5732,5.6833,5.7758,5.7997,5.7997,5.7997,5.7997,5.7997,5.7997,5.7997,5.7997,5.7997,5.7997,5.7997,5.7997,5.7997,5.7997,5.7997,5.7997,5.7997,5.7997,5.7997,5.7997,5.7997,5.7997,5.7997,5.7997,5.7997,5.7997,5.7997,5.8756,5.9563,6.0382,6.1172,6.1979,6.2774,6.2793,6.2793,6.2793,6.2793,6.2793,6.2793,6.2793,6.2793,0.0,0.0,0.0,0.0,3.8239,0.0,4.3083,4.4042,4.4939,4.7496,4.8139,4.8257,4.8257,4.8257,4.8257,4.8257,4.8477,4.8731,4.8968,4.9001,4.9001,4.9001,4.9001,4.9001,4.9001,4.9001,4.9001,4.9001,4.9001,4.9001,4.9001,4.9001,4.9001,4.9001,4.9001,4.9001,4.9001,4.9001,4.9001,4.9001,4.9001,4.9001,4.9048,5.0449,5.1099,5.1176,5.2583,5.3196,5.3196,5.3196,5.3196,5.3196,5.3196,5.3196,5.3196,5.3196,5.3196,5.3196,5.3196,5.3196,5.3196,5.3196,5.3196,5.3196,5.3196,5.3196,5.3544,5.5144,5.676,5.7997,5.7997,5.7997,5.7997,5.7997,5.7997,5.7997,5.7997,5.7997,5.7997,5.7997,5.7997,5.7997,5.7997,5.7997,5.7997,5.7997,5.7997,5.7997,5.7997,5.7997,5.7997,5.7997,5.7997,5.7997,5.7997,5.7997,5.8033,5.8125,5.8884,5.9692,6.0511,6.13,6.2071,6.2793,6.2793,6.2793,6.2793,6.2793,6.2793,6.2793,6.2793,6.2793,0.0,0.0,0.0,0.0,0.0,0.0,3.9022,4.0578,4.1863,4.1833,4.2777,4.3619,4.3619,4.3619,4.3619,4.3619,4.5145,4.6972,4.8748,4.9001,4.9001,4.9001,4.9001,4.9001,4.9001,4.9001,4.9001,4.9001,4.9001,4.9001,4.9001,4.9001,4.9001,4.9001,4.9001,4.9001,4.9001,4.9001,4.9001,4.9001,4.9001,4.9001,4.9048,5.0449,5.1099,5.1176,5.2583,5.3196,5.3196,5.3196,5.3196,5.3196,5.3196,5.3196,5.3196,5.3196,5.3196,5.3196,5.3196,5.3196,5.3196,5.3196,5.3196,5.3196,5.3196,5.3196,5.3544,5.5144,5.676,5.7997,5.7997,5.7997,5.7997,5.7997,5.7997,5.7997,5.7997,5.7997,5.7997,5.7997,5.7997,5.7997,5.7997,5.7997,5.7997,5.7997,5.7997,5.7997,5.7997,5.7997,5.7997,5.7997,5.7997,5.7997,5.7997,5.7997,5.829,5.8921,5.971,6.0529,6.1318,6.2144,6.2646,6.2793,6.2793,6.2793,6.2793,6.2793,6.2793,6.2793,6.2793,6.2793,0.0,0.0,0.0,3.6384,0.0,0.0,0.0,3.9862,4.0751,4.1123,4.1779,4.23,4.23,4.23,4.23,4.23,4.4215,4.5703,4.5652,4.7597,4.9001,4.9001,4.9001,4.9001,4.9001,4.9001,4.9001,4.9001,4.9001,4.9001,4.9001,4.9001,4.9001,4.9001,4.9001,4.9001,4.9001,4.9001,4.9001,4.9001,4.9329,4.9506,4.9551,5.0968,5.1593,5.1661,5.2725,5.3196,5.3196,5.3196,5.3196,5.3196,5.3196,5.3196,5.3196,5.3196,5.3196,5.3196,5.3196,5.3196,5.3196,5.3196,5.3196,5.3196,5.3196,5.3765,5.4564,5.5365,5.676,5.7997,5.7997,5.7997,5.7997,5.7997,5.7997,5.7997,5.7997,5.7997,5.7997,5.7997,5.7997,5.7997,5.7997,5.7997,5.7997,5.7997,5.7997,5.7997,5.7997,5.7997,5.7997,5.7997,5.7997,5.7997,5.7997,5.7997,5.8345,5.9159,5.9948,6.0768,6.1569,6.2383,6.2793,6.2793,6.2793,6.2793,6.2793,6.2793,6.2793,6.2793,6.2793,6.2793,0.0,0.0,0.0,0.0,0.0,3.792,0.0,0.0,0.0,4.0798,4.0899,4.0844,4.0984,4.0895,4.0844,4.0997,4.2912,4.3775,4.1914,4.5145,4.7665,4.7513,4.8392,4.8781,4.8206,4.8274,4.8545,4.8968,4.8612,4.8562,4.8984,4.9001,4.9001,4.9001,4.9001,4.9001,4.9001,4.9001,4.9061,4.9197,4.9751,5.0072,5.0255,5.1513,5.2101,5.2136,5.2875,5.3196,5.3196,5.3196,5.3196,5.3196,5.3196,5.3196,5.3196,5.3196,5.3196,5.3196,5.3196,5.3196,5.3196,5.3196,5.3196,5.3196,5.3196,5.4326,5.5603,5.5603,5.676,5.7997,5.7997,5.7997,5.7997,5.7997,5.7997,5.7997,5.7997,5.7997,5.7997,5.7997,5.7997,5.7997,5.7997,5.7997,5.7997,5.7997,5.7997,5.7997,5.7997,5.7997,5.7997,5.7997,5.7997,5.7997,5.7997,5.8143,5.8565,5.938,6.0187,6.0988,6.1796,6.2444,6.2793,6.2793,6.2793,6.2793,6.2793,6.2793,6.2793,6.2793,6.2793,6.2793,0.0,0.0,0.0,0.0,3.6316,0.0,3.711,0.0,3.7021,3.6473,0.0,3.5588,3.6236,0.0,0.0,3.6253,3.8266,3.9665,3.9411,4.1504,4.2811,4.2168,4.6177,4.797,4.5345,4.5686,4.6887,4.8849,4.7192,4.6938,4.89,4.9001,4.9001,4.9001,4.9001,4.9001,4.9001,4.9001,4.9301,4.9893,4.9962,5.0335,5.0995,5.1771,5.2101,5.2136,5.2875,5.3196,5.3196,5.3196,5.3196,5.3196,5.3196,5.3196,5.3196,5.3196,5.3196,5.3196,5.3196,5.3196,5.3196,5.3196,5.3196,5.3196,5.3196,5.4326,5.5603,5.5603,5.676,5.7997,5.7997,5.7997,5.7997,5.7997,5.7997,5.7997,5.7997,5.7997,5.7997,5.7997,5.7997,5.7997,5.7997,5.7997,5.7997,5.7997,5.7997,5.7997,5.7997,5.7997,5.7997,5.7997,5.7997,5.7997,5.7997,5.8646,5.9416,6.0205,6.1025,6.1814,6.2627,6.2756,6.2793,6.2793,6.2793,6.2793,6.2793,6.2793,6.2793,6.2793,6.2793,6.2793,0.0,0.0,0.0,0.0,0.0,0.0,3.6401,0.0,3.6011,3.5678,0.0,0.0,0.0,0.0,0.0,0.0,3.6874,3.7753,3.5994,3.8797,4.1064,4.1187,4.3149,4.4502,4.4584,4.643,4.8003,4.8934,4.8139,4.802,4.8951,4.9001,4.9001,4.9001,4.9001,4.9182,4.9578,4.9578,4.9936,5.0635,5.1029,5.1376,5.1692,5.2411,5.2747,5.2758,5.3071,5.3196,5.3196,5.3196,5.3196,5.3196,5.3196,5.3196,5.3196,5.3196,5.3196,5.3196,5.3196,5.3196,5.3196,5.3196,5.3196,5.3196,5.3196,5.4326,5.5603,5.5603,5.676,5.7997,5.7997,5.7997,5.7997,5.7997,5.7997,5.7997,5.7997,5.7997,5.7997,5.7997,5.7997,5.7997,5.7997,5.7997,5.7997,5.7997,5.7997,5.7997,5.7997,5.7997,5.7997,5.7997,5.7997,5.7997,5.7997,5.8737,5.9545,6.0346,6.1594,6.2444,6.2793,6.2793,6.2793,6.2793,6.2793,6.2793,6.2793,6.2793,6.2793,6.2793,6.2793,6.2793,3.5305,0.0,0.0,0.0,3.6004,3.7349,3.5922,3.5609,3.56,3.56,3.543,0.0,0.0,0.0,3.4884,0.0,0.0,3.5898,3.37,3.6208,3.8391,3.8717,3.9309,4.073,4.3416,4.5602,4.7124,4.775,4.7986,4.8359,4.8968,4.9001,4.9001,4.9001,4.9001,4.9314,4.999,5.0004,5.0459,5.1381,5.1868,5.2213,5.2434,5.2948,5.3196,5.3196,5.3196,5.3196,5.3196,5.3196,5.3196,5.3196,5.3196,5.3196,5.3196,5.3196,5.3196,5.3196,5.3196,5.3196,5.3196,5.3196,5.3196,5.3196,5.3196,5.4326,5.5603,5.5603,5.676,5.7997,5.7997,5.7997,5.7997,5.7997,5.7997,5.7997,5.7997,5.7997,5.7997,5.7997,5.7997,5.7997,5.7997,5.7997,5.7997,5.7997,5.7997,5.7997,5.7997,5.7997,5.7997,5.7997,5.7997,5.8088,5.8309,5.9068,5.9967,6.0976,6.215,6.2793,6.2793,6.2793,6.2793,6.2793,6.2793,6.2793,6.2793,6.2793,6.2793,6.2793,6.2793,6.2793,3.8105,3.7352,3.7238,3.4353,3.4184,3.4887,3.5475,3.5605,3.56,3.56,3.5019,3.4742,3.5464,3.4427,3.3694,0.0,0.0,0.0,0.0,3.3514,3.3355,3.2666,3.4489,3.7234,4.0937,4.139,4.2371,4.4567,4.5399,4.6752,4.8883,4.9001,4.9001,4.9001,4.9001,4.9314,4.999,5.0004,5.0685,5.2077,5.2101,5.2479,5.3164,5.3185,5.3196,5.3196,5.3196,5.3196,5.3196,5.3196,5.3196,5.3196,5.3196,5.3196,5.3196,5.3196,5.3196,5.3196,5.3196,5.3196,5.3196,5.3196,5.3196,5.3196,5.3196,5.4326,5.5603,5.5603,5.676,5.7997,5.7997,5.7997,5.7997,5.7997,5.7997,5.7997,5.7997,5.7997,5.7997,5.7997,5.7997,5.7997,5.7997,5.7997,5.7997,5.7997,5.7997,5.7997,5.7997,5.7997,5.7997,5.7997,5.7997,5.8327,5.9104,5.9893,6.1031,6.2627,6.2774,6.2793,6.2793,6.2793,6.2793,6.2793,6.2793,6.2793,6.2793,6.2793,6.2793,6.2793,6.2793,6.2793,4.0382,4.1373,4.195,3.7602,3.8114,3.8988,3.6241,3.56,3.56,3.56,3.5408,3.5306,3.5549,0.0,0.0,0.0,0.0,0.0,0.0,3.1935,3.2029,3.2276,3.4252,3.609,3.7369,4.1102,4.3772,4.4533,4.6633,4.8223,4.8968,4.9001,4.9001,4.9001,4.9001,4.9566,5.0716,5.073,5.1419,5.2831,5.2831,5.2959,5.3196,5.3196,5.3196,5.3196,5.3196,5.3196,5.3196,5.3196,5.3196,5.3196,5.3196,5.3196,5.3196,5.3196,5.3196,5.3196,5.3196,5.3196,5.3196,5.3196,5.3196,5.3196,5.3196,5.4326,5.5603,5.5603,5.676,5.7997,5.7997,5.7997,5.7997,5.7997,5.7997,5.7997,5.7997,5.7997,5.7997,5.7997,5.7997,5.7997,5.7997,5.7997,5.7997,5.7997,5.7997,5.7997,5.7997,5.7997,5.7997,5.7997,5.7997,5.8327,5.9141,6.0438,6.1649,6.2738,6.2793,6.2793,6.2793,6.2793,6.2793,6.2793,6.2793,6.2793,6.2793,6.2793,6.2793,6.2793,6.2793,6.2793,4.2862,4.3827,4.4278,4.02,4.0577,4.1043,3.7592,3.6811,3.6811,3.6811,3.6157,3.609,3.7691,0.0,0.0,0.0,0.0,0.0,0.0,3.1759,3.1759,3.2242,3.3569,3.4861,3.5926,3.9783,4.2875,4.4479,4.6599,4.8173,4.8968,4.9001,4.9001,4.9001,4.9001,4.9681,5.1086,5.1099,5.1801,5.3196,5.3196,5.3196,5.3196,5.3196,5.3196,5.3196,5.3196,5.3196,5.3196,5.3196,5.3196,5.3196,5.3196,5.3196,5.3196,5.3196,5.3196,5.3196,5.3196,5.3196,5.3196,5.3196,5.3196,5.3196,5.3196,5.4124,5.5291,5.5868,5.6767,5.7703,5.829,5.8217,5.7997,5.7997,5.7997,5.7997,5.7997,5.7997,5.7997,5.7997,5.7997,5.7997,5.7997,5.7997,5.7997,5.7997,5.7997,5.7997,5.7997,5.7997,5.7997,5.7997,5.7997,5.8437,5.9526,6.1086,6.2254,6.2774,6.2793,6.2793,6.2793,6.2793,6.2939,6.3264,6.2958,6.2958,6.3264,6.2958,6.2793,6.2793,6.2793,6.2793]}]]